[[{"header":{"parameterUnit":"m.s-1","parameterCategory":1,"la1":30.6,"la2":29.2853,"lo1":-89.7004,"lo2":-87.6739,"dy":0.0162,"dx":0.0183,"nx":112,"ny":82,"refTime":"2023-10-08T06:00:00:Z","depth":0,"parameterNumber":2,"parameterNumberName":"U-component_of_WINDS"},"data":[0.0,0.0,0.0,0.0,0.0,0.0,0.0,0.0,0.0,0.0,0.0,0.0,0.0,0.0,0.0,0.0,0.0,0.0,0.0,0.0,0.0,0.0,0.0,0.0,0.0,0.0,0.0,0.0,0.0,0.0,0.0,0.0,0.0,0.0,0.0,0.0,0.0,0.0,0.0,0.0,0.0,0.0,0.0,0.0,0.0,0.0,0.0,0.0,0.0,0.0,0.0,0.0,0.0,0.0,0.0,0.0,0.0,0.0,0.0,0.0,0.0,0.0,0.0,0.0,0.0,0.0,0.0,0.0,0.0,0.0,0.0,0.0,0.0,0.0,0.0,0.0,0.0,0.0,0.0,0.0,0.0,0.0,0.0,0.0,0.0,0.0,0.0,0.0,0.0,0.0,-1.3556,-1.3596,-1.3402,-1.3302,-1.3236,-1.3496,-1.3801,-1.4223,0.0,0.0,0.0,0.0,0.0,0.0,0.0,0.0,0.0,0.0,0.0,0.0,0.0,0.0,0.0,0.0,0.0,0.0,0.0,0.0,0.0,0.0,0.0,0.0,0.0,0.0,0.0,0.0,0.0,0.0,0.0,0.0,0.0,0.0,0.0,0.0,0.0,0.0,0.0,0.0,0.0,0.0,0.0,0.0,0.0,0.0,0.0,0.0,0.0,0.0,0.0,0.0,0.0,0.0,0.0,0.0,0.0,0.0,0.0,0.0,0.0,0.0,0.0,0.0,0.0,0.0,0.0,0.0,0.0,0.0,0.0,0.0,0.0,0.0,0.0,0.0,0.0,0.0,0.0,0.0,0.0,0.0,0.0,0.0,0.0,0.0,0.0,0.0,0.0,0.0,0.0,0.0,0.0,0.0,0.0,0.0,0.0,0.0,0.0,0.0,0.0,0.0,0.0,0.0,-1.3916,-1.4132,-1.4155,-1.4056,-1.379,-1.4224,-1.4376,-1.3919,0.0,0.0,0.0,0.0,0.0,0.0,0.0,0.0,0.0,0.0,0.0,0.0,0.0,0.0,0.0,0.0,0.0,0.0,0.0,0.0,0.0,0.0,0.0,0.0,0.0,0.0,0.0,0.0,0.0,0.0,0.0,0.0,0.0,0.0,0.0,0.0,0.0,0.0,0.0,0.0,0.0,0.0,0.0,0.0,0.0,0.0,0.0,0.0,0.0,0.0,0.0,0.0,0.0,0.0,0.0,0.0,0.0,0.0,0.0,0.0,0.0,0.0,0.0,0.0,0.0,0.0,0.0,0.0,0.0,0.0,0.0,0.0,0.0,0.0,0.0,0.0,0.0,0.0,0.0,0.0,0.0,0.0,0.0,0.0,0.0,0.0,0.0,0.0,0.0,0.0,0.0,0.0,0.0,0.0,0.0,0.0,0.0,0.0,0.0,0.0,0.0,0.0,0.0,-1.3854,-1.3987,-1.4097,-1.423,-1.432,-1.4367,-1.4607,-1.4628,-1.4434,-1.4652,0.0,0.0,0.0,0.0,0.0,0.0,0.0,0.0,0.0,0.0,0.0,0.0,0.0,0.0,0.0,0.0,0.0,0.0,0.0,0.0,0.0,0.0,0.0,0.0,0.0,0.0,0.0,0.0,0.0,0.0,0.0,0.0,0.0,0.0,0.0,0.0,0.0,0.0,0.0,0.0,0.0,0.0,0.0,0.0,0.0,0.0,0.0,0.0,0.0,0.0,0.0,0.0,0.0,0.0,0.0,0.0,0.0,0.0,0.0,0.0,0.0,0.0,0.0,0.0,0.0,0.0,0.0,0.0,0.0,0.0,0.0,0.0,0.0,0.0,0.0,0.0,0.0,0.0,0.0,0.0,0.0,0.0,0.0,0.0,0.0,0.0,0.0,0.0,0.0,0.0,0.0,0.0,0.0,0.0,0.0,0.0,0.0,0.0,0.0,0.0,0.0,0.0,-1.4144,-1.4225,-1.4283,-1.4462,-1.4688,-1.4849,-1.4872,-1.4953,-1.503,-1.5041,0.0,0.0,0.0,0.0,0.0,0.0,0.0,0.0,0.0,0.0,0.0,0.0,0.0,0.0,0.0,0.0,0.0,0.0,0.0,0.0,0.0,0.0,0.0,0.0,0.0,0.0,0.0,0.0,0.0,0.0,0.0,0.0,0.0,0.0,0.0,0.0,0.0,0.0,0.0,0.0,0.0,0.0,0.0,0.0,0.0,0.0,0.0,0.0,0.0,0.0,0.0,0.0,0.0,0.0,0.0,0.0,0.0,0.0,0.0,0.0,0.0,0.0,0.0,0.0,0.0,0.0,0.0,0.0,0.0,0.0,0.0,0.0,0.0,0.0,0.0,0.0,0.0,0.0,0.0,0.0,0.0,0.0,0.0,0.0,0.0,0.0,0.0,0.0,0.0,0.0,0.0,0.0,0.0,0.0,0.0,0.0,0.0,0.0,0.0,0.0,0.0,0.0,-1.4713,-1.5071,-1.5317,-1.5353,-1.5374,-1.5429,-1.5452,-1.5351,-1.5035,-1.5041,0.0,0.0,0.0,0.0,0.0,0.0,0.0,0.0,0.0,0.0,0.0,0.0,0.0,0.0,0.0,0.0,0.0,0.0,0.0,0.0,0.0,0.0,0.0,0.0,0.0,0.0,0.0,0.0,0.0,0.0,0.0,0.0,0.0,0.0,0.0,0.0,0.0,0.0,0.0,0.0,0.0,0.0,0.0,0.0,0.0,0.0,0.0,0.0,0.0,0.0,0.0,0.0,0.0,0.0,0.0,0.0,0.0,0.0,0.0,0.0,0.0,0.0,0.0,0.0,0.0,0.0,0.0,0.0,0.0,0.0,0.0,0.0,0.0,0.0,0.0,0.0,0.0,0.0,0.0,0.0,0.0,0.0,0.0,0.0,0.0,0.0,0.0,0.0,0.0,0.0,0.0,0.0,0.0,0.0,0.0,0.0,0.0,0.0,0.0,0.0,0.0,0.0,-1.4879,-1.5178,-1.5487,-1.5644,-1.5783,-1.5785,-1.5791,-1.5577,-1.5369,0.0,0.0,0.0,0.0,0.0,0.0,0.0,0.0,0.0,0.0,0.0,0.0,0.0,0.0,0.0,0.0,0.0,0.0,0.0,0.0,0.0,0.0,0.0,0.0,0.0,0.0,0.0,0.0,0.0,0.0,0.0,0.0,0.0,0.0,0.0,0.0,0.0,0.0,0.0,0.0,0.0,0.0,0.0,0.0,0.0,0.0,0.0,0.0,0.0,0.0,0.0,0.0,0.0,0.0,0.0,0.0,0.0,0.0,0.0,0.0,0.0,0.0,0.0,0.0,0.0,0.0,0.0,0.0,0.0,0.0,0.0,0.0,0.0,0.0,0.0,0.0,0.0,0.0,0.0,0.0,0.0,0.0,0.0,0.0,0.0,0.0,0.0,0.0,0.0,0.0,0.0,0.0,0.0,0.0,0.0,0.0,0.0,0.0,0.0,0.0,0.0,0.0,-1.4698,-1.5041,-1.541,-1.5626,-1.5783,-1.5891,-1.5891,-1.5891,-1.5785,-1.569,0.0,0.0,0.0,0.0,0.0,0.0,0.0,0.0,0.0,0.0,0.0,0.0,0.0,0.0,0.0,0.0,0.0,0.0,0.0,0.0,0.0,0.0,0.0,0.0,0.0,0.0,0.0,0.0,0.0,0.0,0.0,0.0,0.0,0.0,0.0,0.0,0.0,0.0,0.0,0.0,0.0,0.0,0.0,0.0,0.0,0.0,0.0,0.0,0.0,0.0,0.0,0.0,0.0,0.0,0.0,0.0,0.0,0.0,0.0,0.0,0.0,0.0,0.0,0.0,0.0,0.0,0.0,0.0,0.0,0.0,0.0,0.0,0.0,0.0,0.0,0.0,0.0,0.0,0.0,0.0,0.0,0.0,0.0,0.0,0.0,0.0,0.0,0.0,0.0,0.0,0.0,0.0,0.0,0.0,0.0,0.0,0.0,0.0,0.0,0.0,0.0,0.0,-1.4786,-1.5417,-1.5891,-1.5891,-1.5891,-1.5891,-1.5891,-1.5891,-1.5891,0.0,0.0,0.0,0.0,0.0,0.0,0.0,0.0,0.0,0.0,0.0,0.0,0.0,0.0,0.0,0.0,0.0,0.0,0.0,0.0,0.0,0.0,0.0,0.0,0.0,0.0,0.0,0.0,0.0,0.0,0.0,0.0,0.0,0.0,0.0,0.0,0.0,0.0,0.0,0.0,0.0,0.0,0.0,0.0,0.0,0.0,0.0,0.0,0.0,0.0,0.0,0.0,0.0,0.0,0.0,0.0,0.0,0.0,0.0,0.0,0.0,0.0,0.0,0.0,0.0,0.0,0.0,0.0,0.0,0.0,0.0,0.0,0.0,0.0,0.0,0.0,0.0,0.0,0.0,0.0,0.0,0.0,0.0,0.0,0.0,0.0,0.0,0.0,0.0,0.0,0.0,0.0,0.0,0.0,0.0,0.0,0.0,0.0,0.0,0.0,0.0,0.0,0.0,-1.491,-1.5524,-1.5891,-1.5891,-1.5891,-1.5891,-1.5891,-1.5891,-1.5891,-1.5891,0.0,0.0,0.0,0.0,0.0,0.0,0.0,0.0,0.0,0.0,0.0,0.0,0.0,0.0,0.0,0.0,0.0,0.0,0.0,0.0,0.0,0.0,0.0,0.0,0.0,0.0,0.0,0.0,0.0,0.0,0.0,0.0,0.0,0.0,0.0,0.0,0.0,0.0,0.0,0.0,0.0,0.0,0.0,0.0,0.0,0.0,0.0,0.0,0.0,0.0,0.0,0.0,0.0,0.0,0.0,0.0,0.0,0.0,0.0,0.0,0.0,0.0,0.0,0.0,0.0,0.0,0.0,0.0,0.0,0.0,0.0,0.0,0.0,0.0,0.0,0.0,0.0,0.0,0.0,0.0,0.0,0.0,0.0,0.0,0.0,0.0,0.0,0.0,0.0,0.0,0.0,0.0,0.0,0.0,0.0,0.0,0.0,0.0,0.0,0.0,0.0,0.0,-1.4905,-1.5363,-1.5791,-1.5791,-1.5571,-1.5678,-1.5891,-1.5791,-1.5791,-1.5891,0.0,0.0,0.0,0.0,0.0,0.0,0.0,0.0,0.0,0.0,0.0,0.0,0.0,0.0,0.0,0.0,0.0,0.0,0.0,0.0,0.0,0.0,0.0,0.0,0.0,0.0,0.0,0.0,0.0,0.0,0.0,0.0,0.0,0.0,0.0,0.0,0.0,0.0,0.0,0.0,0.0,0.0,0.0,0.0,0.0,0.0,0.0,0.0,0.0,0.0,0.0,0.0,0.0,0.0,0.0,0.0,0.0,0.0,0.0,0.0,0.0,0.0,0.0,0.0,0.0,0.0,0.0,0.0,0.0,0.0,0.0,0.0,0.0,0.0,0.0,0.0,0.0,0.0,0.0,0.0,0.0,0.0,0.0,0.0,0.0,0.0,0.0,0.0,0.0,0.0,0.0,0.0,0.0,0.0,0.0,0.0,0.0,0.0,0.0,0.0,0.0,0.0,-1.46,-1.5148,-1.5482,-1.5482,-1.5256,-1.5357,-1.5891,-1.569,-1.569,-1.5891,0.0,0.0,0.0,0.0,0.0,0.0,0.0,0.0,0.0,0.0,0.0,0.0,0.0,0.0,0.0,0.0,0.0,0.0,0.0,0.0,0.0,0.0,0.0,0.0,0.0,0.0,0.0,0.0,0.0,0.0,0.0,0.0,0.0,0.0,0.0,0.0,0.0,0.0,0.0,0.0,0.0,0.0,0.0,0.0,0.0,0.0,0.0,0.0,0.0,0.0,0.0,0.0,0.0,0.0,0.0,0.0,0.0,0.0,0.0,0.0,-1.3619,-1.4164,0.0,0.0,0.0,0.0,0.0,0.0,0.0,0.0,0.0,0.0,0.0,0.0,0.0,0.0,0.0,0.0,0.0,0.0,0.0,0.0,0.0,0.0,0.0,0.0,0.0,0.0,0.0,0.0,0.0,0.0,0.0,0.0,0.0,0.0,0.0,0.0,0.0,0.0,0.0,0.0,-1.4606,-1.5148,-1.5482,-1.5482,-1.5577,-1.5785,-1.5891,-1.5891,-1.5891,-1.5891,-1.594,0.0,0.0,0.0,0.0,0.0,0.0,0.0,0.0,0.0,0.0,0.0,0.0,0.0,0.0,0.0,0.0,0.0,0.0,0.0,0.0,0.0,0.0,0.0,0.0,0.0,0.0,0.0,0.0,0.0,0.0,0.0,0.0,0.0,0.0,0.0,0.0,0.0,0.0,0.0,0.0,0.0,0.0,0.0,0.0,0.0,0.0,0.0,0.0,0.0,0.0,0.0,0.0,0.0,0.0,0.0,0.0,0.0,0.0,0.0,-1.2635,-1.3398,0.0,0.0,0.0,0.0,0.0,0.0,0.0,0.0,0.0,0.0,0.0,0.0,0.0,0.0,0.0,0.0,0.0,0.0,0.0,0.0,0.0,0.0,0.0,0.0,0.0,0.0,0.0,0.0,0.0,0.0,0.0,0.0,0.0,0.0,0.0,0.0,0.0,0.0,0.0,0.0,-1.4821,-1.5261,-1.5482,-1.5482,-1.547,-1.5571,-1.5891,-1.5791,-1.5791,-1.5891,-1.6006,0.0,0.0,0.0,0.0,0.0,0.0,0.0,0.0,0.0,0.0,0.0,0.0,0.0,0.0,0.0,0.0,0.0,0.0,0.0,0.0,0.0,0.0,0.0,0.0,0.0,0.0,0.0,0.0,0.0,0.0,0.0,0.0,0.0,0.0,0.0,0.0,0.0,0.0,0.0,0.0,0.0,0.0,0.0,0.0,0.0,0.0,0.0,0.0,0.0,0.0,0.0,0.0,0.0,-1.0123,-1.0139,-1.0056,-1.0276,-1.0512,-1.0871,-1.1498,-1.2228,-1.2852,-1.1437,0.0,0.0,0.0,0.0,0.0,0.0,0.0,0.0,0.0,0.0,0.0,0.0,0.0,0.0,0.0,0.0,0.0,0.0,0.0,0.0,0.0,0.0,-1.0546,-0.9137,-0.9688,-1.0668,-1.1214,0.0,0.0,0.0,0.0,0.0,0.0,0.0,0.0,0.0,0.0,0.0,-1.5041,-1.5261,-1.5482,-1.5482,-1.5256,-1.5357,-1.5891,-1.5684,-1.569,-1.5891,-1.6139,-1.6404,0.0,0.0,0.0,0.0,0.0,0.0,0.0,0.0,0.0,0.0,0.0,0.0,0.0,0.0,0.0,0.0,0.0,0.0,0.0,0.0,0.0,0.0,0.0,0.0,0.0,0.0,0.0,0.0,0.0,0.0,0.0,0.0,-0.6874,-0.6989,0.0,0.0,0.0,0.0,0.0,0.0,0.0,0.0,0.0,0.0,0.0,0.0,0.0,-0.8699,-0.7706,-0.7706,-0.7706,-0.7706,-0.7706,-0.7653,-0.7763,-0.8881,-0.9401,-0.9523,-0.95,0.0,-1.1328,-1.0123,0.0,0.0,0.0,0.0,0.0,0.0,0.0,0.0,0.0,0.0,0.0,0.0,0.0,0.0,0.0,0.0,0.0,0.0,0.0,0.0,0.0,0.0,-0.8371,-0.8152,-0.8263,-0.8481,-0.8484,-0.9908,-1.1109,-1.1328,-1.2309,-1.3078,0.0,0.0,0.0,0.0,0.0,0.0,-1.5041,-1.5261,-1.5482,-1.5482,-1.5684,-1.5785,-1.5891,-1.5891,-1.5891,-1.5891,-1.6139,-1.6404,-1.6688,-1.6954,0.0,0.0,0.0,0.0,0.0,0.0,0.0,0.0,0.0,0.0,0.0,0.0,0.0,0.0,0.0,0.0,0.0,0.0,0.0,0.0,0.0,0.0,0.0,0.0,0.0,0.0,0.0,0.0,0.0,-0.6437,-0.6358,-0.6311,-0.6228,-0.6261,0.0,0.0,0.0,0.0,0.0,0.0,0.0,0.0,0.0,-0.7925,-0.8,-0.7818,-0.7255,-0.7326,-0.7358,-0.7358,-0.7358,-0.7385,-0.744,-0.8008,-0.8268,-0.8323,-0.8262,-0.8546,-0.9041,-0.8434,-0.8735,-0.9787,0.0,0.0,0.0,0.0,-1.0006,-1.0006,-0.946,-0.935,-0.935,-0.9467,0.0,0.0,0.0,0.0,0.0,0.0,0.0,-0.8039,-0.749,-0.749,-0.7601,-0.7601,-0.7601,-0.7601,-0.7601,-0.8146,-0.9023,-1.0014,-1.1655,-1.2856,-1.2644,0.0,0.0,0.0,0.0,-1.5369,-1.5464,-1.5684,-1.5684,-1.5684,-1.5791,-1.5891,-1.5891,-1.5891,-1.5952,-1.6103,-1.6229,-1.6483,-1.6905,-1.7032,-1.7213,0.0,0.0,0.0,0.0,0.0,0.0,0.0,0.0,0.0,0.0,0.0,0.0,0.0,0.0,0.0,0.0,0.0,0.0,0.0,0.0,0.0,0.0,0.0,0.0,0.0,0.0,0.0,0.0,-0.6356,-0.6261,-0.602,-0.618,-0.6256,0.0,0.0,0.0,0.0,0.0,0.0,-0.7195,-0.7201,-0.7214,-0.7247,-0.7334,-0.7383,-0.7383,-0.7472,-0.7519,-0.7519,-0.7519,-0.7535,-0.7565,-0.7565,-0.7581,-0.7608,-0.7578,-0.7565,-0.7548,-0.7336,-0.7826,-0.8642,-0.8604,-0.9059,-0.9868,-0.8937,-0.8591,-0.8479,-0.7812,-0.7593,-0.759,-0.7702,-0.7702,-0.7696,-0.7432,0.0,0.0,0.0,0.0,-0.7201,-0.7201,-0.7225,-0.7249,-0.7249,-0.7222,-0.7201,-0.7201,-0.7176,-0.7598,-0.8702,-1.0558,-1.1869,-1.1651,0.0,0.0,-1.46,-1.5148,-1.5684,-1.5891,-1.5891,-1.5891,-1.5891,-1.5891,-1.5891,-1.5891,-1.5952,-1.6072,-1.6266,-1.6423,-1.6682,-1.7074,-1.7159,-1.7286,-1.7479,0.0,0.0,0.0,0.0,0.0,0.0,0.0,0.0,0.0,0.0,0.0,0.0,0.0,0.0,0.0,0.0,0.0,0.0,0.0,0.0,0.0,0.0,0.0,0.0,0.0,0.0,0.0,0.0,0.0,-0.602,-0.6375,0.0,0.0,0.0,0.0,-0.6994,-0.7089,-0.7198,-0.732,-0.7326,-0.738,-0.7497,-0.7505,-0.7508,-0.7508,-0.7516,-0.7519,-0.7519,-0.7519,-0.7578,-0.7693,-0.7693,-0.775,-0.7847,-0.7739,-0.7693,-0.7682,-0.7554,-0.7568,-0.7782,-0.7663,-0.7688,-0.7779,-0.766,-0.7616,-0.7616,-0.7502,-0.75,-0.75,-0.7846,-0.7962,-0.7939,-0.7815,-0.755,0.0,0.0,-0.7239,-0.7326,-0.7326,-0.7413,-0.75,-0.75,-0.7413,-0.7326,-0.7326,-0.7236,-0.7268,-0.7604,-0.8692,-0.9453,-0.9578,0.0,-1.3706,-1.3398,-1.4809,-1.5891,-1.5891,-1.5891,-1.5891,-1.5891,-1.5891,-1.5891,-1.5891,-1.6115,-1.6266,-1.6278,-1.6767,-1.7062,-1.7092,-1.7328,-1.7473,-1.7485,-1.7485,0.0,0.0,0.0,0.0,0.0,0.0,0.0,0.0,0.0,0.0,0.0,0.0,0.0,0.0,0.0,0.0,0.0,0.0,0.0,0.0,0.0,0.0,0.0,0.0,0.0,0.0,0.0,0.0,-0.6157,-0.6361,0.0,-0.5945,-0.6478,-0.6795,-0.6644,-0.7022,-0.7326,-0.7448,-0.7453,-0.7472,-0.7516,-0.7595,-0.7635,-0.7635,-0.7709,-0.7744,-0.7744,-0.7744,-0.7769,-0.7809,-0.7809,-0.7834,-0.7869,-0.7828,-0.7809,-0.7807,-0.7763,-0.7682,-0.7578,-0.7535,-0.7546,-0.7578,-0.7535,-0.7519,-0.7519,-0.7519,-0.7519,-0.7519,-0.7633,-0.7633,-0.7627,-0.7583,-0.7569,-0.7445,-0.7402,-0.7421,-0.7453,-0.7453,-0.7486,-0.7519,-0.7519,-0.7486,-0.7453,-0.7453,-0.7418,-0.7388,-0.7506,-0.8382,-0.9354,-1.0343,-1.2087,-1.3722,-1.46,-1.5357,-1.5891,-1.5891,-1.5891,-1.5958,-1.6139,-1.6151,-1.6217,-1.6398,-1.6495,-1.6622,-1.6791,-1.6984,-1.7286,-1.7695,-1.7793,-1.7843,-1.8071,-1.8071,-1.8071,0.0,0.0,0.0,0.0,0.0,0.0,0.0,0.0,0.0,0.0,0.0,0.0,0.0,0.0,0.0,0.0,0.0,0.0,0.0,0.0,0.0,0.0,0.0,0.0,0.0,-0.63,-0.6386,-0.611,-0.6348,-0.6354,-0.5987,-0.6502,-0.6817,-0.6812,-0.7167,-0.7451,-0.7573,-0.7581,-0.7597,-0.7635,-0.7717,-0.7758,-0.7758,-0.7834,-0.7872,-0.7872,-0.7913,-0.7932,-0.7934,-0.7975,-0.7994,-0.7994,-0.7994,-0.7994,-0.7994,-0.7994,-0.7902,-0.7755,-0.7714,-0.7725,-0.7761,-0.7761,-0.7733,-0.7693,-0.7652,-0.7638,-0.7638,-0.7638,-0.7638,-0.763,-0.7592,-0.7581,-0.7573,-0.7529,-0.7548,-0.7581,-0.7581,-0.7608,-0.7638,-0.7638,-0.7608,-0.7581,-0.7581,-0.7897,-0.8209,-0.8323,-0.871,-0.9432,-1.0426,-1.2128,-1.3722,-1.4702,-1.5534,-1.6018,-1.6018,-1.6103,-1.6235,-1.6423,-1.6429,-1.6495,-1.6682,-1.6785,-1.6905,-1.7303,-1.7292,-1.7658,-1.8071,-1.8083,-1.815,-1.8281,-1.8281,-1.8326,-1.8421,0.0,0.0,0.0,0.0,0.0,0.0,0.0,0.0,0.0,0.0,0.0,0.0,0.0,0.0,0.0,0.0,0.0,0.0,0.0,0.0,0.0,0.0,0.0,-0.6233,-0.6317,-0.6214,-0.5773,-0.6224,-0.6528,-0.6403,-0.6995,-0.7391,-0.7516,-0.7524,-0.7578,-0.7701,-0.7706,-0.7758,-0.7869,-0.7875,-0.7877,-0.7877,-0.788,-0.7883,-0.7883,-0.8002,-0.806,-0.8065,-0.8182,-0.8236,-0.8236,-0.8236,-0.8236,-0.8236,-0.8236,-0.8239,-0.8228,-0.8106,-0.8133,-0.8236,-0.8236,-0.816,-0.8043,-0.7918,-0.7877,-0.7877,-0.7872,-0.7872,-0.785,-0.7739,-0.7706,-0.7682,-0.7565,-0.7616,-0.7706,-0.7706,-0.7788,-0.7872,-0.7872,-0.7785,-0.7706,-0.7826,-0.8667,-0.949,-0.9939,-0.981,-0.9705,-0.9698,-1.1885,-1.3722,-1.383,-1.5241,0.0,-1.6296,-1.6531,-1.6706,-1.6712,-1.6712,-1.6718,-1.6724,-1.696,-1.7219,-1.7551,-1.7817,-1.8083,-1.8421,-1.8421,-1.8294,-1.8027,-1.8021,-1.8154,-1.8421,0.0,0.0,0.0,0.0,0.0,0.0,0.0,0.0,0.0,0.0,0.0,0.0,0.0,0.0,0.0,0.0,0.0,0.0,0.0,0.0,0.0,-0.3758,-0.4307,-0.5822,-0.6323,-0.6403,-0.6322,-0.6579,-0.6814,-0.6764,-0.7188,-0.7399,-0.7401,-0.753,-0.7701,-0.7818,-0.7823,-0.7839,-0.7869,-0.7956,-0.8002,-0.8002,-0.8092,-0.8136,-0.8136,-0.8168,-0.8185,-0.8187,-0.822,-0.8236,-0.8236,-0.8236,-0.8236,-0.8236,-0.8236,-0.8288,-0.8356,-0.8233,-0.8206,-0.8236,-0.8236,-0.8214,-0.8168,-0.8046,-0.8002,-0.7989,-0.7899,-0.7872,-0.7867,-0.7834,-0.7823,-0.7818,-0.7782,-0.7799,-0.7823,-0.7823,-0.7847,-0.7872,-0.7872,-0.7847,-0.8184,-0.9385,-0.9834,-1.0394,-1.1688,-1.2718,-1.3236,-1.3192,-1.3795,-1.4659,-1.5683,-1.6309,-1.6585,-1.6585,-1.6652,-1.6773,-1.6966,-1.6984,-1.7183,-1.7609,-1.7695,-1.7848,-1.8191,-1.826,-1.8421,-1.8765,-1.8758,-1.8848,-1.9014,-1.9014,-1.9047,0.0,0.0,0.0,0.0,0.0,0.0,0.0,0.0,0.0,0.0,0.0,0.0,0.0,0.0,0.0,0.0,0.0,0.0,0.0,0.0,0.0,0.0,-0.2957,-0.3297,-0.4568,-0.4818,-0.4858,-0.4672,-0.4985,-0.5071,-0.5024,-0.5307,-0.5727,-0.6301,-0.6433,-0.6824,-0.7625,-0.775,-0.775,-0.7872,-0.7992,-0.8054,-0.8054,-0.8174,-0.8236,-0.8236,-0.8288,-0.8312,-0.8315,-0.8361,-0.8383,-0.8383,-0.8383,-0.8383,-0.8383,-0.8383,-0.8426,-0.8478,0.0,0.0,0.0,0.0,-0.8312,-0.8293,-0.8174,-0.8098,-0.8043,-0.797,-0.7913,-0.7872,-0.7872,-0.7872,-0.7872,-0.7872,-0.7872,-0.7872,-0.7872,-0.7872,-0.7872,-0.7872,-0.7994,-0.8482,-0.9926,-1.0891,-1.1727,-1.3402,-1.4744,0.0,-1.5764,-1.5568,-1.5665,-1.6588,-1.6797,-1.6863,-1.6863,-1.696,-1.7201,-1.7475,-1.7493,-1.767,-1.8181,-1.82,0.0,0.0,0.0,-1.8765,-1.912,-1.9001,0.0,0.0,0.0,-1.9239,-1.9366,-1.9366,0.0,0.0,-1.917,-1.9279,0.0,0.0,0.0,0.0,0.0,0.0,0.0,0.0,0.0,0.0,0.0,0.0,0.0,0.0,0.0,0.0,-0.2909,-0.2684,-0.2684,-0.2461,-0.225,-0.2287,-0.2412,-0.2559,-0.2398,-0.2647,-0.3391,-0.4544,-0.4671,-0.5287,-0.6768,-0.7016,0.0,0.0,0.0,-0.8076,-0.8076,-0.8206,-0.8274,-0.8277,-0.8386,-0.8437,-0.844,-0.8541,-0.8587,-0.8587,-0.8587,-0.8587,-0.8587,-0.8587,-0.8587,-0.8579,-0.8475,-0.8497,-0.8573,-0.8475,-0.8437,-0.8418,-0.8299,0.0,0.0,-0.8062,-0.7981,-0.7888,-0.7875,-0.7872,-0.7872,-0.7872,-0.7872,-0.7872,-0.7872,-0.7872,-0.7872,-0.7994,-0.8244,-0.8851,-1.029,-1.1736,-1.3297,-1.509,-1.6295,-1.7138,-1.7485,-1.7098,-1.6791,-1.6791,-1.699,-1.7135,-1.7135,-1.734,-1.7726,-1.7972,-1.8089,0.0,-1.8421,-1.8421,-1.8648,-1.8997,-1.8997,-1.912,-1.9366,-1.9112,-1.9098,-1.9366,-1.9112,-1.9105,-1.9366,-1.9366,-1.9366,-1.9366,-1.9366,-1.9366,0.0,0.0,0.0,0.0,0.0,0.0,0.0,0.0,0.0,0.0,0.0,0.0,0.0,0.0,0.0,-0.0448,-0.0336,-0.0224,-0.0224,0.0,-0.0451,-0.2288,-0.2436,-0.2473,-0.2638,-0.2916,-0.3063,-0.3318,-0.332,-0.3442,-0.3811,-0.5042,-0.578,-0.5902,-0.7325,-0.8201,-0.8201,-0.8413,-0.8519,-0.8519,-0.8543,0.0,-0.8554,-0.8579,-0.8587,-0.8587,-0.8587,-0.8587,-0.8587,-0.8587,-0.8587,-0.8584,-0.8562,-0.8568,-0.8584,-0.8562,-0.8554,-0.8538,-0.8421,-0.8367,-0.8315,-0.8119,-0.8038,-0.8,-0.7899,-0.7872,0.0,-0.7872,-0.7872,-0.7872,-0.7872,-0.7872,-0.7994,-0.8244,-0.8369,-0.9214,-1.1981,-1.2822,-1.3894,-1.6526,-1.7244,-1.7367,-1.7479,-1.74,-1.7334,-1.7334,-1.7376,-1.7406,-1.7406,-1.7695,-1.7966,-1.7972,-1.8194,-1.8421,-1.8765,-1.8765,-1.8997,-1.9243,-1.9249,-1.9366,-1.9366,-1.9312,-1.9305,-1.9366,-1.9312,-1.9312,-1.9366,-1.9366,-1.9366,-1.9366,-1.9366,-1.9366,0.0,0.0,0.0,0.0,0.0,0.0,0.0,0.0,0.0,0.0,0.0,0.0,-0.0559,0.0,0.0224,0.0224,0.0336,0.0449,0.0449,0.0785,0.0679,-0.0463,-0.0585,-0.0475,-0.0364,-0.049,-0.0739,-0.1477,-0.1477,-0.1846,-0.2706,-0.3568,-0.4059,-0.4427,-0.6076,-0.7072,-0.7203,-0.8202,-0.8587,-0.8587,-0.8587,-0.8587,-0.8587,-0.8587,-0.8587,-0.8587,-0.8587,-0.8587,-0.8587,-0.8587,-0.8587,-0.8587,-0.8587,-0.8587,-0.8587,-0.8587,-0.8587,-0.8579,-0.8522,-0.8426,-0.8307,-0.8185,-0.8062,-0.7951,-0.7888,-0.7872,-0.7872,-0.7872,-0.7872,-0.7994,-0.8119,-0.8119,-0.8244,-0.8613,-0.9214,-1.0415,-1.2702,-1.378,-1.4971,-1.712,-1.7485,-1.7485,-1.7485,-1.7602,-1.7726,-1.7485,-1.7602,-1.7726,-1.7726,-1.796,-1.8311,-1.8428,-1.8538,-1.8765,-1.912,-1.912,-1.9243,-1.9366,-1.9366,-1.9366,-1.9366,-1.9366,-1.9707,-2.027,-2.027,-2.0615,-2.1174,-2.1174,-2.1174,-2.1174,-2.1174,-2.0838,0.0,0.0,0.0,0.0,0.0,0.0,0.0,0.1315,0.0883,0.0895,0.0673,0.0336,0.0224,0.0336,0.0336,0.0112,0.0224,0.0449,0.0449,0.0897,0.1363,0.1409,0.1414,0.1669,0.1962,0.1973,0.1605,0.0493,0.037,-0.0247,-0.1601,-0.197,-0.2338,-0.2828,-0.4544,-0.5638,-0.617,-0.752,-0.8296,-0.8587,-0.8587,-0.8587,-0.8587,-0.8587,-0.8587,-0.8587,-0.8587,-0.8587,-0.8587,-0.8587,-0.8587,-0.8587,-0.8587,-0.8587,-0.8587,-0.8587,-0.8587,-0.8587,-0.8587,-0.8448,-0.8266,-0.8244,-0.8087,-0.7902,-0.7877,-0.7872,-0.7872,-0.7994,-0.7994,-0.8119,-0.8366,-0.8491,-0.8613,-0.9214,-1.0418,-1.1736,-1.3297,-1.4733,-1.593,-1.7244,-1.7485,-1.7485,-1.7602,-1.7849,-1.7966,-1.7602,-1.7843,-1.8083,-1.8083,-1.8305,-1.8648,-1.8874,-1.8997,-1.912,-1.9366,-1.9366,-1.9482,-1.9707,-1.9482,-1.9597,-2.0046,-1.9822,-2.027,-2.1517,-2.1509,-2.2078,-2.2974,-2.2974,-2.2974,-2.2974,-2.2974,-2.2531,0.1832,0.1518,0.1528,0.1686,0.1699,0.1601,0.0,0.1106,0.0895,0.0897,0.0673,0.0449,0.0785,0.0561,0.0336,0.0336,0.0336,0.0449,0.0449,0.0897,0.1363,0.1409,0.165,0.1899,0.1933,0.1961,0.1977,0.1729,0.1729,0.1729,0.1482,0.0123,-0.0738,-0.0861,-0.275,-0.4441,-0.5781,-0.6402,-0.729,-0.8587,-0.8587,-0.8587,-0.8587,-0.8587,-0.8587,-0.8587,-0.8587,-0.8587,-0.8587,-0.8587,-0.8587,-0.8587,-0.8587,-0.8587,-0.8587,-0.8587,-0.8587,-0.8587,-0.8587,-0.8505,-0.838,-0.8272,-0.8144,-0.8013,-0.7905,-0.7872,-0.7994,-0.8244,-0.8369,-0.8369,-0.8735,-0.8854,-0.9217,-1.0653,-1.1133,-1.2093,-1.4733,-1.5451,-1.593,-1.7244,-1.7485,-1.7602,-1.7849,-1.7966,-1.7972,-1.7966,-1.8194,-1.8305,-1.8305,-1.8648,-1.8881,-1.8874,-1.9127,-1.9366,-1.9366,-1.9366,-1.9822,-2.0952,-1.9931,-2.0385,-2.2531,-2.1517,-2.1517,-2.2757,-2.2757,-2.2869,-2.2974,-2.2974,-2.2974,-2.2974,-2.2974,-2.2974,0.2126,0.1847,0.1673,0.1698,0.1718,0.1738,0.1658,0.1339,0.1121,0.1121,0.0897,0.0673,0.0673,0.0449,0.0336,0.0224,0.0336,0.0449,0.0673,0.1131,0.1373,0.1624,0.1772,0.1924,0.1954,0.1969,0.1977,0.1977,0.1977,0.1977,0.1977,0.1357,0.0863,0.0617,-0.0999,-0.2397,-0.3428,-0.5194,-0.6456,-0.729,-0.8153,-0.8587,-0.8587,-0.8587,-0.8587,-0.8587,-0.8587,-0.8587,-0.8587,-0.8587,-0.8587,-0.8587,-0.8587,-0.8587,-0.8587,-0.8587,-0.8587,-0.8579,-0.8511,-0.841,-0.8291,-0.8171,-0.8046,-0.8063,-0.8136,-0.8244,-0.8244,-0.861,-0.8732,-0.8735,-0.9095,-0.9095,-0.9579,-1.1144,-1.2101,-1.3177,-1.5213,-1.6172,-1.6885,-1.7367,-1.7608,-1.7849,-1.7966,-1.8311,-1.8538,-1.8538,-1.8648,-1.8648,-1.8648,-1.9004,-1.9243,-1.9243,-1.9366,-1.9366,-1.9366,-1.9366,-1.9931,-2.1174,-2.0723,-2.1174,-2.2974,-2.2531,-2.2862,-2.3991,-2.4103,-2.4445,-2.5119,-2.5119,-2.5119,-2.5128,-2.5344,-2.544,0.2164,0.1889,0.1708,0.1725,0.174,0.1758,0.1788,0.157,0.1346,0.1458,0.1121,0.0897,0.0673,0.0561,0.0336,0.0112,0.0336,0.0674,0.0903,0.1256,0.1616,0.1747,0.1904,0.1943,0.1974,0.1977,0.1977,0.1977,0.1977,0.1977,0.1977,0.1977,0.1853,0.1606,0.0374,-0.0627,-0.1511,-0.3726,-0.5334,-0.6402,-0.7422,-0.814,-0.8543,-0.8573,-0.8587,-0.8587,-0.8587,-0.8587,-0.8587,-0.8587,-0.8587,-0.8587,-0.8587,-0.8568,-0.8541,-0.8541,-0.8541,-0.853,-0.8446,-0.8315,-0.8171,-0.8084,-0.8096,-0.8119,-0.8369,-0.8491,-0.8613,-0.8976,-0.8976,-0.9098,-0.9335,-0.97,-1.0304,-1.1868,-1.3306,-1.4619,-1.5811,-1.6885,-1.7602,-1.7602,-1.7843,-1.82,-1.82,-1.8655,-1.8874,-1.9004,-1.8997,-1.8997,-1.8997,-1.9243,-1.9366,-1.9366,-1.9366,-1.9366,-1.9366,-1.9707,-2.0385,-2.1623,-2.1737,-2.2418,-2.388,-2.3656,-2.4103,-2.5229,-2.5445,-2.5838,-2.6747,-2.6866,-2.6912,-2.6921,-2.7205,-2.7398,0.227,0.1941,0.1718,0.1778,0.1771,0.1758,0.1788,0.157,0.1346,0.1683,0.1346,0.1009,0.1234,0.0785,0.0449,0.0336,0.0673,0.0902,0.0917,0.1379,0.1862,0.1922,0.193,0.1943,0.1974,0.1977,0.1977,0.1977,0.1977,0.1977,0.1977,0.1977,0.1977,0.1977,0.1359,0.0249,-0.1259,-0.189,-0.3553,-0.6304,-0.6398,-0.7103,-0.8426,-0.8535,-0.8587,-0.8587,-0.8587,-0.8587,-0.8587,-0.8587,-0.8587,-0.8587,-0.8587,-0.8519,-0.8424,-0.8424,-0.8424,-0.8421,-0.8418,-0.8261,-0.806,-0.8054,-0.8223,-0.8369,-0.8369,-0.861,-0.8976,-0.9217,-0.9335,-0.9335,-0.97,-1.0664,-1.1989,-1.3306,-1.4619,-1.593,-1.7126,-1.7726,-1.7966,-1.7966,-1.8194,-1.8532,-1.8881,-1.8881,-1.8997,-1.9366,-1.9366,-1.9366,-1.9366,-1.9366,-1.9366,-1.9366,-1.9366,-1.9366,-1.9366,-2.05,-2.1631,-2.2869,-2.2974,-2.3991,-2.6364,-2.5348,-2.534,-2.6473,-2.6967,-2.716,-2.716,-2.7545,-2.7728,-2.7728,-2.7746,-2.7967,0.2243,0.1943,0.1739,0.176,0.1772,0.1782,0.1793,0.1683,0.1683,0.1795,0.1683,0.1346,0.1121,0.0897,0.0561,0.0224,0.0566,0.0914,0.0919,0.1406,0.1908,0.1928,0.1949,0.1965,0.1975,0.1977,0.1977,0.1977,0.1977,0.1977,0.1977,0.1977,0.1977,0.1977,0.1606,0.099,0.0249,-0.1129,-0.2397,-0.3551,-0.5401,-0.6995,-0.8299,-0.8337,-0.8399,-0.8475,-0.8475,-0.8519,-0.8587,-0.8587,-0.8543,-0.8475,-0.8475,-0.8402,-0.8296,-0.8296,-0.8244,-0.8176,-0.8176,-0.8122,-0.8165,-0.8212,-0.8404,-0.8491,-0.8851,-0.9095,-0.9217,-0.9579,-0.9579,-0.9822,-1.0785,-1.139,-1.223,-1.45,-1.5332,-1.6053,-1.7491,-1.7966,-1.8083,-1.8194,-1.8538,-1.8765,-1.8881,-1.912,-1.9243,-1.9366,-1.9366,-1.9366,-1.9366,-1.9366,-1.9366,-1.9366,-1.9366,-1.9707,-2.05,-2.0945,-2.2078,-2.4103,-2.4214,-2.5009,-2.6967,-2.6635,-2.6752,-2.7361,-2.7499,-2.7563,-2.7563,-2.7701,-2.7765,-2.7774,-2.827,-2.8579,0.2248,0.1961,0.1765,0.1765,0.178,0.1795,0.1795,0.1795,0.1795,0.1795,0.1683,0.1346,0.1009,0.0673,0.0449,0.0226,0.0571,0.0924,0.1051,0.1549,0.1935,0.1946,0.1964,0.1977,0.1977,0.1977,0.1977,0.1977,0.1977,0.1977,0.1977,0.1977,0.1977,0.1977,0.1729,0.1359,0.0988,-0.0249,-0.1504,-0.2896,-0.508,-0.6908,-0.8236,-0.8236,-0.828,-0.8353,-0.8353,-0.8394,-0.8462,-0.8462,-0.8418,-0.8353,-0.8353,-0.8277,-0.8171,-0.8295,-0.8218,-0.8245,-0.8287,-0.8276,-0.8228,-0.8518,-0.8613,-0.8854,-0.9217,-0.9335,-0.9579,-0.97,-1.0183,-1.0668,-1.1511,-1.2466,-1.3655,-1.5322,-1.6161,-1.6879,-1.796,-1.8194,-1.8428,-1.8538,-1.8887,-1.912,-1.912,-1.9243,-1.9366,-1.9366,-1.9366,-1.9366,-1.9366,-1.9366,-1.9482,-1.9475,-1.9924,-2.0486,-2.1288,-2.2184,-2.336,-2.4855,-2.543,-2.6172,-2.737,-2.7389,-2.7508,-2.7756,-2.7911,-2.7994,-2.7994,-2.8247,-2.8427,-2.8436,-2.8928,-2.9165,0.2393,0.2213,0.2017,0.1906,0.1907,0.1907,0.1795,0.1795,0.1795,0.1795,0.1346,0.0897,0.0897,0.0449,0.0113,0.0459,0.0691,0.1048,0.1442,0.1691,0.1944,0.1973,0.1977,0.1977,0.1977,0.1977,0.1977,0.1977,0.1977,0.1977,0.1977,0.1977,0.1977,0.1977,0.1729,0.1359,0.0988,0.0617,-0.1117,-0.4149,-0.5401,-0.6706,-0.8217,-0.8217,-0.822,-0.8225,-0.8225,-0.8231,-0.8236,-0.8236,-0.8231,-0.8225,-0.8225,-0.8152,-0.8171,-0.8415,-0.8467,-0.8386,-0.8499,-0.8464,-0.8491,-0.8854,-0.9095,-0.9335,-0.9339,-0.9579,-0.9822,-0.9819,-1.0785,-1.1752,-1.1872,-1.4009,-1.6026,-1.6144,-1.7337,-1.8421,-1.8421,-1.8648,-1.8881,-1.8881,-1.912,-1.9366,-1.9366,-1.9366,-1.9366,-1.9366,-1.9482,-1.9482,-1.9366,-1.9366,-1.9482,-1.9815,-2.0923,-2.1601,-2.1752,-2.3871,-2.5386,-2.5561,-2.6628,-2.7492,-2.7888,-2.7906,-2.7915,-2.7943,-2.8339,-2.8425,-2.8425,-2.9146,-2.9558,-2.9568,-2.9804,-2.9922,0.5082,0.4704,0.4186,0.3348,0.3135,0.2912,0.2019,0.1795,0.1683,0.1458,0.1346,0.1009,0.0561,0.0449,0.0226,0.0115,0.0348,0.0708,0.1083,0.1341,0.1721,0.1975,0.1977,0.1977,0.1977,0.1977,0.1977,0.1977,0.1977,0.1977,0.1977,0.1977,0.1977,0.1977,0.1729,0.1359,0.0988,0.037,-0.1235,-0.3961,-0.433,-0.57,-0.7964,-0.7964,-0.8013,-0.81,-0.81,-0.8152,-0.8236,-0.8236,-0.8182,-0.81,-0.8349,-0.8398,-0.8415,-0.8661,-0.876,-0.8861,-0.901,-0.9004,-0.8854,-0.9095,-0.9214,-0.9335,-0.9579,-0.97,-0.994,-1.0906,-1.1623,-1.2457,-1.4361,-1.5671,-1.6626,-1.7578,-1.8058,-1.8415,-1.8765,-1.8874,-1.8997,-1.9243,-1.9366,-1.9366,-1.9366,-1.9591,-1.97,-1.97,-1.9931,-1.9931,-1.97,-1.97,-1.9815,-2.0162,-2.1281,-2.2389,-2.3324,-2.5042,-2.6462,-2.7459,-2.8061,-2.8474,-2.8878,-2.8897,-2.9047,-2.9367,-2.9479,-2.9536,-2.9536,-2.9757,-2.9804,-2.9804,-3.0157,-3.0274,0.5998,0.5665,0.5192,0.4573,0.4359,0.4026,0.2912,0.2576,0.2353,0.1458,0.1234,0.1009,0.0449,0.0336,0.0226,0.0232,0.0351,0.0713,0.1094,0.1351,0.1606,0.1977,0.1977,0.1977,0.1977,0.1977,0.1977,0.1977,0.1977,0.1977,0.1977,0.1977,0.1977,0.1977,0.1853,0.1482,0.0988,-0.0247,-0.1849,-0.3936,-0.4551,-0.5904,-0.7872,-0.7872,-0.791,-0.7973,-0.7973,-0.8013,-0.8076,-0.8204,-0.829,-0.8226,-0.8594,-0.8673,-0.8613,-0.8976,-0.9098,-0.9095,-0.9457,-0.9457,-0.9339,-0.9457,-0.9579,-0.9579,-0.97,-1.0183,-1.0785,-1.1623,-1.2813,-1.4237,-1.579,-1.6862,-1.7695,-1.8415,-1.8771,-1.8894,-1.912,-1.912,-1.912,-1.9366,-1.9366,-1.9482,-1.9591,-1.97,-1.9815,-2.0046,-2.0155,-2.027,-2.0148,-2.004,-2.0155,-2.05,-2.2192,-2.361,-2.4391,-2.637,-2.7911,-2.8681,-2.8823,-2.9126,-2.9543,-2.9562,-2.9676,-2.9922,-2.9922,-2.9922,-2.9922,-3.0039,-3.0157,-3.0157,-3.0518,-3.0635,0.6366,0.6093,0.5806,0.5695,0.5586,0.5361,0.4137,0.3692,0.3245,0.1793,0.1234,0.0785,0.0449,0.0224,0.0113,0.0352,0.0471,0.0715,0.1353,0.1482,0.1606,0.1977,0.1977,0.1977,0.1977,0.1977,0.1977,0.1977,0.1977,0.1977,0.1977,0.1977,0.1975,0.1971,0.1971,0.1599,0.0982,-0.0981,-0.2572,-0.3914,-0.5258,-0.6609,-0.7847,-0.7847,-0.7856,-0.7872,-0.7872,-0.7872,-0.7994,-0.8244,-0.8369,-0.8491,-0.8854,-0.8976,-0.8976,-0.9217,-0.9335,-0.9457,-0.97,-0.9822,-0.9822,-0.9822,-0.9822,-0.9819,-0.994,-1.0906,-1.1868,-1.2577,-1.4356,-1.6262,-1.6744,-1.7929,-1.8997,-1.8997,-1.9243,-1.9366,-1.9366,-1.9366,-1.9366,-1.9482,-1.9482,-1.9591,-1.9815,-1.9931,-2.004,-2.027,-2.0392,-2.05,-2.0723,-2.05,-2.05,-2.0723,-2.326,-2.4977,-2.5053,-2.7581,-2.9268,-2.945,-2.9479,-2.965,-3.003,-3.0039,-3.0039,-3.0039,-3.0039,-3.0039,-3.0039,-3.0274,-3.0509,-3.0509,-3.0762,-3.0889,0.8692,0.8484,0.8042,0.7038,0.6816,0.648,0.5363,0.436,0.3469,0.2909,0.1792,0.0785,0.0449,0.0224,0.0,0.0117,0.0353,0.0596,0.0984,0.1359,0.1606,0.1977,0.1977,0.1977,0.1977,0.1977,0.1977,0.1977,0.1977,0.1977,0.1977,0.1977,0.1965,0.194,0.1454,0.1084,0.0951,-0.0949,-0.249,-0.3792,-0.4972,-0.6318,-0.7731,-0.7731,-0.7782,-0.7872,-0.7872,-0.7997,-0.8369,-0.8369,-0.8613,-0.8854,-0.9095,-0.9217,-0.9217,-0.9579,-0.97,-0.97,-0.9819,-0.9822,-0.9822,-0.9822,-0.9822,-0.994,-1.1027,-1.1744,-1.2573,-1.4718,-1.602,-1.7091,-1.8163,-1.8881,-1.9366,-1.9366,-1.9366,-1.9366,-1.9366,-1.9366,-1.9482,-1.9707,-1.97,-1.9815,-2.0162,-2.0378,-2.0601,-2.0608,-2.0852,-2.1089,-2.1089,-2.0845,-2.0723,-2.1089,-2.3634,-2.5332,-2.5532,-2.8214,-3.0044,-3.0247,-3.0529,-3.0684,-3.0762,-3.0772,-3.0772,-3.0772,-3.0772,-3.0772,-3.0772,-3.0762,-3.0762,-3.0762,-3.0889,-3.0889,0.9122,0.9033,0.8716,0.8156,0.8045,0.7709,0.6591,0.581,0.5029,0.3466,0.2462,0.1568,0.0561,0.0224,0.0,0.0,0.0234,0.0594,0.0973,0.1229,0.1606,0.1977,0.1977,0.1977,0.1977,0.1977,0.1977,0.1977,0.1962,0.196,0.1976,0.1962,0.1939,0.1909,0.1311,0.0594,0.0,-0.1881,-0.3408,-0.4697,-0.5988,-0.6957,-0.7606,-0.7606,-0.7635,-0.7687,-0.7923,-0.8082,-0.8268,-0.8627,-0.8908,-0.9095,-0.9457,-0.9579,-0.9579,-0.97,-0.9822,-0.9812,-0.9737,-0.971,-0.9696,-0.9618,-0.9646,-0.9947,-1.1367,-1.2425,-1.3617,-1.5864,-1.7208,-1.8156,-1.8997,-1.9243,-1.9366,-1.9366,-1.9366,-1.9482,-1.9591,-1.9591,-1.9707,-2.0046,-2.0046,-2.0155,-2.0493,-2.0601,-2.0723,-2.096,-2.1089,-2.1432,-2.2093,-2.1972,-2.1964,-2.2093,-2.4813,-2.6715,-2.6787,-2.9115,-3.0529,-3.0626,-3.0772,-3.0889,-3.0889,-3.0889,-3.0889,-3.0889,-3.0889,-3.0889,-3.0889,-3.0889,-3.0889,-3.0889,-3.0889,-3.0889,0.901,0.8904,0.8899,0.893,0.894,0.8605,0.7709,0.7265,0.648,0.4359,0.3465,0.2684,0.1456,0.0784,0.0338,0.0344,0.0466,0.0711,0.0963,0.1346,0.1729,0.1977,0.1977,0.1977,0.1977,0.1977,0.1974,0.1967,0.1939,0.1932,0.1956,0.1934,0.1907,0.176,0.1172,0.0351,-0.0931,-0.2793,-0.4303,-0.546,-0.6857,-0.7453,-0.7478,-0.7478,-0.7494,-0.7635,-0.7866,-0.8157,-0.8373,-0.8841,-0.9145,-0.9366,-0.9607,-0.9727,-0.9727,-0.9727,-0.9727,-0.971,-0.9836,-0.9912,-1.0002,-1.0185,-1.0128,-1.0255,-1.1875,-1.3291,-1.4872,-1.671,-1.8112,-1.912,-1.9366,-1.9366,-1.9366,-1.9366,-1.9366,-1.9482,-1.97,-1.9815,-1.9931,-2.027,-2.0385,-2.05,-2.0723,-2.0838,-2.0845,-2.1211,-2.1211,-2.1653,-2.2869,-2.3199,-2.3416,-2.3751,-2.6213,-2.7842,-2.7842,-2.967,-3.0889,-3.0889,-3.0889,-3.0889,-3.0889,-3.0889,-3.0889,-3.0889,-3.0889,-3.0889,-3.0889,-3.0889,-3.0889,-3.0889,-3.0889,-3.0889,0.8978,0.8821,0.8764,0.8903,0.894,0.8826,0.8716,0.7934,0.7041,0.6816,0.5475,0.4247,0.4136,0.2797,0.1689,0.1603,0.1281,0.0948,0.0963,0.159,0.1977,0.1977,0.1977,0.1977,0.1977,0.1977,0.1965,0.1937,0.1907,0.1891,0.1894,0.1892,0.1759,0.1499,0.1037,0.0229,-0.1237,-0.281,-0.4271,-0.5396,-0.6626,-0.7244,-0.7353,-0.7353,-0.7528,-0.7982,-0.7979,-0.8341,-0.8822,-0.8939,-0.9062,-0.9422,-0.9422,-0.9422,-0.9422,-0.9422,-0.9422,-0.9535,-1.0558,-1.1013,-1.1212,-1.2365,-1.2094,-1.1565,-1.2936,-1.4672,-1.6586,-1.7894,-1.88,-1.9366,-1.9366,-1.9366,-1.9366,-1.9366,-1.9366,-1.9482,-1.97,-1.9815,-1.9924,-2.0608,-2.0601,-2.0723,-2.1089,-2.1203,-2.1211,-2.1211,-2.1211,-2.1653,-2.2869,-2.3847,-2.4956,-2.6082,-2.713,-2.7842,-2.7842,-2.967,-3.0889,-3.0889,-3.0889,-3.0889,-3.0889,-3.0889,-3.0889,-3.0889,-3.0889,-3.0889,-3.0889,-3.0889,-3.0889,-3.0889,-3.0889,-3.0889,0.8649,0.8639,0.8723,0.8784,0.8869,0.894,0.894,0.8491,0.7934,0.7263,0.6369,0.5361,0.3688,0.2683,0.1794,0.113,0.0926,0.1063,0.1189,0.1702,0.1977,0.1977,0.1977,0.1977,0.1977,0.196,0.1929,0.188,0.1865,0.1851,0.1832,0.1849,0.1729,0.136,0.102,-0.0113,-0.2349,-0.3244,-0.4585,-0.6485,-0.6932,-0.7179,-0.7228,-0.7455,-0.7595,-0.7754,-0.8091,-0.848,-0.8787,-0.9017,-0.9185,-0.9381,-0.9381,-0.9381,-0.9381,-0.9381,-0.9841,-1.0513,-1.1082,-1.1716,-1.2361,-1.3037,-1.3457,-1.3988,-1.4684,-1.5574,-1.672,-1.8285,-1.9017,-1.9366,-1.9366,-1.9482,-1.9591,-1.9591,-1.9822,-2.0046,-2.0263,-2.0378,-2.05,-2.0967,-2.0967,-2.1081,-2.1211,-2.1211,-2.1211,-2.1211,-2.1873,-2.2757,-2.3855,-2.5067,-2.6291,-2.7403,-2.8372,-2.8878,-2.8878,-3.0141,-3.0889,-3.0889,-3.0889,-3.0889,-3.0889,-3.0889,-3.0889,-3.0889,-3.0889,-3.0889,-3.0889,-3.0889,-3.0889,-3.0889,-3.0889,-3.0889,0.8459,0.8421,0.8601,0.8689,0.8791,0.8882,0.8927,0.894,0.8605,0.7823,0.7374,0.6697,0.4801,0.3462,0.246,0.1679,0.1263,0.1055,0.1413,0.1689,0.1967,0.1975,0.1977,0.1973,0.1964,0.1927,0.1886,0.1843,0.1832,0.1818,0.1796,0.1815,0.159,0.1234,0.0673,-0.0784,-0.3244,-0.3804,-0.5144,-0.7154,-0.7154,-0.7265,-0.7379,-0.7493,-0.7718,-0.7937,-0.8266,-0.8546,-0.8752,-0.8977,-0.9154,-0.9249,-0.9249,-0.9249,-0.9249,-0.9249,-1.0041,-1.115,-1.1561,-1.2616,-1.3701,-1.4299,-1.5102,-1.5998,-1.6294,-1.6539,-1.7043,-1.8367,-1.9186,-1.9482,-1.9482,-1.97,-1.9931,-1.9931,-2.0162,-2.0385,-2.0601,-2.0716,-2.0838,-2.1089,-2.1211,-2.1211,-2.1211,-2.1546,-2.1759,-2.1759,-2.2757,-2.3966,-2.5067,-2.5963,-2.6971,-2.8184,-2.8945,-2.9434,-2.956,-3.0254,-3.0742,-3.0879,-3.0889,-3.0889,-3.0889,-3.0889,-3.0889,-3.0889,-3.0889,-3.0889,-3.0889,-3.0889,-3.0889,-3.0889,-3.0889,-3.0889,0.8431,0.8272,0.8343,0.8638,0.8713,0.8754,0.8903,0.894,0.8937,0.8937,0.8712,0.8484,0.8484,0.6026,0.4134,0.4359,0.2498,0.1041,0.1411,0.1673,0.1943,0.1973,0.1977,0.1964,0.1934,0.1877,0.1841,0.184,0.1812,0.1795,0.1795,0.1795,0.157,0.0897,-0.0224,-0.1791,-0.358,-0.481,-0.604,-0.7154,-0.7154,-0.7379,-0.7607,-0.7607,-0.7937,-0.8484,-0.8484,-0.8602,-0.894,-0.894,-0.8944,-0.8944,-0.8944,-0.8944,-0.8944,-0.8944,-0.9812,-1.1219,-1.2403,-1.3701,-1.5227,-1.6636,-1.7179,-1.7279,-1.7483,-1.7802,-1.811,-1.841,-1.9138,-1.9815,-1.9815,-2.004,-2.027,-2.027,-2.027,-2.0385,-2.0601,-2.0716,-2.0838,-2.1089,-2.1211,-2.1211,-2.1211,-2.2207,-2.2982,-2.2982,-2.3958,-2.5177,-2.63,-2.6527,-2.6971,-2.8184,-2.8672,-2.9101,-2.9531,-2.9961,-3.04,-3.0859,-3.0889,-3.0889,-3.0889,-3.0889,-3.0889,-3.0889,-3.0889,-3.0889,-3.0889,-3.0889,-3.0889,-3.0889,-3.0889,-3.0889,0.8199,0.8191,0.8316,0.8506,0.8632,0.875,0.8903,0.894,0.894,0.894,0.8826,0.8263,0.6359,0.5246,0.4132,0.2575,0.1705,0.1388,0.1646,0.1793,0.1942,0.1973,0.1958,0.1926,0.1874,0.1851,0.1832,0.1811,0.18,0.1795,0.1795,0.157,0.1234,0.0897,-0.0224,-0.1791,-0.358,-0.481,-0.604,-0.7154,-0.7154,-0.7379,-0.7607,-0.7826,-0.8156,-0.8484,-0.8712,-0.8826,-0.894,-0.894,-0.894,-0.894,-0.894,-0.894,-0.9047,-1.0025,-1.121,-1.2507,-1.4014,-1.5429,-1.663,-1.7265,-1.7483,-1.7483,-1.7582,-1.7802,-1.815,-1.8867,-1.9251,-1.9676,-1.9984,-2.0378,-2.0608,-2.0608,-2.0737,-2.0974,-2.0967,-2.1081,-2.1089,-2.1211,-2.1873,-2.2425,-2.2425,-2.3407,-2.4172,-2.4172,-2.5177,-2.6073,-2.6418,-2.7187,-2.7853,-2.8291,-2.8408,-2.8662,-2.9092,-2.9785,-3.0264,-3.04,-3.0713,-3.0889,-3.0889,-3.0889,-3.0889,-3.0889,-3.0889,-3.0889,-3.0889,-3.0889,-3.0889,-3.0889,-3.0889,-3.0889,0.8038,0.8109,0.8231,0.8431,0.8554,0.8679,0.8893,0.894,0.894,0.894,0.894,0.8266,0.6139,0.5246,0.4355,0.2464,0.1697,0.149,0.1864,0.1885,0.1908,0.1939,0.1915,0.1882,0.1844,0.1829,0.1815,0.1796,0.1795,0.1795,0.1795,0.1121,0.056,0.0224,-0.1007,-0.2573,-0.425,-0.5481,-0.6485,-0.7154,-0.7154,-0.7379,-0.7715,-0.7934,-0.8266,-0.8709,-0.8826,-0.894,0.0,-0.894,-0.894,-0.894,-0.894,-0.9154,-0.9699,-1.0672,-1.2186,-1.3804,-1.499,-1.6287,-1.7378,-1.7589,-1.7687,-1.7799,-1.7799,-1.7909,-1.834,-1.903,-1.9417,-1.9871,-2.0174,-2.053,-2.0845,-2.0845,-2.1081,-2.1211,-2.1211,-2.1539,-2.1873,-2.1873,-2.2862,-2.3631,-2.3631,-2.4625,-2.5397,-2.5397,-2.6409,-2.7187,-2.7187,-2.7853,-2.8291,-2.8291,-2.8291,-2.8398,-2.8662,-2.9316,-2.9853,-3.0176,-3.0469,-3.0703,-3.0889,-3.0889,-3.0889,-3.0889,-3.0889,-3.0889,-3.0889,-3.0889,-3.0889,-3.0889,-3.0889,-3.0889,0.0,0.8038,0.8109,0.8408,0.8482,0.8564,0.8869,0.894,0.0,0.894,0.894,0.8491,0.7263,0.5806,0.4578,0.358,0.2241,0.1467,0.1722,0.1842,0.1853,0.1879,0.1857,0.184,0.1837,0.1812,0.1795,0.1795,0.1795,0.1795,0.1683,0.0336,-0.0672,-0.1119,-0.2573,-0.3914,-0.5371,-0.6596,-0.7154,-0.7154,-0.7154,-0.7487,-0.8045,-0.8045,-0.838,-0.894,-0.894,-0.894,-0.894,-0.894,-0.894,-0.894,-0.9047,-0.9699,-1.0781,-1.1214,-1.295,-1.5114,-1.5423,-1.6493,-1.7582,-1.7582,-1.7799,-1.8016,-1.8016,-1.8215,-1.8548,-1.8884,-1.9552,-2.0258,-2.0279,-2.0742,-2.1211,-2.1211,-2.1211,-2.1211,-2.1325,-2.2207,-2.2974,-2.3087,-2.4069,-2.4837,-2.4837,-2.5845,-2.6636,-2.6636,-2.7628,-2.8291,-2.8291,-2.8291,-2.8291,-2.8291,-2.8291,-2.8291,-2.8291,-2.8682,-2.9258,-3.0059,-3.0137,-3.0361,-3.082,-3.084,-3.0859,-3.0889,-3.0889,-3.0889,-3.0889,-3.0889,-3.0889,-3.0889,-3.0889,-3.0889,0.8038,0.0,0.8109,0.8408,0.8482,0.8564,0.0,0.894,0.894,0.894,0.894,0.8266,0.6142,0.5472,0.4582,0.2576,0.1906,0.1692,0.1836,0.186,0.1869,0.1853,0.1844,0.1832,0.1808,0.1799,0.1795,0.1795,0.1795,0.1346,0.0449,-0.0336,-0.1677,-0.3576,-0.4474,-0.5035,-0.5371,-0.6596,-0.7154,-0.7154,-0.7154,-0.7487,-0.8045,-0.8045,-0.838,-0.894,-0.894,-0.894,-0.894,-0.894,-0.894,-0.9047,-0.9915,-1.0566,-1.1214,-1.3275,-1.4567,-1.553,-1.6717,-1.7259,-1.7582,-1.7799,-1.7911,-1.8122,-1.8555,-1.8597,-1.8478,-1.9042,-1.9498,-2.0068,-2.0439,-2.0856,-2.1211,-2.1211,-2.1211,-2.1432,-2.2425,-2.2757,-2.3303,-2.4181,-2.5296,-2.6073,-2.6073,-2.707,-2.7853,-2.7853,-2.8077,-2.8291,-2.8291,-2.8291,-2.8291,-2.8291,-2.8291,-2.8291,-2.8291,-2.8682,-2.9004,-2.9209,-2.9531,-2.9912,-3.0342,-3.0361,-3.0527,-3.0889,-3.0889,-3.0889,-3.0889,-3.0889,-3.0889,-3.0889,-3.0889,-3.0889,0.8038,0.8092,0.8197,0.8425,0.8533,0.8648,0.8882,0.894,0.894,0.894,0.8491,0.7485,0.5695,0.4916,0.3914,0.213,0.1795,0.18,0.1817,0.1834,0.1838,0.1821,0.1819,0.1813,0.1797,0.1795,0.1795,0.1795,0.1795,0.1234,0.0112,-0.112,-0.2572,-0.447,-0.559,-0.6262,-0.6262,-0.6821,-0.7154,-0.7154,-0.7379,-0.7601,-0.8045,-0.8156,-0.8488,-0.894,-0.894,-0.894,-0.894,-0.894,-0.9265,-1.0025,-1.0672,-1.1755,-1.3058,-1.4567,-1.5642,-1.6399,-1.7259,-1.7687,-1.7799,-1.7911,-1.8233,-1.8443,-1.8764,-1.8862,-1.8883,-1.9175,-1.9548,-1.9867,-2.0303,-2.0742,-2.1134,-2.1836,-2.1987,-2.2312,-2.3528,-2.4189,-2.4744,-2.5406,-2.6509,-2.7305,-2.7305,-2.7853,-2.8291,-2.8514,-2.8514,-2.8504,-2.8601,-2.8717,-2.8717,-2.8717,-2.8717,-2.8717,-2.8717,-2.8818,-2.8928,-2.8906,-2.9141,-2.9463,-2.9893,-2.9912,-3.0335,-3.1341,-3.1562,-3.2008,-3.2561,-3.2561,-3.2561,-3.2561,-3.2561,-3.2561,0.8045,0.817,0.8333,0.8452,0.8598,0.8757,0.8933,0.8971,0.886,0.8745,0.785,0.6723,0.5365,0.4249,0.3246,0.2019,0.1795,0.1795,0.1795,0.1795,0.1795,0.1795,0.1795,0.1795,0.1795,0.1795,0.1795,0.1795,0.1795,0.1234,-0.0224,-0.1791,-0.3353,-0.4697,-0.6371,-0.7154,-0.7154,-0.7154,-0.7154,-0.7154,-0.7493,-0.7715,-0.8045,-0.8374,-0.8598,-0.894,-0.894,-0.9047,-0.9154,-0.9154,-1.0025,-1.1428,-1.1542,-1.3058,-1.5114,-1.5535,-1.6399,-1.7279,-1.7589,-1.7799,-1.8016,-1.8122,-1.8443,-1.8876,-1.8974,-1.9071,-1.9376,-1.948,-1.9716,-1.9828,-2.0091,-2.0545,-2.1339,-2.2607,-2.3047,-2.3528,-2.4735,-2.5735,-2.6527,-2.6744,-2.7628,-2.8291,-2.8398,-2.8398,-2.8398,-2.8727,-2.8727,-2.8824,-2.9026,-2.9132,-2.9132,-2.9132,-2.9132,-2.9132,-2.9132,-2.9132,-2.908,-2.8908,-2.8927,-2.9233,-2.9887,-3.0067,-3.0812,-3.2159,-3.265,-3.3342,-3.4327,-3.4403,-3.4447,-3.4447,-3.4558,-3.4547,0.8075,0.8238,0.8455,0.8476,0.8598,0.8784,0.9055,0.912,0.8891,0.7864,0.7525,0.6586,0.426,0.3692,0.3246,0.2019,0.1795,0.1795,0.1795,0.1795,0.1795,0.1795,0.1795,0.1795,0.1795,0.1795,0.1795,0.1795,0.1795,0.0785,-0.1456,-0.2237,-0.3691,-0.5935,-0.6824,-0.7154,-0.7154,-0.7154,-0.7154,-0.7154,-0.7493,-0.7715,-0.8045,-0.8374,-0.8598,-0.894,-0.894,-0.9482,-1.0457,-1.0457,-1.121,-1.2611,-1.3706,-1.4567,-1.5423,-1.6518,-1.716,-1.7589,-1.7806,-1.8016,-1.8122,-1.8555,-1.8869,-1.8974,-1.9175,-1.9279,-1.948,-2.038,-2.0226,-1.9777,-1.982,-2.1015,-2.2245,-2.2521,-2.3513,-2.4735,-2.5963,-2.6409,-2.6744,-2.7853,-2.8184,-2.8398,-2.8621,-2.8621,-2.8727,-2.9026,-2.9036,-2.9026,-2.9132,-2.9132,-2.9132,-2.9132,-2.9132,-2.9132,-2.9132,-2.9132,-2.9056,-2.9126,-2.902,-2.9743,-3.1029,-3.2126,-3.2781,-3.2964,-3.3334,-3.3584,-3.3693,-3.4439,-3.4869,-3.4869,-3.5079,-3.5189,0.8184,0.8426,0.8716,0.8584,0.8227,0.7973,0.8094,0.7664,0.7207,0.732,0.6249,0.5187,0.47,0.3469,0.2465,0.1907,0.1795,0.1795,0.1795,0.1795,0.1795,0.1795,0.1795,0.1795,0.1795,0.1795,0.1795,0.1795,0.1234,0.0112,-0.1679,-0.3019,-0.4474,-0.6274,-0.6935,-0.7154,-0.7154,-0.7154,-0.7154,-0.7154,-0.7601,-0.7937,-0.8045,-0.8491,-0.9151,-0.9915,-0.9915,-1.0566,-1.1651,-1.1651,-1.2516,-1.403,-1.4572,-1.5541,-1.6611,-1.716,-1.7589,-1.7799,-1.7911,-1.8233,-1.8548,-1.8764,-1.8974,-1.9279,-1.9983,-2.0181,-2.0388,-2.1489,-2.1099,-2.0562,-2.1362,-2.2168,-2.3045,-2.4093,-2.4867,-2.582,-2.7356,-2.7745,-2.7843,-2.8601,-2.8708,-2.8814,-2.893,-2.893,-2.9036,-2.9343,-2.9343,-2.9448,-2.9564,-2.9564,-2.9564,-2.9564,-3.0057,-3.0453,-3.0453,-3.097,-3.0959,-3.0016,-2.9922,-3.0527,-3.187,-3.2641,-3.3417,-3.4051,-3.4437,-3.4898,-3.5561,-3.5911,-3.6274,-3.6543,-3.6661,-3.6909,0.8582,0.8688,0.8853,0.8828,0.8285,0.7556,0.7355,0.658,0.6014,0.6336,0.4905,0.3839,0.4477,0.3023,0.1795,0.1795,0.1795,0.1795,0.1795,0.1795,0.1795,0.1795,0.1795,0.1795,0.1795,0.1795,0.1795,0.1795,0.0673,-0.056,-0.1791,-0.3466,-0.5033,-0.6274,-0.6935,-0.7154,-0.7154,-0.7265,-0.7268,-0.7268,-0.7823,-0.8045,-0.8156,-0.893,-0.9805,-1.0672,-1.1,-1.176,-1.2852,-1.2847,-1.3927,-1.5441,-1.5446,-1.6405,-1.7582,-1.7687,-1.7799,-1.8016,-1.8128,-1.8548,-1.8974,-1.9279,-1.948,-1.9879,-2.0987,-2.1285,-2.1481,-2.2693,-2.2391,-2.1953,-2.2749,-2.3194,-2.3927,-2.5491,-2.6216,-2.6873,-2.8394,-2.8764,-2.8824,-2.9026,-2.9132,-2.9132,-2.9237,-2.9237,-2.9343,-2.9669,-2.9659,-2.9774,-2.9994,-2.9994,-3.0099,-3.0391,-3.1084,-3.1677,-3.1982,-3.2689,-3.2778,-3.1724,-3.1633,-3.1927,-3.2844,-3.3421,-3.4156,-3.5091,-3.5491,-3.6081,-3.7046,-3.7169,-3.754,-3.7947,-3.7947,-3.8345,0.9119,0.8995,0.8987,0.9286,0.9147,0.8729,0.7696,0.7461,0.6795,0.447,0.3869,0.3483,0.2255,0.1907,0.1795,0.1795,0.1795,0.1795,0.1795,0.1795,0.1795,0.1795,0.1795,0.1795,0.1795,0.1795,0.1795,0.1795,0.0673,-0.056,-0.1791,-0.3466,-0.5033,-0.6274,-0.6935,-0.7154,-0.7154,-0.7493,-0.7607,-0.7607,-0.7823,-0.8156,-0.8484,-0.9908,-1.0672,-1.0781,-1.1873,-1.2965,-1.4056,-1.4363,-1.5328,-1.6624,-1.6955,-1.7272,-1.7582,-1.7911,-1.8016,-1.8122,-1.866,-1.8869,-1.9078,-2.038,-2.0783,-2.0987,-2.2089,-2.2391,-2.2685,-2.3989,-2.4285,-2.3998,-2.312,-2.3898,-2.5006,-2.5475,-2.6929,-2.8384,-2.8528,-2.885,-2.9026,-2.9132,-2.9132,-2.9237,-2.9554,-2.9554,-2.9659,-2.9889,-2.9994,-2.9994,-2.9994,-2.9994,-3.0391,-3.1381,-3.1575,-3.1982,-3.3001,-3.3201,-3.3586,-3.4471,-3.4276,-3.4276,-3.4581,-3.5332,-3.5861,-3.5874,-3.6198,-3.6382,-3.6481,-3.7196,-3.7568,-3.7605,-3.7879,-3.8279,0.9038,0.8539,0.8255,0.93,0.8837,0.7933,0.6643,0.5745,0.5029,0.4009,0.3152,0.2419,0.1915,0.1795,0.1795,0.1795,0.1795,0.1795,0.1795,0.1795,0.1795,0.1795,0.1795,0.1795,0.1795,0.1795,0.1458,0.0785,-0.0448,-0.1679,-0.291,-0.4589,-0.5822,-0.6274,-0.6935,-0.7154,-0.7154,-0.7493,-0.7718,-0.7826,-0.8156,-0.8374,-0.8595,-1.0017,-1.1109,-1.1873,-1.2965,-1.4266,-1.5458,-1.5672,-1.6205,-1.706,-1.7378,-1.7589,-1.7905,-1.7911,-1.8233,-1.8653,-1.9569,-1.9983,-2.0388,-2.1481,-2.1988,-2.2391,-2.3384,-2.389,-2.4285,-2.5392,-2.5693,-2.5693,-2.5197,-2.5508,-2.6094,-2.6369,-2.7093,-2.7804,-2.8583,-2.8836,-2.9133,-2.9618,-2.9669,-2.9669,-2.9774,-2.9889,-2.9879,-2.9994,-2.9994,-3.0193,-3.0888,-3.0981,-3.1392,-3.2499,-3.3189,-3.397,-3.5078,-3.5174,-3.5367,-3.5763,-3.5066,-3.4969,-3.5763,-3.6073,-3.6275,-3.6275,-3.638,-3.6385,-3.6385,-3.6705,-3.7077,-3.7317,-3.75,-3.7801,0.858,0.8266,0.8169,0.8408,0.8135,0.7192,0.5542,0.4845,0.4218,0.3308,0.243,0.182,0.1799,0.1795,0.1795,0.1795,0.1795,0.1795,0.1795,0.1795,0.1795,0.1795,0.1795,0.1795,0.1795,0.1795,0.1346,0.0112,-0.112,-0.2351,-0.3692,-0.5375,-0.6386,-0.6383,-0.6935,-0.7265,-0.7379,-0.7604,-0.8045,-0.8702,-0.903,-0.914,-0.9251,-1.1,-1.22,-1.3073,-1.4272,-1.5458,-1.6324,-1.6537,-1.6855,-1.7384,-1.7589,-1.7799,-1.8016,-1.8639,-1.9056,-1.9576,-2.0688,-2.1285,-2.1582,-2.2785,-2.3285,-2.3592,-2.4786,-2.5294,-2.5596,-2.64,-2.6602,-2.6699,-2.6688,-2.6688,-2.6673,-2.7063,-2.7236,-2.7649,-2.8625,-2.8911,-2.925,-2.9901,-2.9994,-2.9994,-2.9994,-2.9994,-3.0088,-3.0495,-3.0495,-3.0888,-3.1982,-3.2083,-3.2488,-3.3598,-3.4678,-3.5571,-3.6358,-3.6358,-3.6358,-3.6358,-3.5667,-3.5667,-3.6358,-3.6358,-3.6358,-3.6358,-3.6358,-3.6358,-3.6358,-3.6358,-3.6558,-3.6923,-3.6923,-3.7211,0.7842,0.8374,0.8735,0.669,0.7029,0.7205,0.4517,0.4916,0.5117,0.2489,0.1837,0.1795,0.1795,0.1795,0.1795,0.1795,0.1795,0.1795,0.1795,0.1795,0.1795,0.1795,0.1795,0.1795,0.1795,0.1795,0.1346,0.0112,-0.112,-0.2463,-0.3917,-0.5487,-0.6383,-0.6715,-0.7043,-0.7379,-0.7607,-0.7826,-0.8702,-1.0233,-1.0562,-1.0781,-1.0781,-1.3181,-1.4169,-1.4277,-1.5678,-1.6324,-1.6324,-1.6967,-1.7384,-1.7582,-1.7911,-1.8016,-1.8227,-1.9864,-2.0483,-2.068,-2.2089,-2.2484,-2.2785,-2.4088,-2.4492,-2.4786,-2.61,-2.6496,-2.6592,-2.6805,-2.69,-2.6996,-2.7262,-2.7081,-2.6996,-2.7262,-2.7593,-2.8038,-2.8504,-2.897,-2.9435,-2.9901,-2.9994,-2.9994,-2.9994,-2.9994,-3.0391,-3.1483,-3.1575,-3.1982,-3.3101,-3.3201,-3.3598,-3.4678,-3.5763,-3.6358,-3.6358,-3.6358,-3.6358,-3.6358,-3.6358,-3.6358,-3.6358,-3.6358,-3.6358,-3.6358,-3.6358,-3.6358,-3.6358,-3.6358,-3.6358,-3.6452,-3.6358,-3.6659,0.9039,0.7912,0.7108,0.7508,0.6329,0.4854,0.4032,0.4879,0.5279,0.3491,0.2389,0.1795,0.1795,0.1795,0.1795,0.1795,0.1795,0.1795,0.1795,0.1795,0.1795,0.1795,0.1795,0.1795,0.1795,0.1795,0.0897,-0.112,-0.1567,-0.2798,-0.515,-0.5935,-0.6383,-0.6715,-0.7043,-0.7379,-0.7607,-0.8702,-0.9578,-1.0229,-1.22,-1.2748,-1.1982,-1.3511,-1.4272,-1.4583,-1.5779,-1.6537,-1.6967,-1.7378,-1.7589,-1.801,-1.8819,-1.9339,-1.9864,-2.1183,-2.1785,-2.2089,-2.3194,-2.3791,-2.4088,-2.5285,-2.5897,-2.6294,-2.6699,-2.689,-2.7071,-2.7167,-2.7167,-2.7177,-2.7262,-2.7262,-2.7167,-2.7262,-2.7365,-2.7583,-2.8028,-2.8493,-2.8959,-2.9415,-3.0366,-3.1084,-3.1084,-3.1801,-3.2398,-3.27,-3.27,-3.3089,-3.419,-3.4969,-3.5667,-3.6048,-3.6427,-3.6628,-3.6628,-3.6628,-3.6628,-3.6628,-3.6628,-3.6534,-3.6452,-3.6358,-3.6358,-3.6358,-3.6358,-3.6358,-3.6358,-3.6358,-3.6722,-3.7361,-3.6722,-3.681,0.7989,0.7085,0.6386,0.5905,0.481,0.3903,0.3882,0.3997,0.3944,0.3147,0.2291,0.1809,0.1797,0.1795,0.1795,0.1795,0.1795,0.1795,0.1795,0.1795,0.1795,0.1795,0.1795,0.1795,0.1795,0.1346,0.0336,-0.1679,-0.2239,-0.358,-0.5824,-0.6161,-0.6495,-0.6935,-0.7157,-0.7493,-0.7715,-0.9251,-1.0343,-1.1105,-1.3181,-1.4159,-1.3932,-1.4702,-1.5131,-1.5339,-1.6211,-1.6961,-1.7378,-1.7996,-1.8408,-1.8729,-1.9945,-2.0767,-2.1285,-2.2484,-2.3085,-2.3493,-2.4492,-2.5089,-2.5392,-2.6197,-2.6602,-2.69,-2.6996,-2.7177,-2.7262,-2.7262,-2.7262,-2.7262,-2.7262,-2.7262,-2.7262,-2.7262,-2.7262,-2.7376,-2.7821,-2.8561,-2.9409,-2.9886,-3.1157,-3.2286,-3.2286,-3.2789,-3.34,-3.3883,-3.4471,-3.4957,-3.5655,-3.625,-3.6734,-3.6815,-3.6815,-3.6815,-3.6815,-3.6815,-3.6989,-3.7428,-3.7428,-3.752,-3.7782,-3.7428,-3.7428,-3.7782,-3.7678,-3.7678,-3.7782,-3.7612,-3.7874,-3.8482,-3.7782,-3.7795,0.5875,0.6243,0.6513,0.3023,0.3064,0.4025,0.3846,0.2898,0.2165,0.2124,0.1976,0.1831,0.1801,0.1795,0.1795,0.1795,0.1795,0.1795,0.1795,0.1795,0.1795,0.1795,0.1795,0.1795,0.1795,0.0673,-0.0448,-0.168,-0.291,-0.4365,-0.6163,-0.6274,-0.6606,-0.7154,-0.7601,-0.7931,-0.8134,-0.9662,-1.1189,-1.2493,-1.3804,-1.5007,-1.6324,-1.6324,-1.6324,-1.643,-1.6967,-1.7483,-1.7891,-1.8819,-1.9428,-1.9937,-2.1371,-2.2089,-2.2484,-2.3791,-2.4492,-2.4796,-2.58,-2.6294,-2.6602,-2.6805,-2.69,-2.6996,-2.7272,-2.7262,-2.7262,-2.7262,-2.7357,-2.7347,-2.7441,-2.7536,-2.7536,-2.762,-2.7536,-2.7556,-2.7963,-2.9257,-3.048,-3.0976,-3.227,-3.3342,-3.3388,-3.3499,-3.3993,-3.5174,-3.6345,-3.7108,-3.7108,-3.7108,-3.7108,-3.7108,-3.7108,-3.7201,-3.7294,-3.7294,-3.7638,-3.8599,-3.8675,-3.9121,-4.0073,-3.9121,-3.9033,-3.9899,-3.9697,-3.9697,-3.9899,-3.9461,-3.936,-3.9683,-3.936,-3.9285,0.7711,0.6899,0.6049,0.4073,0.3949,0.4269,0.4284,0.4285,0.4116,0.3725,0.265,0.1831,0.2026,0.1908,0.1795,0.1795,0.1795,0.1795,0.1795,0.1795,0.1795,0.1795,0.1795,0.1795,0.1795,0.0673,-0.0448,-0.168,-0.3134,-0.459,-0.6163,-0.6495,-0.6824,-0.7154,-0.8361,-0.8961,-0.9057,-1.1407,-1.2906,-1.3551,-1.4838,-1.5798,-1.6324,-1.6324,-1.6537,-1.7073,-1.7378,-1.8094,-1.922,-1.942,-2.0341,-2.1676,-2.2785,-2.3384,-2.3791,-2.5187,-2.5693,-2.579,-2.6294,-2.6602,-2.6805,-2.69,-2.7081,-2.7262,-2.7262,-2.7262,-2.7262,-2.7262,-2.7536,-2.7987,-2.8538,-2.8991,-2.9441,-2.9931,-2.9315,-2.8746,-2.8844,-3.0049,-3.1367,-3.1993,-3.328,-3.4556,-3.4969,-3.5738,-3.6332,-3.6628,-3.6922,-3.7108,-3.7108,-3.7108,-3.7214,-3.74,-3.74,-3.7664,-3.8459,-3.8549,-3.8868,-3.9784,-3.9858,-4.0304,-4.1463,-4.0246,-3.9724,-3.9899,-3.9798,-3.9798,-3.9899,-3.9812,-4.0159,-4.093,-4.0073,-4.0159,0.7428,0.6498,0.5841,0.3695,0.3316,0.3377,0.3377,0.3615,0.3819,0.3699,0.2775,0.208,0.2142,0.202,0.1795,0.1795,0.1795,0.1795,0.1795,0.1795,0.1795,0.1795,0.1795,0.157,0.1009,-0.0111,-0.1328,-0.2432,-0.3952,-0.5138,-0.6122,-0.6448,-0.6986,-0.7945,-0.8804,-0.9617,-1.0266,-1.2362,-1.3517,-1.3729,-1.5225,-1.6168,-1.6755,-1.6755,-1.7272,-1.8206,-1.8401,-1.922,-2.0451,-2.1159,-2.1971,-2.2994,-2.4007,-2.4698,-2.5089,-2.58,-2.6294,-2.6496,-2.6602,-2.689,-2.7081,-2.7081,-2.7177,-2.7357,-2.7536,-2.7631,-2.7726,-2.7904,-2.8351,-2.8991,-2.936,-2.9886,-3.0395,-3.073,-3.0383,-2.9954,-2.9954,-3.1164,-3.2352,-3.264,-3.417,-3.5592,-3.5868,-3.6637,-3.7307,-3.7307,-3.74,-3.7505,-3.7505,-3.7505,-3.7677,-3.8264,-3.8264,-3.8702,-3.9664,-3.9752,-4.0087,-4.1,-4.1099,-4.1532,-4.2578,-4.1879,-4.1532,-4.1532,-4.1435,-4.1435,-4.1532,-4.1365,-4.1547,-4.214,-4.1547,-4.1463,0.6255,0.5537,0.5067,0.2864,0.2562,0.271,0.271,0.3061,0.3396,0.3572,0.3021,0.2443,0.2257,0.202,0.1907,0.1795,0.1795,0.1793,0.1788,0.1787,0.1785,0.178,0.1668,0.1112,0.0111,-0.1206,-0.239,-0.3364,-0.4826,-0.5748,-0.6061,-0.6278,-0.7217,-0.8772,-0.9298,-1.0115,-1.1522,-1.3002,-1.3851,-1.4061,-1.5609,-1.6834,-1.7589,-1.7799,-1.8408,-1.9324,-1.9731,-2.0554,-2.1785,-2.2885,-2.3692,-2.4187,-2.5118,-2.5713,-2.6197,-2.6197,-2.6496,-2.69,-2.7081,-2.7262,-2.7441,-2.762,-2.7715,-2.7809,-2.8351,-2.8527,-2.8516,-2.898,-2.9532,-3.017,-3.0249,-3.0765,-3.1264,-3.1352,-3.144,-3.1352,-3.1175,-3.2269,-3.3357,-3.3456,-3.5111,-3.6457,-3.6457,-3.7025,-3.7611,-3.7611,-3.7808,-3.7992,-3.8148,-3.8148,-3.8472,-3.9387,-3.9461,-3.9812,-4.0774,-4.0859,-4.1212,-4.2155,-4.2237,-4.2578,-4.325,-4.3329,-4.3329,-4.3329,-4.3155,-4.3155,-4.3329,-4.293,-4.293,-4.3076,-4.285,-4.2769,0.5351,0.3953,0.2752,0.2645,0.3605,0.4465,0.4465,0.4932,0.5259,0.5289,0.391,0.264,0.259,0.2356,0.202,0.1795,0.1795,0.1786,0.1759,0.1755,0.1746,0.172,0.0858,0.0215,0.0107,-0.1818,-0.3202,-0.3624,-0.5108,-0.6064,-0.6384,-0.6592,-0.7428,-0.8772,-1.0119,-1.1378,-1.2609,-1.4346,-1.5392,-1.5607,-1.7558,-1.8672,-1.9324,-2.0254,-2.0357,-1.9627,-2.0664,-2.1979,-2.3384,-2.3583,-2.4492,-2.579,-2.5897,-2.6197,-2.6496,-2.6699,-2.6805,-2.6986,-2.7631,-2.7904,-2.8081,-2.9084,-2.9452,-2.9624,-3.0203,-3.0461,-3.0461,-3.0461,-3.0932,-3.1488,-3.2103,-3.2649,-3.3202,-3.3771,-3.394,-3.359,-3.2624,-3.33,-3.4406,-3.4912,-3.6038,-3.6908,-3.6908,-3.7404,-3.7808,-3.7808,-3.79,-3.8148,-3.8957,-3.9046,-3.9387,-4.0332,-4.0418,-4.0774,-4.1728,-4.1811,-4.2155,-4.309,-4.317,-4.317,-4.3344,-4.3329,-4.3329,-4.3329,-4.325,-4.325,-4.3329,-4.325,-4.325,-4.325,-4.325,-4.325,0.5479,0.383,0.261,0.2834,0.3417,0.3891,0.3891,0.4233,0.4554,0.4479,0.3798,0.3013,0.266,0.2434,0.2095,0.1747,0.1744,0.1522,0.0971,0.0862,0.0644,0.0,-0.0532,-0.1063,-0.1702,-0.2845,-0.377,-0.4609,-0.6012,-0.6901,-0.7109,-0.8021,-0.9229,-1.0528,-1.1442,-1.2672,-1.408,-1.5044,-1.6068,-1.7332,-1.852,-1.9565,-2.0562,-2.1878,-2.2181,-2.1659,-2.2383,-2.3402,-2.4609,-2.4903,-2.5489,-2.6091,-2.6294,-2.6496,-2.6699,-2.69,-2.7452,-2.8175,-2.8538,-2.9061,-2.967,-3.0214,-3.0395,-3.0485,-3.111,-3.1288,-3.1288,-3.1565,-3.2115,-3.2673,-3.2932,-3.3543,-3.4063,-3.4314,-3.4397,-3.4217,-3.3687,-3.4037,-3.458,-3.5182,-3.5704,-3.6253,-3.6894,-3.722,-3.7521,-3.7848,-3.8317,-3.8805,-3.9121,-3.9637,-4.0332,-4.1296,-4.138,-4.1728,-4.2659,-4.2754,-4.2915,-4.325,-4.3329,-4.3329,-4.3329,-4.3329,-4.3472,-4.3927,-4.3551,-4.3551,-4.3989,-4.3551,-4.3771,-4.4662,-4.422,-4.422,0.5146,0.3921,0.2805,0.2914,0.3026,0.3137,0.3026,0.324,0.3441,0.3397,0.3376,0.3145,0.2592,0.2383,0.2164,0.1815,0.1491,0.0957,0.0212,-0.0211,-0.0633,-0.1469,-0.1783,-0.2307,-0.3254,-0.373,-0.4521,-0.5858,-0.6989,-0.7826,-0.8223,-0.9446,-1.0757,-1.2134,-1.2647,-1.3674,-1.5295,-1.5959,-1.7238,-1.916,-1.9868,-2.0809,-2.1988,-2.3194,-2.389,-2.3989,-2.4097,-2.4609,-2.5518,-2.5907,-2.6284,-2.6658,-2.686,-2.7326,-2.7799,-2.7799,-2.8527,-2.951,-2.9704,-3.0316,-3.1098,-3.1364,-3.1452,-3.1553,-3.2103,-3.2277,-3.2376,-3.2735,-3.3189,-3.3641,-3.3641,-3.4063,-3.4397,-3.4397,-3.4397,-3.4397,-3.4397,-3.4397,-3.4528,-3.4986,-3.5195,-3.5574,-3.6423,-3.6815,-3.7245,-3.8026,-3.8698,-3.9373,-3.9958,-4.0589,-4.1296,-4.2333,-4.2415,-4.2578,-4.325,-4.3344,-4.3423,-4.3423,-4.3423,-4.3566,-4.3771,-4.3771,-4.4143,-4.493,-4.4343,-4.4282,-4.4812,-4.422,-4.451,-4.5697,-4.511,-4.511,0.3699,0.3362,0.3026,0.2806,0.2915,0.3026,0.2806,0.2882,0.3177,0.3174,0.2916,0.2547,0.2191,0.2426,0.2346,0.1811,0.0852,0.0106,0.0,-0.0829,-0.1545,-0.1621,-0.2526,-0.3233,-0.3537,-0.4543,-0.5746,-0.7344,-0.7534,-0.8223,-0.9801,-1.0162,-1.1057,-1.2657,-1.3292,-1.4338,-1.5884,-1.7663,-1.9494,-2.1151,-2.2257,-2.2968,-2.3592,-2.4716,-2.5518,-2.5897,-2.5421,-2.5518,-2.6091,-2.61,-2.6935,-2.8226,-2.8226,-2.9039,-3.0316,-3.0316,-3.0473,-3.0819,-3.13,-3.1488,-3.1753,-3.2846,-3.33,-3.3386,-3.405,-3.4217,-3.4217,-3.4301,-3.4314,-3.4314,-3.4314,-3.4397,-3.4397,-3.4397,-3.4397,-3.4397,-3.4397,-3.4397,-3.441,-3.4437,-3.4907,-3.5312,-3.5378,-3.6279,-3.7342,-3.8456,-3.8931,-3.9958,-4.2164,-4.2126,-4.2333,-4.3518,-4.3344,-4.325,-4.3329,-4.3518,-4.369,-4.369,-4.3832,-4.4266,-4.4962,-4.5036,-4.5358,-4.6103,-4.6103,-4.5921,-4.5624,-4.5624,-4.5624,-4.5697,-4.5624,-4.5697,0.3587,0.3475,0.3363,0.3253,0.3139,0.313,0.2988,0.2858,0.2718,0.2763,0.263,0.2396,0.2047,0.2174,0.1877,0.0824,0.0308,-0.041,-0.1833,-0.2339,-0.284,-0.3528,-0.413,-0.4832,-0.5529,-0.6331,-0.7229,-0.851,-0.9697,-1.0666,-1.1269,-1.2481,-1.3527,-1.424,-1.5478,-1.7123,-1.9058,-1.9905,-2.1148,-2.2584,-2.3194,-2.3989,-2.4992,-2.5596,-2.636,-2.7284,-2.7094,-2.7094,-2.7284,-2.7484,-2.8215,-2.9315,-2.959,-3.0033,-3.0485,-3.0652,-3.1187,-3.1991,-3.219,-3.2722,-3.3433,-3.3882,-3.4063,-3.4063,-3.4314,-3.4564,-3.4825,-3.4825,-3.5072,-3.5223,-3.5223,-3.5223,-3.5223,-3.5223,-3.5223,-3.5372,-3.5749,-3.5535,-3.5223,-3.5223,-3.5397,-3.5816,-3.6593,-3.7084,-3.773,-3.8837,-3.9992,-4.105,-4.1886,-4.2698,-4.3409,-4.3832,-4.3832,-4.3738,-4.3738,-4.3832,-4.4127,-4.4541,-4.4692,-4.502,-4.5778,-4.5778,-4.6119,-4.6867,-4.6952,-4.6815,-4.6694,-4.6276,-4.6502,-4.7505,-4.6896,-4.6828,0.3587,0.3587,0.3587,0.3475,0.325,0.3125,0.2965,0.2723,0.2474,0.24,0.196,0.1638,0.1417,0.1121,0.0716,0.0101,-0.0605,-0.1611,-0.3022,-0.3525,-0.4128,-0.5331,-0.5636,-0.6234,-0.7521,-0.7918,-0.8733,-1.0074,-1.1292,-1.2314,-1.2899,-1.4552,-1.596,-1.6866,-1.8062,-1.9585,-2.1448,-2.1777,-2.2693,-2.4088,-2.4295,-2.507,-2.6436,-2.6638,-2.7369,-2.8659,-2.8659,-2.8566,-2.8566,-2.8762,-2.959,-3.0598,-3.0956,-3.1388,-3.1741,-3.1904,-3.2438,-3.3237,-3.3237,-3.3687,-3.4397,-3.4564,-3.4647,-3.4647,-3.4812,-3.5059,-3.5318,-3.5318,-3.548,-3.571,-3.571,-3.571,-3.571,-3.5937,-3.6084,-3.6387,-3.6986,-3.6531,-3.6097,-3.6229,-3.6308,-3.6591,-3.7377,-3.7681,-3.8187,-3.9297,-4.047,-4.1533,-4.216,-4.3104,-4.3822,-4.4035,-4.4065,-4.4127,-4.4343,-4.4404,-4.4752,-4.5536,-4.5593,-4.6008,-4.6747,-4.6747,-4.7104,-4.7868,-4.7852,-4.7852,-4.7868,-4.7239,-4.7473,-4.8483,-4.7869,-4.7803,0.0,0.0,0.0,0.3138,0.3025,0.3013,0.2633,0.2374,0.212,0.1976,0.0919,0.0,0.0,-0.0907,-0.131,-0.0302,-0.1813,-0.3224,-0.3324,-0.4228,-0.5334,-0.6631,-0.683,-0.7521,-0.9099,-0.93,-1.0065,-1.1864,-1.2089,-1.2904,-1.4689,-1.6349,-1.8249,-2.042,-2.0727,-2.155,-2.2985,-2.3285,-2.4187,-2.579,-2.579,-2.6532,-2.7913,-2.7913,-2.8751,-3.0135,-3.0135,-3.0033,-2.9943,-3.0135,-3.0866,-3.2077,-3.2227,-3.3104,-3.4076,-3.4076,-3.4243,-3.4397,-3.4397,-3.4397,-3.4481,-3.499,-3.5086,-3.5154,-3.5562,-3.571,-3.571,-3.571,-3.571,-3.571,-3.579,-3.579,-3.5937,-3.6545,-3.6986,-3.742,-3.8026,-3.7357,-3.6844,-3.7448,-3.751,-3.751,-3.7587,-3.7996,-3.8755,-3.9862,-4.0364,-4.1337,-4.3284,-4.3273,-4.332,-4.422,-4.4127,-4.4343,-4.5036,-4.5332,-4.5753,-4.6518,-4.6726,-4.7153,-4.7885,-4.795,-4.8306,-4.9001,-4.9001,-4.9001,-4.9001,-4.8673,-4.8483,-4.8547,-4.8547,-4.8547,0.325,0.0,0.0,0.0,0.0,0.0,0.1296,0.0855,0.0422,-0.0409,-0.0911,-0.1109,-0.1109,-0.2016,-0.262,-0.2317,-0.282,-0.3626,-0.5035,-0.5834,-0.6631,-0.7524,-0.8212,-0.9,-1.0284,-1.0902,-1.1715,-1.2993,-1.3824,-1.4865,-1.6464,-1.8373,-2.0225,-2.1862,-2.2173,-2.3085,-2.4618,-2.4903,-2.5761,-2.7115,-2.7179,-2.81,-2.9487,-2.9487,-3.0305,-3.1677,-3.1677,-3.2028,-3.255,-3.194,-3.2302,-3.3288,-3.3458,-3.381,-3.416,-3.4243,-3.4577,-3.4908,-3.4908,-3.5072,-3.5386,-3.5467,-3.5562,-3.5562,-3.5629,-3.5978,-3.6232,-3.6232,-3.6443,-3.6744,-3.7197,-3.726,-3.7414,-3.8023,-3.8323,-3.8531,-3.9133,-3.906,-3.8767,-3.8457,-3.8472,-3.8546,-3.8987,-3.9193,-3.9531,-4.0279,-4.0944,-4.1717,-4.2713,-4.3205,-4.3683,-4.4434,-4.4918,-4.5332,-4.5551,-4.604,-4.6726,-4.7473,-4.7539,-4.7901,-4.8656,-4.8719,-4.8798,-4.9001,-4.9001,-4.9001,-4.9001,-4.894,-4.8877,-4.8877,-4.9161,-4.9325,0.28,0.224,0.1792,0.1569,0.0,0.0,-0.0107,-0.0423,-0.0835,-0.142,-0.1916,-0.2318,-0.2318,-0.3224,-0.4228,-0.4628,-0.4824,-0.5227,-0.6234,-0.7126,-0.8014,-0.9008,-0.9596,-1.0413,-1.1791,-1.2312,-1.3268,-1.4879,-1.5595,-1.6942,-1.9299,-2.0624,-2.1971,-2.3402,-2.3809,-2.4412,-2.5421,-2.6177,-2.6924,-2.7861,-2.8484,-2.9579,-3.0878,-3.0956,-3.1753,-3.3018,-3.3018,-3.353,-3.4217,-3.3687,-3.3615,-3.3894,-3.4147,-3.4327,-3.4494,-3.466,-3.499,-3.5318,-3.5318,-3.548,-3.571,-3.5965,-3.5978,-3.6045,-3.6191,-3.6443,-3.6615,-3.6615,-3.6993,-3.7429,-3.781,-3.8113,-3.8412,-3.9002,-3.9162,-3.9307,-3.9895,-4.0176,-4.0161,-3.958,-3.9508,-3.9595,-3.9965,-4.0036,-4.0106,-4.0455,-4.0893,-4.1401,-4.2094,-4.303,-4.3884,-4.4569,-4.5523,-4.6253,-4.6588,-4.7001,-4.7556,-4.8306,-4.837,-4.8576,-4.9001,-4.9229,-4.9394,-4.9394,-4.9598,-4.9681,-4.9681,-4.9479,-4.9496,-4.9739,-4.9936,-5.009,0.1903,0.1007,-0.0112,-0.0224,-0.0773,0.0,-0.1494,-0.1677,-0.1853,-0.2023,-0.292,-0.3624,-0.3725,-0.473,-0.5934,-0.6828,-0.7322,-0.7521,-0.7226,-0.8212,-0.9497,-1.0783,-1.1189,-1.1968,-1.3579,-1.3945,-1.495,-1.7252,-1.7619,-1.9182,-2.2366,-2.2693,-2.3402,-2.4932,-2.5323,-2.5606,-2.5974,-2.72,-2.8132,-2.868,-2.9772,-3.1045,-3.2251,-3.2401,-3.3104,-3.4243,-3.4243,-3.4577,-3.5236,-3.5154,-3.4825,-3.4327,-3.4481,-3.4825,-3.5154,-3.5154,-3.5399,-3.5804,-3.5804,-3.5804,-3.5884,-3.6312,-3.6549,-3.6615,-3.6993,-3.7134,-3.7211,-3.7275,-3.7644,-3.8098,-3.8159,-3.862,-3.9133,-3.9737,-3.9895,-4.0036,-4.0524,-4.0935,-4.107,-4.0662,-4.0593,-4.0593,-4.0593,-4.0593,-4.0593,-4.0593,-4.0662,-4.0978,-4.1689,-4.3025,-4.4087,-4.4786,-4.6116,-4.7221,-4.7885,-4.8015,-4.837,-4.9001,-4.9063,-4.9063,-4.9168,-4.9674,-4.993,-4.9988,-5.0425,-5.0751,-5.0805,-5.0237,-5.0237,-5.0697,-5.0751,-5.0805,0.0336,-0.0112,-0.0448,-0.1231,-0.1547,0.0,-0.267,-0.2938,-0.3296,-0.4851,-0.5632,-0.6326,-0.6924,-0.7617,-0.8212,-0.8411,-0.9399,-0.9891,-0.9402,-0.9993,-1.0783,-1.197,-1.3378,-1.4588,-1.5145,-1.6746,-1.798,-1.8405,-2.0373,-2.1787,-2.2484,-2.371,-2.4815,-2.5499,-2.635,-2.6999,-2.7453,-2.8936,-3.0033,-3.0944,-3.1577,-3.2476,-3.3725,-3.3725,-3.4147,-3.4908,-3.4908,-3.5453,-3.6229,-3.5777,-3.548,-3.5386,-3.5467,-3.5467,-3.5562,-3.5562,-3.5884,-3.6232,-3.6232,-3.6457,-3.6744,-3.6836,-3.7211,-3.7582,-3.7734,-3.8037,-3.8486,-3.8811,-3.9145,-3.9561,-4.0054,-4.0278,-4.05,-4.1107,-4.1256,-4.1256,-4.139,-4.1456,-4.1456,-4.139,-4.139,-4.139,-4.139,-4.139,-4.139,-4.139,-4.1688,-4.2188,-4.289,-4.3959,-4.4917,-4.5613,-4.6947,-4.7917,-4.8046,-4.8731,-4.9229,-4.9367,-4.9428,-4.9632,-5.0028,-5.0045,-5.0254,-5.0715,-5.0697,-5.0929,-5.1432,-5.0822,-5.0589,-5.0697,-5.1209,-5.1432,-0.0672,-0.1456,-0.2127,-0.2911,-0.3294,0.0,0.0,-0.4888,-0.5388,-0.6745,-0.7425,-0.7918,-0.8315,-0.8707,-0.9197,-0.9694,-1.0578,-1.1463,-1.2226,-1.2522,-1.3055,-1.3871,-1.5253,-1.6417,-1.7117,-1.8125,-1.9287,-2.0567,-2.2381,-2.3791,-2.4562,-2.5557,-2.6436,-2.7284,-2.7923,-2.8473,-2.9028,-3.0214,-3.1211,-3.194,-3.298,-3.3784,-3.4397,-3.4729,-3.5209,-3.5843,-3.5843,-3.6452,-3.7357,-3.7049,-3.7,-3.7169,-3.648,-3.6466,-3.683,-3.6531,-3.6716,-3.7148,-3.7148,-3.7289,-3.7505,-3.8008,-3.8383,-3.859,-3.8796,-3.9088,-3.9305,-3.9505,-3.9914,-4.0332,-4.0622,-4.0909,-4.1209,-4.1522,-4.1588,-4.1588,-4.1588,-4.172,-4.1851,-4.1851,-4.198,-4.198,-4.1654,-4.1588,-4.1654,-4.1884,-4.2126,-4.2493,-4.3086,-4.4552,-4.5673,-4.6036,-4.7713,-4.8793,-4.8793,-4.9212,-4.9632,-4.989,-4.989,-5.0142,-5.0697,-5.0929,-5.1312,-5.1861,-5.1795,-5.1928,-5.2203,-5.1861,-5.1714,-5.1583,-5.1884,-5.2048,-0.1568,-0.2688,-0.3811,-0.4702,-0.513,-0.553,0.0,0.0,0.0,-0.7925,-0.8612,-0.9103,-0.9205,-0.9596,-1.028,-1.1361,-1.1945,-1.2818,-1.4734,-1.535,-1.5665,-1.5998,-1.7036,-1.8072,-1.9167,-1.9768,-2.1021,-2.305,-2.4581,-2.5858,-2.7105,-2.7463,-2.8111,-2.9143,-2.959,-3.0045,-3.0496,-3.1577,-3.2289,-3.2821,-3.4275,-3.495,-3.5114,-3.5777,-3.6387,-3.6908,-3.6986,-3.7587,-3.8473,-3.8473,-3.8782,-3.919,-3.7677,-3.7587,-3.825,-3.7875,-3.7965,-3.8234,-3.8234,-3.8234,-3.8383,-3.916,-3.9448,-3.9647,-4.0069,-4.0193,-4.0263,-4.0263,-4.0607,-4.1044,-4.1044,-4.1409,-4.1785,-4.1785,-4.1785,-4.1785,-4.1785,-4.198,-4.2174,-4.2174,-4.2492,-4.2555,-4.1916,-4.1835,-4.2077,-4.2443,-4.2678,-4.2909,-4.33,-4.5133,-4.643,-4.643,-4.8294,-4.9547,-4.9547,-4.9649,-4.9965,-5.0366,-5.0515,-5.0822,-5.131,-5.1879,-5.2361,-5.2806,-5.2806,-5.2806,-5.2806,-5.2806,-5.2735,-5.2572,-5.2572,-5.2618,-0.3026,-0.3475,-0.4035,-0.5933,-0.6325,-0.6371,-0.7211,0.0,-0.7335,-0.8233,0.0,-1.01,-1.0797,0.0,0.0,-1.398,-1.4262,-1.4829,-1.6432,-1.7901,-1.8578,-1.7757,-1.8773,-1.9989,-2.0908,-2.3376,-2.5169,-2.5935,-2.7358,-2.8297,-2.8484,-2.8947,-2.9396,-2.9954,-3.0855,-3.1577,-3.204,-3.3189,-3.405,-3.4454,-3.5426,-3.6056,-3.6373,-3.6986,-3.751,-3.7951,-3.831,-3.9073,-3.9905,-3.9703,-4.0278,-4.1158,-3.9576,-3.9088,-3.916,-3.9418,-3.9546,-3.9546,-3.9546,-3.9546,-3.9632,-3.9703,-4.0124,-4.0622,-4.1209,-4.1623,-4.1835,-4.1835,-4.2093,-4.2349,-4.2349,-4.2429,-4.2508,-4.2508,-4.2508,-4.2508,-4.2508,-4.2508,-4.2571,-4.2571,-4.2912,-4.308,-4.2555,-4.2834,-4.3125,-4.3185,-4.3881,-4.4468,-4.4524,-4.6164,-4.7364,-4.7364,-4.8757,-4.9649,-4.9649,-5.0268,-5.0694,-5.0749,-5.1192,-5.1701,-5.225,-5.2654,-5.285,-5.2806,-5.2806,-5.2806,-5.2806,-5.2806,-5.2779,-5.2779,-5.2779,-5.2962,-0.2805,-0.3918,-0.514,-0.5924,-0.7016,-0.7827,-0.8174,-0.8409,-0.8833,-0.9834,0.0,0.0,0.0,0.0,0.0,0.0,-1.5134,-1.6075,-1.7554,-1.8894,-1.9573,-1.9278,-2.1134,-2.3057,-2.4534,-2.5527,-2.6416,-2.7474,-2.8215,-2.905,-2.9704,-3.0316,-3.1045,-3.1789,-3.2476,-3.3237,-3.4056,-3.4664,-3.54,-3.6188,-3.6894,-3.7281,-3.751,-3.7994,-3.8664,-3.9305,-3.952,-4.01,-4.1024,-4.0873,-4.1142,-4.1588,-4.1075,-4.0789,-4.0585,-4.0416,-4.0332,-4.0332,-4.0332,-4.0332,-4.0401,-4.0977,-4.1459,-4.1868,-4.2093,-4.2302,-4.2365,-4.2365,-4.2492,-4.2634,-4.2634,-4.2634,-4.2634,-4.2634,-4.2634,-4.2634,-4.2634,-4.2789,-4.3019,-4.3019,-4.3529,-4.3864,-4.3706,-4.3663,-4.3781,-4.4071,-4.4468,-4.4988,-4.5686,-4.688,-4.7778,-4.8208,-4.9513,-5.0307,-5.0307,-5.0893,-5.1416,-5.1719,-5.2203,-5.2608,-5.285,-5.3017,-5.3103,-5.3017,-5.3017,-5.3109,-5.3345,-5.3345,-5.3447,-5.3663,-5.3285,-5.3348,-0.3586,-0.4918,-0.6246,-0.6695,-0.7813,-0.8969,-0.914,-0.9492,-1.0029,-1.0842,-1.1487,0.0,0.0,0.0,-1.428,-1.5026,0.0,-1.7296,-1.8772,-2.0095,-2.0882,-2.0858,-2.3126,-2.5484,-2.7243,-2.7453,-2.7829,-2.8877,-2.9418,-3.0237,-3.1169,-3.1777,-3.2562,-3.3628,-3.3953,-3.4664,-3.5775,-3.5935,-3.6476,-3.7434,-3.8161,-3.8532,-3.8708,-3.932,-3.992,-4.0562,-4.0684,-4.1107,-4.172,-4.1851,-4.1851,-4.1916,-4.2109,-4.2109,-4.1916,-4.1393,-4.1245,-4.1245,-4.1245,-4.1245,-4.1311,-4.2029,-4.2365,-4.2634,-4.2634,-4.2634,-4.2696,-4.2696,-4.2696,-4.2743,-4.2743,-4.2743,-4.2743,-4.2743,-4.2743,-4.2805,-4.2974,-4.3246,-4.3529,-4.3672,-4.4249,-4.4695,-4.4695,-4.4546,-4.4507,-4.4855,-4.5018,-4.5488,-4.6583,-4.7488,-4.8342,-4.8941,-5.0258,-5.1035,-5.0999,-5.15,-5.206,-5.2608,-5.2955,-5.3206,-5.3206,-5.3206,-5.323,-5.3336,-5.3336,-5.3502,-5.3851,-5.3851,-5.4069,-5.443,-5.3888,-5.3833,-0.6366,-0.6808,-0.7473,-0.8916,-0.9138,-0.9308,-0.9991,-1.0437,-1.0654,0.0,0.0,-1.198,-1.1975,-1.3414,0.0,0.0,-1.7468,0.0,0.0,-2.229,-2.3252,-2.2253,-2.4354,-2.6481,-2.7725,-2.912,-3.0147,-3.0441,-3.1713,-3.2711,-3.2982,-3.3227,-3.3953,-3.5224,-3.5224,-3.5855,-3.7127,-3.7127,-3.742,-3.8101,-3.9013,-3.9703,-4.013,-4.1107,-4.1522,-4.1588,-4.1916,-4.2045,-4.2109,-4.2429,-4.2571,-4.2571,-4.2571,-4.2696,-4.2837,-4.2634,-4.2571,-4.2571,-4.2571,-4.2571,-4.2555,-4.2555,-4.2571,-4.2634,-4.2634,-4.2775,-4.2899,-4.2899,-4.3007,-4.3096,-4.3096,-4.3096,-4.3096,-4.3096,-4.3096,-4.3262,-4.3823,-4.398,-4.4135,-4.4627,-4.5146,-4.5442,-4.5442,-4.5459,-4.5459,-4.5459,-4.5852,-4.6368,-4.6934,-4.8214,-4.9174,-4.9521,-5.0815,-5.1629,-5.1601,-5.206,-5.2608,-5.3164,-5.3206,-5.3206,-5.3206,-5.3206,-5.3359,-5.3682,-5.3682,-5.387,-5.4262,-5.4262,-5.4463,-5.4776,-5.443,-5.4463,-0.6033,-0.8002,-0.9859,-0.9013,-1.0506,-1.1786,-1.054,-1.0931,-1.16,-1.1639,0.0,0.0,0.0,-1.5412,-1.6546,0.0,-1.8788,-1.9985,0.0,-2.3728,-2.5483,-2.6641,-2.7066,-2.81,-3.0249,-3.0351,-3.0722,-3.1661,-3.255,-3.3215,-3.3843,-3.4345,-3.5142,-3.6094,-3.6411,-3.7035,-3.7951,-3.825,-3.8913,-3.9889,-4.0309,-4.0737,-4.1174,-4.1456,-4.172,-4.1916,-4.2045,-4.2238,-4.2429,-4.2696,-4.2775,-4.2837,-4.2867,-4.299,-4.299,-4.2837,-4.2883,-4.2929,-4.2929,-4.2929,-4.2929,-4.2929,-4.2929,-4.2929,-4.2929,-4.299,-4.3052,-4.3052,-4.3052,-4.3113,-4.3113,-4.3113,-4.3218,-4.3604,-4.3706,-4.3864,-4.4439,-4.477,-4.5074,-4.5216,-4.5767,-4.6217,-4.6217,-4.6363,-4.6363,-4.602,-4.6525,-4.7357,-4.8247,-4.9238,-5.0182,-5.103,-5.1885,-5.2345,-5.2335,-5.2733,-5.3091,-5.3235,-5.323,-5.3314,-5.3524,-5.3524,-5.37,-5.4088,-5.4088,-5.4277,-5.4623,-5.4623,-5.4825,-5.5206,-5.5636,-5.5865,-0.7689,-0.976,-1.1502,-1.0866,-1.2394,-1.3607,-1.2087,-1.2467,-1.3212,-1.3498,0.0,0.0,0.0,0.0,-1.8118,0.0,0.0,-2.1607,0.0,-2.5607,-2.7577,-3.0201,-2.9396,-2.9498,-3.1472,-3.1777,-3.2028,-3.2649,-3.3615,-3.4332,-3.4637,-3.5453,-3.6318,-3.7175,-3.7572,-3.819,-3.903,-3.9448,-4.0045,-4.0935,-4.1256,-4.1588,-4.1785,-4.1916,-4.2109,-4.2365,-4.2365,-4.2555,-4.2805,-4.2945,-4.2945,-4.3007,-4.3052,-4.3174,-4.3174,-4.3007,-4.3007,-4.3113,-4.3113,-4.3113,-4.3113,-4.3113,-4.3113,-4.3113,-4.3113,-4.3174,-4.3235,-4.3235,-4.3235,-4.3355,-4.3519,-4.3578,-4.3722,-4.4322,-4.4473,-4.464,-4.5198,-4.5545,-4.5784,-4.5985,-4.6411,-4.682,-4.7104,-4.7315,-4.7315,-4.6949,-4.7422,-4.8306,-4.9483,-5.0354,-5.1228,-5.2098,-5.2696,-5.3054,-5.2993,-5.3326,-5.3545,-5.3545,-5.3623,-5.3758,-5.3979,-5.3943,-5.399,-5.4056,-5.4326,-5.4503,-5.4534,-5.5171,-5.5559,-5.5842,-5.6683,-5.7218]},{"header":{"parameterUnit":"m.s-1","parameterCategory":1,"la1":30.6,"la2":29.2853,"lo1":-89.7004,"lo2":-87.6739,"dy":0.0162,"dx":0.0183,"nx":112,"ny":82,"refTime":"2023-10-08T06:00:00:Z","depth":0,"parameterNumber":3,"parameterNumberName":"V-component_of_WINDS"},"data":[0.0,0.0,0.0,0.0,0.0,0.0,0.0,0.0,0.0,0.0,0.0,0.0,0.0,0.0,0.0,0.0,0.0,0.0,0.0,0.0,0.0,0.0,0.0,0.0,0.0,0.0,0.0,0.0,0.0,0.0,0.0,0.0,0.0,0.0,0.0,0.0,0.0,0.0,0.0,0.0,0.0,0.0,0.0,0.0,0.0,0.0,0.0,0.0,0.0,0.0,0.0,0.0,0.0,0.0,0.0,0.0,0.0,0.0,0.0,0.0,0.0,0.0,0.0,0.0,0.0,0.0,0.0,0.0,0.0,0.0,0.0,0.0,0.0,0.0,0.0,0.0,0.0,0.0,0.0,0.0,0.0,0.0,0.0,0.0,0.0,0.0,0.0,0.0,0.0,0.0,4.4341,4.4472,4.4531,4.4907,4.5781,4.5929,4.6593,4.8016,0.0,0.0,0.0,0.0,0.0,0.0,0.0,0.0,0.0,0.0,0.0,0.0,0.0,0.0,0.0,0.0,0.0,0.0,0.0,0.0,0.0,0.0,0.0,0.0,0.0,0.0,0.0,0.0,0.0,0.0,0.0,0.0,0.0,0.0,0.0,0.0,0.0,0.0,0.0,0.0,0.0,0.0,0.0,0.0,0.0,0.0,0.0,0.0,0.0,0.0,0.0,0.0,0.0,0.0,0.0,0.0,0.0,0.0,0.0,0.0,0.0,0.0,0.0,0.0,0.0,0.0,0.0,0.0,0.0,0.0,0.0,0.0,0.0,0.0,0.0,0.0,0.0,0.0,0.0,0.0,0.0,0.0,0.0,0.0,0.0,0.0,0.0,0.0,0.0,0.0,0.0,0.0,0.0,0.0,0.0,0.0,0.0,0.0,0.0,0.0,0.0,0.0,0.0,0.0,4.4475,4.5165,4.5239,4.5618,4.6555,4.7261,4.7766,4.8145,0.0,0.0,0.0,0.0,0.0,0.0,0.0,0.0,0.0,0.0,0.0,0.0,0.0,0.0,0.0,0.0,0.0,0.0,0.0,0.0,0.0,0.0,0.0,0.0,0.0,0.0,0.0,0.0,0.0,0.0,0.0,0.0,0.0,0.0,0.0,0.0,0.0,0.0,0.0,0.0,0.0,0.0,0.0,0.0,0.0,0.0,0.0,0.0,0.0,0.0,0.0,0.0,0.0,0.0,0.0,0.0,0.0,0.0,0.0,0.0,0.0,0.0,0.0,0.0,0.0,0.0,0.0,0.0,0.0,0.0,0.0,0.0,0.0,0.0,0.0,0.0,0.0,0.0,0.0,0.0,0.0,0.0,0.0,0.0,0.0,0.0,0.0,0.0,0.0,0.0,0.0,0.0,0.0,0.0,0.0,0.0,0.0,0.0,0.0,0.0,0.0,0.0,0.0,4.4617,4.5046,4.5401,4.583,4.6477,4.7361,4.7778,4.8221,4.8727,4.8683,0.0,0.0,0.0,0.0,0.0,0.0,0.0,0.0,0.0,0.0,0.0,0.0,0.0,0.0,0.0,0.0,0.0,0.0,0.0,0.0,0.0,0.0,0.0,0.0,0.0,0.0,0.0,0.0,0.0,0.0,0.0,0.0,0.0,0.0,0.0,0.0,0.0,0.0,0.0,0.0,0.0,0.0,0.0,0.0,0.0,0.0,0.0,0.0,0.0,0.0,0.0,0.0,0.0,0.0,0.0,0.0,0.0,0.0,0.0,0.0,0.0,0.0,0.0,0.0,0.0,0.0,0.0,0.0,0.0,0.0,0.0,0.0,0.0,0.0,0.0,0.0,0.0,0.0,0.0,0.0,0.0,0.0,0.0,0.0,0.0,0.0,0.0,0.0,0.0,0.0,0.0,0.0,0.0,0.0,0.0,0.0,0.0,0.0,0.0,0.0,0.0,0.0,4.5202,4.5811,4.5998,4.6576,4.7303,4.8194,4.8268,4.853,4.916,4.9197,0.0,0.0,0.0,0.0,0.0,0.0,0.0,0.0,0.0,0.0,0.0,0.0,0.0,0.0,0.0,0.0,0.0,0.0,0.0,0.0,0.0,0.0,0.0,0.0,0.0,0.0,0.0,0.0,0.0,0.0,0.0,0.0,0.0,0.0,0.0,0.0,0.0,0.0,0.0,0.0,0.0,0.0,0.0,0.0,0.0,0.0,0.0,0.0,0.0,0.0,0.0,0.0,0.0,0.0,0.0,0.0,0.0,0.0,0.0,0.0,0.0,0.0,0.0,0.0,0.0,0.0,0.0,0.0,0.0,0.0,0.0,0.0,0.0,0.0,0.0,0.0,0.0,0.0,0.0,0.0,0.0,0.0,0.0,0.0,0.0,0.0,0.0,0.0,0.0,0.0,0.0,0.0,0.0,0.0,0.0,0.0,0.0,0.0,0.0,0.0,0.0,0.0,4.5964,4.6731,4.7493,4.7605,4.8029,4.8934,4.9008,4.9061,4.9179,4.9197,0.0,0.0,0.0,0.0,0.0,0.0,0.0,0.0,0.0,0.0,0.0,0.0,0.0,0.0,0.0,0.0,0.0,0.0,0.0,0.0,0.0,0.0,0.0,0.0,0.0,0.0,0.0,0.0,0.0,0.0,0.0,0.0,0.0,0.0,0.0,0.0,0.0,0.0,0.0,0.0,0.0,0.0,0.0,0.0,0.0,0.0,0.0,0.0,0.0,0.0,0.0,0.0,0.0,0.0,0.0,0.0,0.0,0.0,0.0,0.0,0.0,0.0,0.0,0.0,0.0,0.0,0.0,0.0,0.0,0.0,0.0,0.0,0.0,0.0,0.0,0.0,0.0,0.0,0.0,0.0,0.0,0.0,0.0,0.0,0.0,0.0,0.0,0.0,0.0,0.0,0.0,0.0,0.0,0.0,0.0,0.0,0.0,0.0,0.0,0.0,0.0,0.0,4.6834,4.7415,4.7664,4.8147,4.8574,4.8943,4.8962,4.903,4.9116,0.0,0.0,0.0,0.0,0.0,0.0,0.0,0.0,0.0,0.0,0.0,0.0,0.0,0.0,0.0,0.0,0.0,0.0,0.0,0.0,0.0,0.0,0.0,0.0,0.0,0.0,0.0,0.0,0.0,0.0,0.0,0.0,0.0,0.0,0.0,0.0,0.0,0.0,0.0,0.0,0.0,0.0,0.0,0.0,0.0,0.0,0.0,0.0,0.0,0.0,0.0,0.0,0.0,0.0,0.0,0.0,0.0,0.0,0.0,0.0,0.0,0.0,0.0,0.0,0.0,0.0,0.0,0.0,0.0,0.0,0.0,0.0,0.0,0.0,0.0,0.0,0.0,0.0,0.0,0.0,0.0,0.0,0.0,0.0,0.0,0.0,0.0,0.0,0.0,0.0,0.0,0.0,0.0,0.0,0.0,0.0,0.0,0.0,0.0,0.0,0.0,0.0,4.6973,4.7704,4.8141,4.8091,4.8574,4.8909,4.8909,4.8909,4.8943,4.9015,0.0,0.0,0.0,0.0,0.0,0.0,0.0,0.0,0.0,0.0,0.0,0.0,0.0,0.0,0.0,0.0,0.0,0.0,0.0,0.0,0.0,0.0,0.0,0.0,0.0,0.0,0.0,0.0,0.0,0.0,0.0,0.0,0.0,0.0,0.0,0.0,0.0,0.0,0.0,0.0,0.0,0.0,0.0,0.0,0.0,0.0,0.0,0.0,0.0,0.0,0.0,0.0,0.0,0.0,0.0,0.0,0.0,0.0,0.0,0.0,0.0,0.0,0.0,0.0,0.0,0.0,0.0,0.0,0.0,0.0,0.0,0.0,0.0,0.0,0.0,0.0,0.0,0.0,0.0,0.0,0.0,0.0,0.0,0.0,0.0,0.0,0.0,0.0,0.0,0.0,0.0,0.0,0.0,0.0,0.0,0.0,0.0,0.0,0.0,0.0,0.0,0.0,4.7988,4.8528,4.8909,4.8909,4.8909,4.8909,4.8909,4.8909,4.8909,0.0,0.0,0.0,0.0,0.0,0.0,0.0,0.0,0.0,0.0,0.0,0.0,0.0,0.0,0.0,0.0,0.0,0.0,0.0,0.0,0.0,0.0,0.0,0.0,0.0,0.0,0.0,0.0,0.0,0.0,0.0,0.0,0.0,0.0,0.0,0.0,0.0,0.0,0.0,0.0,0.0,0.0,0.0,0.0,0.0,0.0,0.0,0.0,0.0,0.0,0.0,0.0,0.0,0.0,0.0,0.0,0.0,0.0,0.0,0.0,0.0,0.0,0.0,0.0,0.0,0.0,0.0,0.0,0.0,0.0,0.0,0.0,0.0,0.0,0.0,0.0,0.0,0.0,0.0,0.0,0.0,0.0,0.0,0.0,0.0,0.0,0.0,0.0,0.0,0.0,0.0,0.0,0.0,0.0,0.0,0.0,0.0,0.0,0.0,0.0,0.0,0.0,0.0,4.8768,4.8863,4.8909,4.8909,4.8909,4.8909,4.8909,4.8909,4.8909,4.8909,0.0,0.0,0.0,0.0,0.0,0.0,0.0,0.0,0.0,0.0,0.0,0.0,0.0,0.0,0.0,0.0,0.0,0.0,0.0,0.0,0.0,0.0,0.0,0.0,0.0,0.0,0.0,0.0,0.0,0.0,0.0,0.0,0.0,0.0,0.0,0.0,0.0,0.0,0.0,0.0,0.0,0.0,0.0,0.0,0.0,0.0,0.0,0.0,0.0,0.0,0.0,0.0,0.0,0.0,0.0,0.0,0.0,0.0,0.0,0.0,0.0,0.0,0.0,0.0,0.0,0.0,0.0,0.0,0.0,0.0,0.0,0.0,0.0,0.0,0.0,0.0,0.0,0.0,0.0,0.0,0.0,0.0,0.0,0.0,0.0,0.0,0.0,0.0,0.0,0.0,0.0,0.0,0.0,0.0,0.0,0.0,0.0,0.0,0.0,0.0,0.0,0.0,4.9137,4.9098,4.8962,4.8962,4.9012,4.8978,4.8909,4.8962,4.8962,4.8909,0.0,0.0,0.0,0.0,0.0,0.0,0.0,0.0,0.0,0.0,0.0,0.0,0.0,0.0,0.0,0.0,0.0,0.0,0.0,0.0,0.0,0.0,0.0,0.0,0.0,0.0,0.0,0.0,0.0,0.0,0.0,0.0,0.0,0.0,0.0,0.0,0.0,0.0,0.0,0.0,0.0,0.0,0.0,0.0,0.0,0.0,0.0,0.0,0.0,0.0,0.0,0.0,0.0,0.0,0.0,0.0,0.0,0.0,0.0,0.0,0.0,0.0,0.0,0.0,0.0,0.0,0.0,0.0,0.0,0.0,0.0,0.0,0.0,0.0,0.0,0.0,0.0,0.0,0.0,0.0,0.0,0.0,0.0,0.0,0.0,0.0,0.0,0.0,0.0,0.0,0.0,0.0,0.0,0.0,0.0,0.0,0.0,0.0,0.0,0.0,0.0,0.0,4.9289,4.9164,4.9101,4.9101,4.9131,4.9079,4.8909,4.9015,4.9015,4.8909,0.0,0.0,0.0,0.0,0.0,0.0,0.0,0.0,0.0,0.0,0.0,0.0,0.0,0.0,0.0,0.0,0.0,0.0,0.0,0.0,0.0,0.0,0.0,0.0,0.0,0.0,0.0,0.0,0.0,0.0,0.0,0.0,0.0,0.0,0.0,0.0,0.0,0.0,0.0,0.0,0.0,0.0,0.0,0.0,0.0,0.0,0.0,0.0,0.0,0.0,0.0,0.0,0.0,0.0,0.0,0.0,0.0,0.0,0.0,0.0,4.9529,4.9396,0.0,0.0,0.0,0.0,0.0,0.0,0.0,0.0,0.0,0.0,0.0,0.0,0.0,0.0,0.0,0.0,0.0,0.0,0.0,0.0,0.0,0.0,0.0,0.0,0.0,0.0,0.0,0.0,0.0,0.0,0.0,0.0,0.0,0.0,0.0,0.0,0.0,0.0,0.0,0.0,4.9308,4.9164,4.9101,4.9101,4.903,4.8943,4.8909,4.8909,4.8909,4.8909,4.9057,0.0,0.0,0.0,0.0,0.0,0.0,0.0,0.0,0.0,0.0,0.0,0.0,0.0,0.0,0.0,0.0,0.0,0.0,0.0,0.0,0.0,0.0,0.0,0.0,0.0,0.0,0.0,0.0,0.0,0.0,0.0,0.0,0.0,0.0,0.0,0.0,0.0,0.0,0.0,0.0,0.0,0.0,0.0,0.0,0.0,0.0,0.0,0.0,0.0,0.0,0.0,0.0,0.0,0.0,0.0,0.0,0.0,0.0,0.0,4.9749,4.9569,0.0,0.0,0.0,0.0,0.0,0.0,0.0,0.0,0.0,0.0,0.0,0.0,0.0,0.0,0.0,0.0,0.0,0.0,0.0,0.0,0.0,0.0,0.0,0.0,0.0,0.0,0.0,0.0,0.0,0.0,0.0,0.0,0.0,0.0,0.0,0.0,0.0,0.0,0.0,0.0,4.9244,4.915,4.9101,4.9101,4.9064,4.9012,4.8909,4.8962,4.8962,4.8909,4.9262,0.0,0.0,0.0,0.0,0.0,0.0,0.0,0.0,0.0,0.0,0.0,0.0,0.0,0.0,0.0,0.0,0.0,0.0,0.0,0.0,0.0,0.0,0.0,0.0,0.0,0.0,0.0,0.0,0.0,0.0,0.0,0.0,0.0,0.0,0.0,0.0,0.0,0.0,0.0,0.0,0.0,0.0,0.0,0.0,0.0,0.0,0.0,0.0,0.0,0.0,0.0,0.0,0.0,5.032,5.0396,5.0552,5.0508,5.0539,5.0603,5.0304,4.9971,4.9693,5.0038,0.0,0.0,0.0,0.0,0.0,0.0,0.0,0.0,0.0,0.0,0.0,0.0,0.0,0.0,0.0,0.0,0.0,0.0,0.0,0.0,0.0,0.0,5.0153,5.0528,5.0425,5.0187,5.0068,0.0,0.0,0.0,0.0,0.0,0.0,0.0,0.0,0.0,0.0,0.0,4.9197,4.915,4.9101,4.9101,4.9131,4.9079,4.8909,4.8996,4.9015,4.8909,4.967,5.0488,0.0,0.0,0.0,0.0,0.0,0.0,0.0,0.0,0.0,0.0,0.0,0.0,0.0,0.0,0.0,0.0,0.0,0.0,0.0,0.0,0.0,0.0,0.0,0.0,0.0,0.0,0.0,0.0,0.0,0.0,0.0,0.0,4.5993,4.6766,0.0,0.0,0.0,0.0,0.0,0.0,0.0,0.0,0.0,0.0,0.0,0.0,0.0,5.0625,5.0805,5.0805,5.0805,5.0805,5.0805,5.1208,5.1943,5.1684,5.1989,5.2661,5.1891,0.0,5.0062,5.032,0.0,0.0,0.0,0.0,0.0,0.0,0.0,0.0,0.0,0.0,0.0,0.0,0.0,0.0,0.0,0.0,0.0,0.0,0.0,0.0,0.0,0.0,5.07,5.0756,5.0738,5.0682,5.0701,5.0383,5.0111,5.0062,4.983,4.9674,0.0,0.0,0.0,0.0,0.0,0.0,4.9197,4.915,4.9101,4.9101,4.8996,4.8943,4.8909,4.8909,4.8909,4.8909,4.967,5.0488,5.1361,5.2178,0.0,0.0,0.0,0.0,0.0,0.0,0.0,0.0,0.0,0.0,0.0,0.0,0.0,0.0,0.0,0.0,0.0,0.0,0.0,0.0,0.0,0.0,0.0,0.0,0.0,0.0,0.0,0.0,0.0,4.58,4.5969,4.6369,4.6518,4.677,0.0,0.0,0.0,0.0,0.0,0.0,0.0,0.0,0.0,5.0752,5.1234,5.1539,5.1621,5.2124,5.2356,5.2356,5.2356,5.255,5.2937,5.2794,5.2952,5.3299,5.2913,5.2473,5.1934,5.1086,5.0837,5.0943,0.0,0.0,0.0,0.0,5.0303,5.0303,5.0429,5.0449,5.0449,5.0467,0.0,0.0,0.0,0.0,0.0,0.0,0.0,5.0754,5.0877,5.0877,5.0861,5.0861,5.0861,5.0861,5.0861,5.0717,5.0529,5.0342,4.9987,4.9712,4.9787,0.0,0.0,0.0,0.0,4.9116,4.9046,4.8996,4.8996,4.8996,4.8962,4.8909,4.8909,4.8909,4.9094,4.9559,4.9949,5.0729,5.2029,5.2419,5.2977,0.0,0.0,0.0,0.0,0.0,0.0,0.0,0.0,0.0,0.0,0.0,0.0,0.0,0.0,0.0,0.0,0.0,0.0,0.0,0.0,0.0,0.0,0.0,0.0,0.0,0.0,0.0,0.0,4.5949,4.6002,4.6506,4.6939,4.752,0.0,0.0,0.0,0.0,0.0,0.0,5.1196,5.1235,5.1331,5.1563,5.2182,5.2531,5.2531,5.3169,5.3498,5.3498,5.3498,5.3614,5.3826,5.3826,5.3942,5.4136,5.3923,5.3826,5.371,5.2202,5.1597,5.1645,5.1414,5.1375,5.1365,5.1337,5.1337,5.1355,5.1501,5.1573,5.1554,5.1537,5.1537,5.1498,5.1261,0.0,0.0,0.0,0.0,5.1235,5.1235,5.1409,5.1583,5.1583,5.1389,5.1235,5.1235,5.1061,5.0841,5.0644,5.021,4.9917,4.9968,0.0,0.0,4.9289,4.9164,4.8996,4.8909,4.8909,4.8909,4.8909,4.8909,4.8909,4.8909,4.9094,4.9466,5.006,5.0543,5.1342,5.2549,5.281,5.32,5.3794,0.0,0.0,0.0,0.0,0.0,0.0,0.0,0.0,0.0,0.0,0.0,0.0,0.0,0.0,0.0,0.0,0.0,0.0,0.0,0.0,0.0,0.0,0.0,0.0,0.0,0.0,0.0,0.0,0.0,4.816,4.7622,0.0,0.0,0.0,0.0,4.9765,5.0442,5.1215,5.2086,5.2124,5.2511,5.3343,5.3401,5.342,5.342,5.3478,5.3498,5.3498,5.3498,5.3923,5.4735,5.4735,5.5142,5.5838,5.5064,5.4735,5.4658,5.3749,5.3846,5.4506,5.3674,5.3848,5.4486,5.3655,5.3346,5.3346,5.3382,5.3362,5.3362,5.3293,5.3275,5.3121,5.229,5.2073,0.0,0.0,5.1505,5.2124,5.2124,5.2743,5.3362,5.3362,5.2743,5.2124,5.2124,5.1486,5.0909,5.088,5.0587,5.039,5.0446,0.0,4.9424,4.9569,4.9206,4.8909,4.8909,4.8909,4.8909,4.8909,4.8909,4.8909,4.8909,4.9596,5.006,5.0098,5.1602,5.2512,5.2605,5.333,5.3775,5.3813,5.3813,0.0,0.0,0.0,0.0,0.0,0.0,0.0,0.0,0.0,0.0,0.0,0.0,0.0,0.0,0.0,0.0,0.0,0.0,0.0,0.0,0.0,0.0,0.0,0.0,0.0,0.0,0.0,0.0,4.7572,4.8313,0.0,4.9311,5.0051,5.0758,5.133,5.1595,5.2124,5.2995,5.3033,5.3169,5.3478,5.4039,5.4329,5.4329,5.4851,5.5103,5.5103,5.5103,5.5277,5.5567,5.5567,5.5741,5.5993,5.5702,5.5567,5.5548,5.5238,5.4658,5.3923,5.3614,5.3691,5.3923,5.3614,5.3498,5.3498,5.3498,5.3498,5.3498,5.3462,5.3462,5.3423,5.3114,5.3017,5.2975,5.2666,5.2801,5.3033,5.3033,5.3265,5.3498,5.3498,5.3265,5.3033,5.3033,5.2782,5.2569,5.2572,5.147,5.0469,5.0275,4.9865,4.948,4.9289,4.9079,4.8909,4.8909,4.8909,4.9113,4.967,4.9707,4.9912,5.0469,5.0766,5.1156,5.1676,5.2271,5.2809,5.3271,5.3567,5.3716,5.3619,5.3619,5.3619,0.0,0.0,0.0,0.0,0.0,0.0,0.0,0.0,0.0,0.0,0.0,0.0,0.0,0.0,0.0,0.0,0.0,0.0,0.0,0.0,0.0,0.0,0.0,0.0,0.0,4.7061,4.7699,4.8031,4.9044,4.9949,5.0584,5.1111,5.178,5.2627,5.2659,5.3014,5.3884,5.3942,5.4058,5.4329,5.4909,5.52,5.52,5.5741,5.6012,5.6012,5.6302,5.6437,5.6457,5.6747,5.6882,5.6882,5.6882,5.6882,5.6882,5.6882,5.6225,5.518,5.489,5.4967,5.5219,5.5219,5.5026,5.4735,5.4445,5.4349,5.4349,5.4349,5.4349,5.4291,5.402,5.3942,5.3884,5.3575,5.371,5.3942,5.3942,5.4136,5.4349,5.4349,5.4136,5.3942,5.3942,5.364,5.3337,5.3299,5.205,5.0891,5.0677,5.0035,4.948,4.9239,4.9269,4.9299,4.9299,4.9559,4.9968,5.0543,5.0562,5.0766,5.1342,5.1658,5.2029,5.2474,5.2828,5.3159,5.3619,5.3656,5.3468,5.3093,5.3093,5.3222,5.3499,0.0,0.0,0.0,0.0,0.0,0.0,0.0,0.0,0.0,0.0,0.0,0.0,0.0,0.0,0.0,0.0,0.0,0.0,0.0,0.0,0.0,0.0,0.0,4.7345,4.7984,4.8845,4.9705,4.9788,5.0439,5.2147,5.2249,5.2589,5.3478,5.3536,5.3923,5.4793,5.4832,5.52,5.5993,5.6031,5.6051,5.6051,5.607,5.6089,5.6089,5.694,5.7346,5.7385,5.8217,5.8604,5.8604,5.8604,5.8604,5.8604,5.8604,5.8623,5.8546,5.7675,5.7869,5.8604,5.8604,5.8062,5.723,5.6341,5.6051,5.6051,5.6012,5.6012,5.5857,5.5064,5.4832,5.4658,5.3826,5.4194,5.4832,5.4832,5.5412,5.6012,5.6012,5.5393,5.4832,5.4815,5.3957,5.3144,5.2982,5.2291,5.1734,5.1696,5.0475,4.948,4.945,4.9851,0.0,5.0153,5.0878,5.1416,5.1435,5.1435,5.1454,5.1472,5.2197,5.2605,5.2454,5.325,5.3656,5.3499,5.3499,5.313,5.2354,5.2336,5.2724,5.3499,0.0,0.0,0.0,0.0,0.0,0.0,0.0,0.0,0.0,0.0,0.0,0.0,0.0,0.0,0.0,0.0,0.0,0.0,0.0,0.0,0.0,4.9114,4.9226,4.8283,4.885,4.947,4.9697,5.0826,5.176,5.2259,5.2814,5.3494,5.4381,5.4442,5.4793,5.5625,5.5664,5.578,5.5993,5.6611,5.694,5.694,5.7579,5.7888,5.7888,5.812,5.8236,5.8255,5.8488,5.8604,5.8604,5.8604,5.8604,5.8604,5.8604,5.8971,5.9455,5.8584,5.8391,5.8604,5.8604,5.8449,5.812,5.725,5.694,5.6844,5.6205,5.6012,5.5973,5.5741,5.5664,5.5625,5.5374,5.549,5.5664,5.5664,5.5838,5.6012,5.6012,5.5838,5.5592,5.5343,5.5066,5.4745,5.4403,5.3489,5.2598,5.1945,5.1484,5.1123,5.09,5.0949,5.1045,5.1045,5.1249,5.1621,5.2215,5.2271,5.2494,5.3011,5.3271,5.3343,5.3207,5.341,5.3499,5.3359,5.3341,5.3226,5.2959,5.2959,5.3051,0.0,0.0,0.0,0.0,0.0,0.0,0.0,0.0,0.0,0.0,0.0,0.0,0.0,0.0,0.0,0.0,0.0,0.0,0.0,0.0,0.0,0.0,5.0147,5.0302,4.9712,5.0042,5.045,5.084,5.1772,5.2666,5.3397,5.388,5.4485,5.5306,5.5389,5.5579,5.6026,5.6029,5.6029,5.6012,5.6863,5.7308,5.7308,5.8159,5.8604,5.8604,5.8971,5.9145,5.9165,5.9493,5.9648,5.9648,5.9648,5.9648,5.9648,5.9648,5.9957,6.0325,0.0,0.0,0.0,0.0,5.9145,5.901,5.8159,5.7617,5.723,5.6708,5.6302,5.6012,5.6012,5.6012,5.6012,5.6012,5.6012,5.6012,5.6012,5.6012,5.6012,5.6012,5.5995,5.5923,5.5585,5.5384,5.5174,5.4771,5.4081,0.0,5.2794,5.2139,5.1641,5.1434,5.1695,5.1899,5.1899,5.2197,5.2549,5.2994,5.3049,5.3197,5.3561,5.3616,0.0,0.0,0.0,5.3359,5.3254,5.2923,0.0,0.0,0.0,5.2858,5.3206,5.3206,0.0,0.0,5.3028,5.2968,0.0,0.0,0.0,0.0,0.0,0.0,0.0,0.0,0.0,0.0,0.0,0.0,0.0,0.0,0.0,0.0,5.1226,5.1219,5.1219,5.123,5.1533,5.2391,5.2601,5.3278,5.4928,5.5112,5.5443,5.6164,5.6212,5.6197,5.6136,5.6126,0.0,0.0,0.0,5.7462,5.7462,5.8391,5.8874,5.8894,5.9667,6.0035,6.0054,6.077,6.1099,6.1099,6.1099,6.1099,6.1099,6.1099,6.1099,6.1041,6.0306,6.046,6.1002,6.0306,6.0035,5.9899,5.9048,0.0,0.0,5.7366,5.6786,5.6128,5.6031,5.6012,5.6012,5.6012,5.6012,5.6012,5.6012,5.6012,5.6012,5.5995,5.5998,5.5885,5.5519,5.5212,5.4857,5.4411,5.4144,5.3944,5.3813,5.2624,5.1676,5.1676,5.2289,5.2735,5.2735,5.3367,5.3754,5.3714,5.3674,0.0,5.3499,5.3499,5.34,5.3277,5.3277,5.3254,5.3206,5.2509,5.2472,5.3206,5.2509,5.2491,5.3206,5.3206,5.3206,5.3206,5.3206,5.3206,0.0,0.0,0.0,0.0,0.0,0.0,0.0,0.0,0.0,0.0,0.0,0.0,0.0,0.0,0.0,5.1326,5.1366,5.1367,5.1367,5.1367,5.1639,5.2411,5.3128,5.3947,5.4917,5.5646,5.6108,5.6269,5.6289,5.6281,5.6258,5.622,5.6168,5.6155,5.7583,5.8352,5.8352,5.9861,6.0615,6.0615,6.0789,0.0,6.0867,6.1041,6.1099,6.1099,6.1099,6.1099,6.1099,6.1099,6.1099,6.1079,6.0925,6.0963,6.1079,6.0925,6.0867,6.075,5.9919,5.9532,5.9165,5.7772,5.7192,5.6921,5.6205,5.6012,0.0,5.6012,5.6012,5.6012,5.6012,5.6012,5.5995,5.5998,5.5999,5.5807,5.5179,5.499,5.4708,5.4054,5.387,5.3851,5.3794,5.3553,5.3348,5.3348,5.3478,5.3571,5.3571,5.3662,5.3695,5.3714,5.3598,5.3499,5.3359,5.3359,5.3277,5.323,5.3248,5.3206,5.3206,5.3059,5.3041,5.3206,5.3059,5.3059,5.3206,5.3206,5.3206,5.3206,5.3206,5.3206,0.0,0.0,0.0,0.0,0.0,0.0,0.0,0.0,0.0,0.0,0.0,5.0918,5.1286,0.0,5.1406,5.1406,5.1405,5.1404,5.1404,5.14,5.1851,5.3103,5.3649,5.4392,5.5682,5.6189,5.644,5.6406,5.6406,5.6395,5.6341,5.6313,5.6279,5.6252,5.7806,5.8657,5.8661,6.0265,6.1099,6.1099,6.1099,6.1099,6.1099,6.1099,6.1099,6.1099,6.1099,6.1099,6.1099,6.1099,6.1099,6.1099,6.1099,6.1099,6.1099,6.1099,6.1099,6.1041,6.0634,5.9957,5.9106,5.8236,5.7366,5.6573,5.6128,5.6012,5.6012,5.6012,5.6012,5.5995,5.5996,5.5996,5.5998,5.5962,5.5807,5.5516,5.5018,5.4758,5.4444,5.3889,5.3813,5.3813,5.3813,5.3774,5.3754,5.3813,5.3774,5.3754,5.3754,5.3676,5.3558,5.3518,5.3459,5.3359,5.3254,5.3254,5.323,5.3206,5.3206,5.3206,5.3206,5.3206,5.306,5.2806,5.2806,5.2672,5.2408,5.2408,5.2408,5.2408,5.2408,5.2563,0.0,0.0,0.0,0.0,0.0,0.0,0.0,5.0237,5.0559,5.1262,5.1402,5.1405,5.1406,5.1405,5.1405,5.1406,5.1406,5.1404,5.1404,5.1398,5.2052,5.379,5.4005,5.4623,5.6196,5.6508,5.6579,5.6521,5.6522,5.6503,5.6442,5.6411,5.6377,5.6316,5.7732,5.8557,5.87,6.0157,6.0961,6.1099,6.1099,6.1099,6.1099,6.1099,6.1099,6.1099,6.1099,6.1099,6.1099,6.1099,6.1099,6.1099,6.1099,6.1099,6.1099,6.1099,6.1099,6.1099,6.1099,6.0112,5.8816,5.8662,5.754,5.6225,5.6051,5.6012,5.6012,5.5995,5.5995,5.5996,5.598,5.5981,5.5962,5.5807,5.5535,5.5212,5.4857,5.4509,5.4212,5.387,5.3813,5.3813,5.3774,5.3734,5.3695,5.3774,5.3716,5.3656,5.3656,5.3539,5.34,5.33,5.3277,5.3254,5.3206,5.3206,5.3164,5.306,5.3164,5.3121,5.2912,5.3017,5.2806,5.2268,5.225,5.2012,5.1601,5.1601,5.1601,5.1601,5.1601,5.1817,4.6624,4.6362,4.6674,4.8271,4.8662,4.8919,0.0,5.0691,5.1281,5.1379,5.1402,5.1404,5.14,5.1403,5.1405,5.1405,5.1405,5.1404,5.1404,5.1398,5.2052,5.379,5.3998,5.4381,5.5357,5.6157,5.6606,5.6595,5.6595,5.6595,5.6582,5.6465,5.6401,5.638,5.7258,5.8053,5.87,5.9657,6.046,6.1099,6.1099,6.1099,6.1099,6.1099,6.1099,6.1099,6.1099,6.1099,6.1099,6.1099,6.1099,6.1099,6.1099,6.1099,6.1099,6.1099,6.1099,6.1099,6.1099,6.0518,5.9629,5.8855,5.7946,5.7018,5.6244,5.6012,5.5995,5.5998,5.5999,5.5999,5.5943,5.5905,5.5826,5.5451,5.5336,5.5115,5.4509,5.433,5.4212,5.387,5.3813,5.3774,5.3734,5.3695,5.3714,5.3695,5.3598,5.3539,5.3539,5.34,5.3318,5.33,5.3272,5.3206,5.3206,5.3206,5.3017,5.2518,5.2955,5.2761,5.1817,5.2268,5.2268,5.1719,5.1719,5.1669,5.1601,5.1601,5.1601,5.1601,5.1601,5.1601,4.6377,4.7014,4.792,4.8623,4.9189,4.9774,5.0656,5.1135,5.1394,5.1394,5.1398,5.1402,5.1402,5.1404,5.1405,5.1406,5.1405,5.1404,5.1402,5.1843,5.2423,5.3159,5.4131,5.5103,5.5962,5.6391,5.6606,5.6606,5.6606,5.6606,5.6606,5.6546,5.6517,5.652,5.7257,5.7802,5.8122,5.9363,6.0162,6.046,6.0902,6.1099,6.1099,6.1099,6.1099,6.1099,6.1099,6.1099,6.1099,6.1099,6.1099,6.1099,6.1099,6.1099,6.1099,6.1099,6.1099,6.1041,6.0557,5.9841,5.899,5.8139,5.725,5.6478,5.6112,5.5998,5.5998,5.5943,5.5924,5.5943,5.5846,5.5846,5.5745,5.5394,5.5153,5.4886,5.4397,5.4161,5.3963,5.3851,5.3793,5.3734,5.3695,5.3558,5.3459,5.3459,5.34,5.34,5.34,5.3295,5.323,5.323,5.3206,5.3206,5.3206,5.3206,5.2955,5.2408,5.2608,5.2408,5.1601,5.1817,5.1651,5.1158,5.1105,5.0964,5.0657,5.0657,5.0657,5.0675,5.1112,5.1304,4.7196,4.8068,4.8915,4.9403,4.9813,5.034,5.1199,5.1402,5.1408,5.1405,5.1394,5.1398,5.1402,5.1403,5.1405,5.1406,5.1405,5.148,5.1711,5.2309,5.2885,5.337,5.4537,5.563,5.6528,5.6606,5.6606,5.6606,5.6606,5.6606,5.6606,5.6606,5.661,5.6598,5.7128,5.7496,5.7695,5.8808,5.9468,5.9657,6.0444,6.0805,6.0789,6.1002,6.1099,6.1099,6.1099,6.1099,6.1099,6.1099,6.1099,6.1099,6.1099,6.0963,6.077,6.077,6.077,6.0692,6.0093,5.9165,5.8139,5.7521,5.671,5.5996,5.5999,5.5981,5.5962,5.5885,5.5885,5.5865,5.5787,5.5724,5.5596,5.5243,5.4895,5.456,5.4246,5.3963,5.3774,5.3774,5.3716,5.3616,5.3616,5.3418,5.33,5.3295,5.3277,5.3277,5.3277,5.323,5.3206,5.3206,5.3206,5.3206,5.3206,5.306,5.2761,5.2203,5.2155,5.1866,5.121,5.1314,5.1105,5.0602,5.0756,5.0711,5.0304,5.0528,5.0614,5.0631,5.1166,5.1528,4.9518,4.9395,4.9208,5.0906,5.0711,5.034,5.1199,5.1402,5.1408,5.1398,5.1408,5.1396,5.1391,5.14,5.1404,5.1405,5.1402,5.1691,5.2531,5.2677,5.3327,5.5025,5.5259,5.563,5.6528,5.6606,5.6606,5.6606,5.6606,5.6606,5.6606,5.6606,5.6606,5.6606,5.6624,5.6972,5.7681,5.7742,5.8094,5.8745,5.9619,6.0011,5.9957,6.0731,6.1099,6.1099,6.1099,6.1099,6.1099,6.1099,6.1099,6.1099,6.1099,6.0615,5.9938,5.9938,5.9938,5.9919,5.9899,5.8778,5.7346,5.7308,5.6712,5.5999,5.5999,5.5943,5.5885,5.5826,5.5787,5.5787,5.5724,5.5508,5.5217,5.4895,5.456,5.4212,5.3907,5.3754,5.3695,5.3695,5.3598,5.344,5.3318,5.3318,5.3277,5.3206,5.3206,5.3206,5.3206,5.3206,5.3206,5.3206,5.3206,5.3206,5.3206,5.2717,5.2221,5.1669,5.1601,5.1158,5.0109,5.0564,5.0547,5.0051,5.0718,5.108,5.108,5.1804,5.2149,5.2149,5.2183,5.2597,4.8913,4.9454,4.9794,5.0399,5.075,5.1043,5.1336,5.1398,5.1398,5.1394,5.1398,5.1408,5.1394,5.1398,5.1403,5.1406,5.1891,5.2355,5.2668,5.3692,5.4635,5.522,5.5806,5.6274,5.6567,5.6606,5.6606,5.6606,5.6606,5.6606,5.6606,5.6606,5.6606,5.6606,5.6598,5.673,5.6972,5.7469,5.7802,5.8055,5.8776,5.9099,5.9048,5.9319,5.9764,6.0306,6.0306,6.0615,6.1099,6.1099,6.0789,6.0306,6.0306,5.9783,5.9029,5.9029,5.8662,5.8178,5.8178,5.7791,5.7193,5.6634,5.6231,5.5981,5.5885,5.5846,5.5826,5.5745,5.5745,5.5703,5.5485,5.5364,5.5164,5.4591,5.4364,5.4196,5.3831,5.3695,5.3656,5.3598,5.3459,5.3359,5.3318,5.3254,5.323,5.3206,5.3206,5.3206,5.3206,5.3206,5.3206,5.3206,5.3206,5.306,5.2717,5.2499,5.2012,5.1105,5.1052,5.0994,5.0718,5.0893,5.1118,5.1459,5.1718,5.1839,5.1839,5.2097,5.2218,5.2235,5.2612,5.2912,4.903,4.9903,5.0555,5.0555,5.0984,5.1394,5.1394,5.1394,5.1394,5.1394,5.1398,5.1408,5.1396,5.1402,5.1502,5.1816,5.2321,5.2922,5.3544,5.4587,5.5415,5.5728,5.6255,5.6606,5.6606,5.6606,5.6606,5.6606,5.6606,5.6606,5.6606,5.6606,5.6606,5.6606,5.6595,5.6605,5.6593,5.707,5.7422,5.7662,5.8059,5.8362,5.8604,5.8604,5.8913,5.9435,5.9435,5.9725,6.0209,6.0209,5.9899,5.9435,5.9435,5.8894,5.8139,5.8102,5.7561,5.6866,5.7156,5.7079,5.675,5.6154,5.5962,5.5905,5.5826,5.5787,5.5745,5.5724,5.5618,5.5527,5.5339,5.5091,5.4769,5.4326,5.4123,5.3944,5.3676,5.3598,5.3518,5.3459,5.3336,5.3254,5.3254,5.323,5.3206,5.3206,5.3206,5.3206,5.3206,5.3206,5.3164,5.3146,5.2937,5.268,5.2361,5.1946,5.1556,5.1243,5.1004,5.1089,5.1476,5.1511,5.1735,5.2201,5.2494,5.2649,5.2649,5.2846,5.2905,5.2922,5.3278,5.3438,4.9825,5.0694,5.1327,5.1371,5.139,5.139,5.1394,5.1394,5.1394,5.1394,5.1408,5.1398,5.1398,5.1404,5.1699,5.2556,5.2749,5.3368,5.5059,5.5345,5.5669,5.6508,5.6606,5.6606,5.6606,5.6606,5.6606,5.6606,5.6606,5.6606,5.6606,5.6606,5.6606,5.6606,5.6595,5.6605,5.6593,5.6598,5.6903,5.7526,5.7403,5.7737,5.8468,5.8468,5.8488,5.8526,5.8526,5.8565,5.8604,5.8604,5.8565,5.8526,5.8526,5.8004,5.7232,5.7157,5.6656,5.6115,5.6868,5.6636,5.5981,5.5905,5.5846,5.5787,5.5806,5.5745,5.5703,5.5684,5.5485,5.5288,5.5262,5.4659,5.4102,5.4067,5.3758,5.3499,5.3499,5.34,5.3318,5.3318,5.3254,5.3206,5.3206,5.3206,5.3206,5.3206,5.3164,5.3164,5.3206,5.3206,5.3164,5.2999,5.2445,5.2149,5.2191,5.1192,5.0917,5.1833,5.1425,5.1434,5.2174,5.2209,5.2226,5.2278,5.3019,5.346,5.346,5.396,5.4158,5.4175,5.4045,5.398,4.9388,4.9994,5.0373,5.1082,5.1252,5.1284,5.1386,5.1394,5.1398,5.1405,5.1408,5.1396,5.1403,5.1404,5.1699,5.2558,5.3241,5.4058,5.5145,5.5863,5.6341,5.6567,5.6606,5.6606,5.6606,5.6606,5.6606,5.6606,5.6606,5.6606,5.6606,5.6606,5.6606,5.6606,5.6595,5.6605,5.6593,5.66,5.6607,5.6639,5.6592,5.6608,5.667,5.667,5.7018,5.7637,5.7637,5.8004,5.8604,5.8604,5.8217,5.7637,5.7581,5.7041,5.6308,5.6271,5.6097,5.5943,5.6097,5.6059,5.5905,5.5846,5.5807,5.5787,5.5745,5.5724,5.5662,5.5461,5.5275,5.5053,5.4547,5.4206,5.3961,5.37,5.3582,5.3481,5.3359,5.33,5.3277,5.323,5.3206,5.3206,5.3206,5.3103,5.3042,5.3042,5.2955,5.2955,5.3042,5.3042,5.2999,5.2868,5.2343,5.2113,5.2386,5.163,5.1379,5.1916,5.1682,5.1901,5.2638,5.2672,5.2946,5.3528,5.3734,5.3836,5.3836,5.396,5.4045,5.4045,5.3849,5.3783,4.8852,4.9717,5.0456,5.0987,5.1103,5.115,5.1284,5.1302,5.1333,5.1385,5.1391,5.1396,5.1404,5.1405,5.1816,5.3066,5.3671,5.4448,5.5692,5.6292,5.6598,5.6606,5.6606,5.6606,5.6606,5.6606,5.6606,5.6606,5.6606,5.6606,5.6606,5.6606,5.6606,5.6606,5.6591,5.6602,5.6593,5.6562,5.6474,5.6288,5.6261,5.6175,5.6012,5.6012,5.6283,5.6728,5.6728,5.7018,5.7462,5.7464,5.7175,5.6731,5.6656,5.6348,5.5962,5.5885,5.5865,5.5846,5.5766,5.5766,5.5806,5.5766,5.5745,5.5745,5.5724,5.5618,5.5485,5.5275,5.4952,5.456,5.4171,5.3888,5.3662,5.3481,5.3378,5.3355,5.3254,5.3254,5.3254,5.3206,5.3206,5.3164,5.3103,5.3042,5.2999,5.2912,5.285,5.2806,5.2831,5.2893,5.285,5.2717,5.2282,5.2108,5.2307,5.1755,5.1674,5.2278,5.2267,5.2545,5.3297,5.3331,5.3536,5.398,5.398,5.398,5.398,5.3915,5.3849,5.3849,5.3668,5.3601,4.8352,4.9627,5.0959,5.0972,5.1004,5.1008,5.1141,5.1195,5.1225,5.1355,5.1391,5.14,5.1404,5.1406,5.1972,5.3729,5.4002,5.4605,5.6351,5.6602,5.6598,5.6606,5.6606,5.6606,5.6606,5.6606,5.6606,5.6606,5.6606,5.6606,5.6606,5.6606,5.6547,5.643,5.643,5.6364,5.6261,5.6183,5.6093,5.5976,5.5886,5.5841,5.5838,5.5838,5.5896,5.6012,5.6012,5.6012,5.5995,5.5998,5.5999,5.5981,5.5905,5.5885,5.5885,5.5826,5.5787,5.5766,5.5724,5.5703,5.5703,5.5703,5.5703,5.5684,5.5662,5.5461,5.5243,5.5026,5.4528,5.4032,5.3925,5.3584,5.3277,5.3277,5.323,5.3206,5.3206,5.3206,5.3206,5.3164,5.3164,5.3103,5.2999,5.2955,5.2893,5.2806,5.2779,5.2717,5.2608,5.2717,5.2717,5.2608,5.2243,5.2073,5.2232,5.1873,5.1996,5.2857,5.2908,5.3215,5.3898,5.3915,5.3915,5.3915,5.3915,5.3915,5.3915,5.3783,5.3651,5.3651,5.3551,5.3501,4.8068,4.9374,5.0773,5.0883,5.0913,5.0937,5.1027,5.1123,5.1211,5.1226,5.1316,5.14,5.1404,5.1406,5.1973,5.3711,5.4003,5.4606,5.6358,5.6605,5.6598,5.6606,5.6606,5.6606,5.6606,5.6606,5.6606,5.6606,5.6606,5.6606,5.6606,5.6606,5.6274,5.5552,5.5528,5.5185,5.4464,5.4386,5.4318,5.4223,5.4108,5.44,5.5006,5.5006,5.5374,5.6012,5.6012,5.6014,5.5999,5.5999,5.5962,5.5905,5.5846,5.5826,5.5826,5.5745,5.5724,5.5724,5.5684,5.5703,5.5703,5.5703,5.5703,5.5662,5.5437,5.525,5.5007,5.4452,5.4083,5.3796,5.3505,5.3318,5.3206,5.3206,5.3206,5.3206,5.3206,5.3206,5.3164,5.306,5.3042,5.2999,5.2868,5.2743,5.2635,5.2654,5.2599,5.2526,5.2526,5.2581,5.2608,5.2526,5.2161,5.2227,5.2933,5.2509,5.2567,5.3462,5.3414,5.3415,5.3551,5.3568,5.3568,5.3568,5.3568,5.3568,5.3568,5.3551,5.3551,5.3551,5.3501,5.3501,4.8048,4.9336,5.0721,5.0775,5.0793,5.0825,5.0923,5.0998,5.1061,5.1172,5.1249,5.1324,5.1384,5.1406,5.1816,5.3105,5.3691,5.445,5.5734,5.6315,5.6598,5.6606,5.6606,5.6606,5.6606,5.6606,5.6606,5.6606,5.6177,5.6118,5.6586,5.6177,5.5513,5.4654,5.4613,5.4411,5.3945,5.3873,5.3798,5.3682,5.3592,5.3751,5.4116,5.4116,5.4329,5.4697,5.4643,5.4896,5.5323,5.5248,5.5461,5.5846,5.5766,5.5745,5.5745,5.5724,5.5703,5.5645,5.5222,5.5068,5.4991,5.4549,5.4703,5.5006,5.465,5.436,5.4114,5.3987,5.3758,5.3487,5.3277,5.323,5.3206,5.3206,5.3206,5.3164,5.3103,5.3103,5.306,5.2912,5.2912,5.285,5.2698,5.2635,5.2608,5.2536,5.2526,5.2387,5.2048,5.2078,5.206,5.2048,5.2022,5.2149,5.2573,5.2797,5.3144,5.3584,5.3568,5.3501,5.3501,5.3501,5.3501,5.3501,5.3501,5.3501,5.3501,5.3501,5.3501,5.3501,5.3501,5.3501,4.8029,4.924,5.0471,5.0644,5.0702,5.074,5.0825,5.089,5.0937,5.1103,5.1152,5.1219,5.1327,5.1361,5.1659,5.2538,5.3416,5.4292,5.5187,5.6058,5.6595,5.6606,5.6606,5.6606,5.6606,5.6606,5.6528,5.6333,5.5513,5.5318,5.6001,5.5396,5.4615,5.376,5.3718,5.3592,5.3351,5.3286,5.3186,5.306,5.2976,5.3033,5.3207,5.3207,5.3323,5.3481,5.3428,5.3779,5.4398,5.4285,5.465,5.5227,5.5186,5.5164,5.5164,5.5164,5.5164,5.5068,5.4391,5.4139,5.3964,5.3015,5.3344,5.4015,5.3563,5.3309,5.3174,5.3404,5.3357,5.3254,5.3206,5.3206,5.3206,5.3206,5.3206,5.3164,5.3042,5.2999,5.2955,5.2806,5.2761,5.2717,5.2608,5.2563,5.2581,5.2498,5.2498,5.2275,5.1669,5.15,5.1381,5.1226,5.1725,5.2088,5.2088,5.298,5.3501,5.3501,5.3501,5.3501,5.3501,5.3501,5.3501,5.3501,5.3501,5.3501,5.3501,5.3501,5.3501,5.3501,5.3501,5.3501,4.7856,4.8779,4.9702,5.0491,5.0702,5.0702,5.0721,5.081,5.0902,5.0913,5.1016,5.1113,5.1122,5.1232,5.1593,5.2475,5.3383,5.4308,5.5187,5.6052,5.6606,5.6606,5.6606,5.6606,5.6606,5.6606,5.6274,5.5474,5.4615,5.4147,5.4225,5.4166,5.3721,5.285,5.2822,5.2402,5.1548,5.1466,5.1405,5.1338,5.1194,5.1544,5.2318,5.2318,5.2727,5.3411,5.3391,5.3415,5.3437,5.3417,5.3436,5.3433,5.3433,5.3433,5.3433,5.3433,5.3433,5.3393,5.3081,5.2949,5.2747,5.1505,5.187,5.2711,5.2371,5.246,5.2603,5.2338,5.2725,5.3206,5.3206,5.3206,5.3206,5.3206,5.3206,5.3164,5.3042,5.2999,5.2937,5.2654,5.2635,5.2608,5.2526,5.248,5.2498,5.2498,5.2498,5.2275,5.1669,5.1139,5.0607,5.0102,5.1294,5.2088,5.2088,5.298,5.3501,5.3501,5.3501,5.3501,5.3501,5.3501,5.3501,5.3501,5.3501,5.3501,5.3501,5.3501,5.3501,5.3501,5.3501,5.3501,4.7242,4.8375,4.9471,4.9817,5.0298,5.0702,5.0702,5.074,5.081,5.0871,5.0951,5.1008,5.1137,5.1199,5.1375,5.1804,5.3078,5.4111,5.4479,5.5716,5.6606,5.6606,5.6606,5.6606,5.6606,5.6138,5.524,5.3834,5.3405,5.2995,5.2468,5.2936,5.2823,5.1955,5.1923,5.1699,5.1235,5.1206,5.1123,5.0976,5.0937,5.108,5.1428,5.1415,5.1592,5.1885,5.1813,5.2068,5.2512,5.2473,5.2761,5.3203,5.3203,5.3203,5.3203,5.3203,5.3099,5.2851,5.2136,5.1777,5.1486,5.0412,5.022,5.044,5.0791,5.1342,5.1843,5.1996,5.2606,5.3206,5.3206,5.3164,5.3103,5.3103,5.3017,5.2912,5.2787,5.2743,5.2717,5.2554,5.2554,5.2508,5.2498,5.2498,5.2498,5.2498,5.2162,5.1719,5.1157,5.0552,4.9971,4.9436,5.0663,5.1566,5.1566,5.2736,5.3501,5.3501,5.3501,5.3501,5.3501,5.3501,5.3501,5.3501,5.3501,5.3501,5.3501,5.3501,5.3501,5.3501,5.3501,5.3501,4.678,4.7759,4.8779,4.9279,4.9856,5.0375,5.0625,5.0702,5.074,5.0827,5.0855,5.087,5.1025,5.1113,5.121,5.1301,5.2602,5.37,5.3966,5.5287,5.6313,5.6567,5.6606,5.6508,5.6235,5.5181,5.401,5.278,5.2468,5.2058,5.1433,5.198,5.2026,5.1411,5.1382,5.1322,5.1206,5.1187,5.1089,5.0906,5.0906,5.089,5.0893,5.0897,5.0883,5.0829,5.0757,5.1067,5.1607,5.1568,5.1914,5.2452,5.2452,5.2452,5.2452,5.2452,5.2267,5.1902,5.1091,5.0599,5.0256,4.9459,4.9015,4.8874,4.9414,5.0156,5.0935,5.1511,5.2357,5.3164,5.3164,5.3042,5.2955,5.2955,5.2868,5.2761,5.2635,5.259,5.2563,5.2526,5.2498,5.2498,5.2498,5.234,5.2209,5.2209,5.1719,5.1105,5.0552,5.0142,4.9674,4.9063,5.0135,5.098,5.12,5.2401,5.3247,5.3484,5.3501,5.3501,5.3501,5.3501,5.3501,5.3501,5.3501,5.3501,5.3501,5.3501,5.3501,5.3501,5.3501,5.3501,4.6627,4.6913,4.7317,4.899,4.9413,4.9644,5.0491,5.0702,5.0683,5.0683,5.0702,5.0701,5.0701,5.0914,5.1102,5.1103,5.201,5.3017,5.3888,5.4759,5.563,5.6508,5.6606,5.6255,5.5396,5.3737,5.2722,5.2702,5.1902,5.1414,5.1394,5.1414,5.1402,5.1398,5.1347,5.1277,5.1203,5.1122,5.103,5.0906,5.0906,5.0893,5.0899,5.0899,5.0829,5.0701,5.0701,5.0721,5.0702,5.0702,5.0721,5.0721,5.0721,5.0721,5.0721,5.0721,5.0481,5.0087,4.9746,4.9405,4.9038,4.866,4.8513,4.8457,4.8363,4.8912,4.9756,5.0582,5.1875,5.2999,5.2999,5.2893,5.2806,5.2806,5.2806,5.2761,5.2635,5.259,5.2563,5.2526,5.2498,5.2498,5.2498,5.2,5.1619,5.1619,5.1087,5.0497,4.9988,4.989,4.9674,4.9063,4.9661,5.0405,5.115,5.1894,5.2655,5.345,5.3501,5.3501,5.3501,5.3501,5.3501,5.3501,5.3501,5.3501,5.3501,5.3501,5.3501,5.3501,5.3501,5.3501,4.5914,4.6451,4.7163,4.824,4.8952,4.9625,5.0491,5.0702,5.0702,5.0702,5.0702,5.0738,5.0874,5.0981,5.1083,5.1283,5.2081,5.299,5.3881,5.4756,5.5611,5.6508,5.6079,5.5142,5.3678,5.3014,5.2448,5.1863,5.155,5.1394,5.1394,5.1402,5.1411,5.1398,5.1328,5.1277,5.1203,5.1122,5.103,5.0906,5.0906,5.0893,5.0899,5.0846,5.0775,5.0701,5.0702,5.0702,5.0702,5.0702,5.0702,5.0702,5.0702,5.0702,5.0663,5.0399,5.0049,4.97,4.9276,4.8934,4.8642,4.842,4.8363,4.8363,4.8306,4.8912,4.9866,5.1142,5.1833,5.2279,5.2747,5.2743,5.2654,5.2654,5.2645,5.2572,5.2554,5.2508,5.2526,5.2498,5.2162,5.1884,5.1884,5.1363,5.0964,5.0964,5.0497,5.0085,4.9948,4.9555,4.9229,4.9001,4.9204,4.9644,5.0388,5.1589,5.2418,5.2655,5.3196,5.3501,5.3501,5.3501,5.3501,5.3501,5.3501,5.3501,5.3501,5.3501,5.3501,5.3501,5.3501,5.3501,4.5586,4.599,4.6682,4.7817,4.8509,4.9221,5.0433,5.0702,5.0702,5.0702,5.0702,5.0757,5.092,5.0981,5.1064,5.1288,5.1828,5.2518,5.3385,5.3971,5.4635,5.5513,5.4849,5.3893,5.28,5.239,5.198,5.1433,5.1394,5.1394,5.1394,5.1374,5.1364,5.1367,5.1299,5.1224,5.1152,5.1074,5.0976,5.0906,5.0906,5.0893,5.0863,5.081,5.0757,5.0683,5.0702,5.0702,0.0,5.0702,5.0702,5.0702,5.0702,5.0624,5.0483,5.0206,4.98,4.9356,4.9029,4.8676,4.8401,4.8324,4.8267,4.8247,4.8247,4.8873,4.9713,5.0561,5.125,5.1766,5.2215,5.2453,5.2581,5.2581,5.2508,5.2498,5.2498,5.2322,5.2162,5.2162,5.1651,5.126,5.126,5.0769,5.0387,5.0387,4.993,4.9555,4.9555,4.9229,4.9001,4.9001,4.9001,4.9187,4.9644,5.0777,5.1708,5.2266,5.2773,5.3179,5.3501,5.3501,5.3501,5.3501,5.3501,5.3501,5.3501,5.3501,5.3501,5.3501,5.3501,5.3501,0.0,4.5586,4.599,4.7682,4.8105,4.8567,5.0298,5.0702,0.0,5.0702,5.0702,5.074,5.0871,5.0959,5.1045,5.1203,5.1318,5.1698,5.2589,5.2741,5.3073,5.3815,5.319,5.2683,5.2605,5.1882,5.1394,5.1394,5.1394,5.1394,5.1398,5.1346,5.1304,5.1296,5.1224,5.1159,5.1105,5.0961,5.0906,5.0906,5.0906,5.0858,5.0793,5.0793,5.0758,5.0702,5.0702,5.0702,5.0702,5.0702,5.0702,5.0702,5.0663,5.0483,5.0183,5.0068,4.9627,4.9052,4.8915,4.8586,4.8306,4.8306,4.8247,4.8187,4.8187,4.8718,4.9281,4.9195,5.0277,5.1427,5.1482,5.1991,5.2498,5.2498,5.2498,5.2498,5.2452,5.2,5.1601,5.1551,5.1034,5.0643,5.0643,5.0181,4.9832,4.9832,4.9333,4.9001,4.9001,4.9001,4.9001,4.9001,4.9001,4.9001,4.9001,4.9678,5.0676,5.2063,5.2198,5.2587,5.3382,5.3416,5.345,5.3501,5.3501,5.3501,5.3501,5.3501,5.3501,5.3501,5.3501,5.3501,4.5586,0.0,4.599,4.7682,4.8105,4.8567,0.0,5.0702,5.0702,5.0702,5.0702,5.0757,5.094,5.0996,5.1084,5.1302,5.1371,5.1691,5.2585,5.3268,5.3522,5.3053,5.2819,5.2448,5.1765,5.1511,5.1394,5.1394,5.1394,5.1408,5.1404,5.1346,5.1242,5.1145,5.1133,5.112,5.1105,5.0961,5.0906,5.0906,5.0906,5.0858,5.0793,5.0793,5.0758,5.0702,5.0702,5.0702,5.0702,5.0702,5.0702,5.0663,5.0421,5.0249,5.0068,4.9541,4.9177,4.8881,4.855,4.8402,4.8306,4.8247,4.8226,4.8148,4.8024,4.8134,4.8452,4.8967,4.9816,5.062,5.123,5.1946,5.2498,5.2498,5.2498,5.2387,5.1884,5.1719,5.1432,5.0982,5.046,5.0085,5.0085,4.9598,4.9229,4.9229,4.9124,4.9001,4.9001,4.9001,4.9001,4.9001,4.9001,4.9001,4.9001,4.9678,5.0236,5.0591,5.115,5.1809,5.2553,5.2587,5.2875,5.3501,5.3501,5.3501,5.3501,5.3501,5.3501,5.3501,5.3501,5.3501,4.5586,4.5893,4.649,4.7778,4.8394,4.9048,5.0375,5.0702,5.0702,5.0702,5.074,5.0839,5.0972,5.1053,5.1159,5.1362,5.1394,5.155,5.2038,5.2507,5.2624,5.2156,5.2097,5.1921,5.1453,5.1394,5.1394,5.1394,5.1394,5.1391,5.1406,5.1316,5.1205,5.1094,5.1042,5.1004,5.1004,5.0952,5.0906,5.0906,5.0893,5.0861,5.0793,5.0775,5.072,5.0702,5.0702,5.0702,5.0702,5.0702,5.0604,5.0399,5.0206,4.9924,4.9599,4.9177,4.8866,4.8658,4.8402,4.8267,4.8247,4.8226,4.8126,4.8046,4.7943,4.7884,4.7938,4.8369,4.8998,4.9796,5.0569,5.1339,5.1981,5.2072,5.2114,5.1933,5.1329,5.0999,5.0733,5.0404,4.9855,4.9513,4.9513,4.9229,4.9001,4.8894,4.8894,4.8877,4.8798,4.8753,4.8753,4.8753,4.8753,4.8753,4.8753,4.9169,4.9603,5.0067,5.0473,5.1031,5.1775,5.1809,5.2016,5.2419,5.2788,5.2747,5.2362,5.2362,5.2362,5.2362,5.2362,5.2362,4.5624,4.6336,4.7259,4.7932,4.8759,4.9663,5.0664,5.0875,5.0895,5.0895,5.1001,5.1063,5.1047,5.1132,5.1245,5.1386,5.1394,5.1394,5.1394,5.1394,5.1394,5.1394,5.1394,5.1394,5.1394,5.1394,5.1394,5.1394,5.1394,5.1391,5.1386,5.1277,5.116,5.1113,5.097,5.0906,5.0906,5.0906,5.0906,5.0906,5.0897,5.0863,5.0793,5.072,5.0702,5.0702,5.0702,5.0663,5.0624,5.0624,5.0399,4.9999,4.9993,4.9599,4.9052,4.89,4.8658,4.8457,4.8324,4.8247,4.8187,4.8148,4.8046,4.792,4.7861,4.7801,4.7657,4.7615,4.8193,4.9075,4.9727,5.0534,5.12,5.1379,5.1462,5.1329,5.0715,5.0237,4.989,4.9774,4.9333,4.9001,4.894,4.894,4.894,4.8769,4.8769,4.869,4.8547,4.8483,4.8483,4.8483,4.8483,4.8483,4.8483,4.8483,4.8879,4.9818,4.9852,5.0126,5.0738,5.0791,5.0777,5.0723,5.1498,5.1589,5.0892,5.1005,5.107,5.107,5.0995,5.0978,4.5797,4.6721,4.7952,4.8067,4.8759,4.9817,5.1356,5.1722,5.1742,5.1848,5.1899,5.177,5.1269,5.1195,5.1245,5.1386,5.1394,5.1394,5.1394,5.1394,5.1394,5.1394,5.1394,5.1394,5.1394,5.1394,5.1394,5.1394,5.1394,5.1381,5.1327,5.124,5.1176,5.1102,5.0971,5.0906,5.0906,5.0906,5.0906,5.0906,5.0897,5.0863,5.0793,5.072,5.0702,5.0702,5.0702,5.0544,5.0272,5.0272,5.0049,4.9654,4.9424,4.9177,4.8915,4.866,4.8458,4.8324,4.8265,4.8187,4.8148,4.8024,4.7902,4.7861,4.7759,4.7717,4.7615,4.7151,4.7939,4.8949,4.9057,4.9811,5.0557,5.0584,5.0712,5.0715,5.0142,4.993,4.9774,4.9229,4.9063,4.894,4.8832,4.8832,4.8769,4.8547,4.8564,4.8547,4.8483,4.8483,4.8483,4.8483,4.8483,4.8483,4.8483,4.8483,4.8597,4.8714,4.8778,4.8775,4.8942,4.9001,4.906,4.9102,4.9888,5.0262,5.0188,5.058,5.0735,5.0735,5.0566,5.049,4.6413,4.7183,4.8203,4.8682,4.9833,5.1061,5.1833,5.2056,5.2102,5.2086,5.1832,5.1517,5.1152,5.1211,5.1327,5.139,5.1394,5.1394,5.1394,5.1394,5.1394,5.1394,5.1394,5.1394,5.1394,5.1394,5.1394,5.1394,5.1391,5.1367,5.1301,5.12,5.1133,5.1101,5.0956,5.0906,5.0906,5.0906,5.0906,5.0906,5.0861,5.0829,5.0793,5.074,5.0605,5.0421,5.0421,5.0249,4.9968,4.9968,4.9738,4.9333,4.9196,4.8919,4.8586,4.8458,4.8324,4.8247,4.8226,4.8126,4.8006,4.7943,4.7861,4.7717,4.7363,4.7258,4.7169,4.6613,4.7112,4.786,4.7979,4.8364,4.8862,4.9398,4.9604,4.96,4.9351,4.929,4.9212,4.8798,4.8736,4.8673,4.8627,4.8627,4.8564,4.8356,4.8356,4.8292,4.8244,4.8244,4.8244,4.8244,4.7869,4.7572,4.7572,4.7237,4.7221,4.7803,4.7885,4.7687,4.7249,4.7716,4.7725,4.7299,4.8056,4.8254,4.784,4.8091,4.8356,4.8715,4.8651,4.8758,4.6877,4.7453,4.8356,4.9433,5.0873,5.2111,5.2337,5.2637,5.2783,5.2549,5.2133,5.1654,5.1172,5.1258,5.1394,5.1394,5.1394,5.1394,5.1394,5.1394,5.1394,5.1394,5.1394,5.1394,5.1394,5.1394,5.1394,5.1394,5.1402,5.1364,5.1297,5.1172,5.11,5.1101,5.0956,5.0906,5.0906,5.089,5.0909,5.0909,5.0827,5.0793,5.0775,5.0644,5.0442,5.0206,5.0135,4.9943,4.9693,4.9674,4.9382,4.8971,4.899,4.8677,4.8306,4.8267,4.8247,4.8187,4.8166,4.8006,4.7861,4.7717,4.7615,4.7407,4.6863,4.6707,4.6595,4.6017,4.6165,4.6548,4.6903,4.7033,4.7213,4.7941,4.8283,4.848,4.8444,4.8589,4.869,4.8547,4.8483,4.8483,4.842,4.842,4.8356,4.8179,4.8163,4.8115,4.8001,4.8001,4.7935,4.7704,4.7186,4.6742,4.6534,4.604,4.5953,4.6592,4.6678,4.6454,4.5834,4.6212,4.6159,4.5526,4.6253,4.639,4.5748,4.59,4.6152,4.6652,4.6652,4.6932,4.6915,4.7376,4.849,5.0104,5.1221,5.2165,5.3078,5.3939,5.4362,5.3799,5.365,5.3148,5.165,5.139,5.1394,5.1394,5.1394,5.1394,5.1394,5.1394,5.1394,5.1394,5.1394,5.1394,5.1394,5.1394,5.1394,5.1394,5.1402,5.1364,5.1297,5.1172,5.11,5.1101,5.0956,5.0906,5.0906,5.0897,5.0899,5.0899,5.0827,5.0775,5.0701,5.0383,5.0206,5.0183,4.9936,4.9684,4.9427,4.9277,4.8986,4.8623,4.855,4.8438,4.8306,4.8226,4.8187,4.8148,4.7984,4.7902,4.7819,4.7151,4.6954,4.6863,4.631,4.6165,4.6,4.5355,4.5197,4.5372,4.587,4.6152,4.6295,4.6195,4.6878,4.7474,4.7479,4.8015,4.8547,4.8483,4.8483,4.842,4.8227,4.8227,4.8163,4.8066,4.8001,4.8001,4.8001,4.8001,4.7704,4.6965,4.6811,4.6534,4.5841,4.5697,4.539,4.4721,4.4871,4.4871,4.4662,4.422,4.3892,4.3907,4.4701,4.513,4.505,4.5526,4.5777,4.5822,4.5545,4.5822,4.7607,4.7818,4.868,5.0796,5.2107,5.3082,5.4105,5.466,5.473,5.3953,5.3442,5.2757,5.1605,5.1394,5.1394,5.1394,5.1394,5.1394,5.1394,5.1394,5.1394,5.1394,5.1394,5.1394,5.1394,5.1394,5.1405,5.14,5.1365,5.1301,5.1245,5.1162,5.1095,5.1101,5.0956,5.0906,5.0906,5.0897,5.0883,5.0846,5.0775,5.072,5.0682,5.0361,5.0111,4.9936,4.9684,4.9346,4.9027,4.8959,4.8785,4.8513,4.8401,4.8324,4.8208,4.8226,4.8126,4.7966,4.7536,4.7363,4.7169,4.6595,4.6358,4.6165,4.5648,4.5407,4.5197,4.4652,4.4502,4.4502,4.4763,4.4856,4.497,4.5443,4.5765,4.6274,4.7104,4.7521,4.7775,4.8096,4.8179,4.8179,4.8115,4.8066,4.8049,4.8001,4.8001,4.7853,4.7337,4.7253,4.6981,4.6198,4.5681,4.5079,4.4297,4.422,4.4066,4.3771,4.4282,4.4358,4.3771,4.3566,4.3423,4.3423,4.3743,4.3942,4.3942,4.4133,4.4383,4.4869,4.4691,4.505,4.8048,4.8103,4.8813,5.1624,5.2854,5.372,5.5034,5.5374,5.5132,5.4079,5.3011,5.2117,5.1511,5.1394,5.1394,5.1394,5.1394,5.1394,5.1394,5.1394,5.1394,5.1394,5.1394,5.1394,5.1394,5.1394,5.1408,5.1406,5.1335,5.1274,5.1195,5.1144,5.1087,5.1067,5.0956,5.089,5.0893,5.088,5.0793,5.0644,5.0567,5.0547,5.0527,5.0135,4.9857,4.9655,4.9365,4.9027,4.8787,4.8715,4.8606,4.8419,4.8324,4.8247,4.8187,4.7929,4.7765,4.7554,4.7017,4.6707,4.6548,4.595,4.5699,4.5563,4.4947,4.4708,4.4558,4.4155,4.4056,4.3998,4.3981,4.3981,4.4173,4.4599,4.4883,4.534,4.6483,4.6949,4.7268,4.7852,4.8001,4.8001,4.8001,4.8001,4.7919,4.7638,4.7638,4.7337,4.6534,4.6464,4.6182,4.5405,4.4586,4.3927,4.3329,4.3329,4.3329,4.3329,4.3849,4.3849,4.3329,4.3329,4.3329,4.3329,4.3329,4.3329,4.3329,4.3329,4.3569,4.4003,4.4003,4.4347,4.8155,4.8105,4.8914,5.2584,5.3387,5.3817,5.5833,5.6191,5.5683,5.4279,5.2605,5.1394,5.1394,5.1394,5.1394,5.1394,5.1394,5.1394,5.1394,5.1394,5.1394,5.1394,5.1394,5.1394,5.1394,5.1394,5.1408,5.1406,5.1335,5.1269,5.1198,5.1132,5.1067,5.1005,5.0921,5.0893,5.0899,5.0846,5.0644,5.0298,5.023,5.0183,5.0183,4.9627,4.9415,4.9384,4.8978,4.8787,4.8787,4.8587,4.8419,4.8306,4.8226,4.8187,4.8108,4.7371,4.7107,4.6999,4.631,4.6098,4.595,4.5303,4.5108,4.4947,4.431,4.4097,4.4039,4.3956,4.3898,4.3839,4.3628,4.3763,4.3839,4.3628,4.4158,4.487,4.5616,4.6361,4.7106,4.7852,4.8001,4.8001,4.8001,4.8001,4.7704,4.6896,4.6811,4.6534,4.5769,4.5697,4.5405,4.4586,4.3771,4.3329,4.3329,4.3329,4.3329,4.3329,4.3329,4.3329,4.3329,4.3329,4.3329,4.3329,4.3329,4.3329,4.3329,4.3329,4.3329,4.325,4.3329,4.3688,4.8183,4.8579,4.9788,5.2592,5.3474,5.4119,5.5909,5.5763,5.4824,5.3264,5.2113,5.1394,5.1394,5.1394,5.1394,5.1394,5.1394,5.1394,5.1394,5.1394,5.1394,5.1394,5.1394,5.1394,5.1394,5.1394,5.1379,5.1335,5.1304,5.1252,5.1147,5.1102,5.1067,5.1005,5.0921,5.0893,5.0899,5.0644,5.0446,5.0278,4.9857,4.974,4.991,4.9558,4.9365,4.9233,4.8925,4.8715,4.8587,4.8401,4.8324,4.8169,4.7775,4.7567,4.7371,4.6753,4.6454,4.631,4.5767,4.5459,4.5303,4.4691,4.4406,4.4196,4.3998,4.3881,4.3747,4.3687,4.3687,4.3704,4.3628,4.3628,4.3687,4.3628,4.3794,4.4141,4.4854,4.5599,4.6344,4.7073,4.721,4.7186,4.7186,4.6705,4.6269,4.6056,4.6056,4.5753,4.4962,4.4358,4.3849,4.3536,4.322,4.3076,4.3076,4.3076,4.3076,4.3076,4.3076,4.3155,4.325,4.3329,4.3329,4.3329,4.3329,4.3329,4.3329,4.3329,4.2996,4.2415,4.2996,4.3099,4.8388,4.8864,5.0201,5.2855,5.3632,5.4117,5.5509,5.5422,5.4682,5.3364,5.2469,5.1804,5.1453,5.1394,5.1394,5.1394,5.1394,5.1394,5.1394,5.1394,5.1394,5.1394,5.1394,5.1394,5.1394,5.1408,5.1366,5.1301,5.1279,5.1203,5.1114,5.1095,5.1053,5.0956,5.0925,5.0897,5.0863,5.0527,5.0275,5.0092,4.9627,4.9377,4.9401,4.9239,4.9108,4.9023,4.8804,4.8569,4.8401,4.8132,4.7955,4.7852,4.7273,4.6918,4.6707,4.6098,4.58,4.5614,4.5108,4.4801,4.4652,4.4253,4.4056,4.3898,4.3839,4.3704,4.3628,4.3628,4.3628,4.3628,4.3628,4.3628,4.3628,4.3628,4.3628,4.381,4.4522,4.5049,4.5503,4.6241,4.641,4.6324,4.6324,4.5969,4.5551,4.5169,4.4721,4.4343,4.3834,4.3394,4.301,4.2915,4.2915,4.2915,4.2915,4.2915,4.2739,4.2304,4.2304,4.2222,4.1961,4.2304,4.2304,4.1961,4.2029,4.2029,4.1961,4.214,4.1879,4.1267,4.1961,4.1976,4.8729,4.9077,5.0322,5.3234,5.3956,5.4167,5.5002,5.5295,5.5094,5.406,5.3244,5.2429,5.157,5.1394,5.1394,5.1394,5.1394,5.1394,5.1394,5.1394,5.1394,5.1394,5.1394,5.1394,5.1394,5.1402,5.1365,5.132,5.1245,5.1181,5.1114,5.1101,5.1039,5.0906,5.0861,5.0791,5.064,5.0291,4.9954,4.9644,4.9356,4.9085,4.8787,4.8787,4.8787,4.8751,4.8587,4.8363,4.8172,4.7775,4.7488,4.7255,4.6624,4.631,4.6098,4.5459,4.5108,4.4964,4.4463,4.4196,4.4056,4.3956,4.3898,4.3839,4.3645,4.3628,4.3628,4.3628,4.3568,4.3552,4.3492,4.3432,4.3432,4.3355,4.3432,4.3674,4.4318,4.4413,4.4556,4.5282,4.5451,4.5473,4.5536,4.5478,4.511,4.422,4.3314,4.2688,4.2688,4.2688,4.2688,4.2688,4.2688,4.2607,4.2526,4.2526,4.217,4.1212,4.1113,4.0689,3.9724,4.0689,4.0774,3.9899,4.0045,4.0045,3.9899,4.0332,4.0404,4.0031,4.0404,4.0504,4.9382,4.9877,5.1108,5.3243,5.476,5.5794,5.5989,5.6008,5.5394,5.3268,5.2765,5.2429,5.1562,5.141,5.1394,5.1394,5.1394,5.1394,5.1394,5.1394,5.1394,5.1394,5.1394,5.1394,5.1394,5.1402,5.1365,5.132,5.1232,5.1181,5.1114,5.1053,5.0971,5.0906,5.0642,5.0183,4.9471,4.8922,4.8589,4.8453,4.8156,4.8261,4.8787,4.8787,4.8715,4.855,4.8401,4.8075,4.7572,4.747,4.7062,4.6484,4.595,4.5648,4.5459,4.4746,4.4502,4.4446,4.4196,4.4056,4.3956,4.3898,4.3763,4.3628,4.3628,4.3628,4.3628,4.3628,4.3432,4.3096,4.271,4.238,4.2045,4.1577,4.2062,4.2618,4.2763,4.2716,4.2779,4.3434,4.3568,4.3639,4.4159,4.3741,4.3299,4.3076,4.285,4.2688,4.2688,4.2688,4.2622,4.2459,4.2459,4.2199,4.1423,4.1339,4.0958,3.9958,3.9858,3.9434,3.8328,3.9549,4.0073,3.9899,3.9972,3.9972,3.9899,3.9986,3.9637,3.8841,3.9724,3.9637,4.9702,5.0206,5.127,5.284,5.4215,5.5209,5.5209,5.5155,5.4613,5.2898,5.2955,5.2928,5.1635,5.1406,5.1394,5.1394,5.1394,5.1394,5.1394,5.1394,5.1394,5.1394,5.1394,5.1402,5.1396,5.0996,5.0705,5.0625,5.0216,4.9932,4.986,4.9819,4.9707,4.9464,4.9298,4.8907,4.8296,4.7802,4.7529,4.7489,4.7564,4.7974,4.8661,4.8661,4.8438,4.8053,4.7937,4.7572,4.7035,4.6699,4.6323,4.5868,4.539,4.5018,4.4801,4.4463,4.4196,4.4097,4.4056,4.3881,4.3763,4.3763,4.3704,4.3568,4.3432,4.3372,4.3312,4.3174,4.2834,4.238,4.2126,4.1706,4.1264,4.0966,4.1248,4.1609,4.1609,4.1544,4.1595,4.1965,4.2196,4.2417,4.2746,4.2708,4.2541,4.2541,4.2459,4.2392,4.2392,4.2392,4.2213,4.1576,4.1576,4.1141,4.0187,4.01,3.9738,3.8738,3.8662,3.8225,3.7176,3.7874,3.8225,3.8225,3.8302,3.8302,3.8225,3.8405,3.8238,3.7612,3.8238,3.8328,5.004,5.0557,5.145,5.2461,5.3337,5.3955,5.3955,5.3897,5.3603,5.2731,5.3195,5.3284,5.1689,5.1406,5.139,5.1394,5.1394,5.1355,5.1199,5.118,5.1121,5.0965,5.0949,5.0945,5.0957,5.0239,4.9747,4.9671,4.9001,4.8567,4.849,4.8502,4.8292,4.7914,4.7835,4.7589,4.7087,4.6883,4.6761,4.6719,4.7336,4.7868,4.8324,4.8247,4.7955,4.753,4.7342,4.699,4.6454,4.59,4.5511,4.525,4.4852,4.4536,4.4253,4.4253,4.4097,4.3898,4.3763,4.3628,4.3492,4.3355,4.3295,4.3235,4.2834,4.2694,4.2678,4.2364,4.1981,4.1525,4.1444,4.1013,4.056,4.0492,4.0423,4.0492,4.0628,4.0567,4.0465,4.0586,4.1109,4.1571,4.1571,4.2034,4.2325,4.2325,4.2175,4.2009,4.1814,4.1814,4.1437,4.0432,4.0332,3.9986,3.9033,3.8944,3.8599,3.7625,3.7533,3.7176,3.6452,3.6358,3.6358,3.6358,3.6534,3.6534,3.6358,3.6828,3.6828,3.6628,3.6922,3.7015,5.0911,5.1665,5.2506,5.2668,5.3218,5.374,5.374,5.368,5.3394,5.2527,5.2609,5.257,5.1576,5.1391,5.1406,5.1394,5.1394,5.1141,5.0379,5.0262,4.9989,4.9247,4.9153,4.916,4.914,4.899,4.886,4.8772,4.8599,4.8509,4.8488,4.844,4.826,4.7914,4.7608,4.6941,4.5856,4.6203,4.6338,4.6308,4.7274,4.7706,4.753,4.7142,4.7097,4.7385,4.6963,4.6341,4.5648,4.5545,4.5108,4.4446,4.4406,4.4253,4.4097,4.3998,4.3956,4.3822,4.3372,4.3174,4.3035,4.2317,4.2061,4.1917,4.138,4.1166,4.1166,4.1166,4.0863,4.0485,3.9999,3.9606,3.922,3.8679,3.8531,3.8811,3.9576,3.9162,3.8719,3.9288,4.0377,4.1171,4.1171,4.1724,4.2175,4.2175,4.2092,4.1814,4.0873,4.0788,4.0432,3.9461,3.9373,3.9033,3.8069,3.7978,3.7625,3.664,3.6546,3.6546,3.637,3.6358,3.6358,3.6358,3.6452,3.6452,3.6358,3.6452,3.6452,3.6452,3.6452,3.6452,5.1054,5.1537,5.1966,5.1915,5.2134,5.2356,5.2356,5.2329,5.2047,5.1191,5.1109,5.1083,5.0751,5.0664,5.0503,5.0028,4.993,4.9801,4.9424,4.9367,4.9214,4.8789,4.8747,4.8738,4.874,4.8236,4.7899,4.7864,4.7256,4.6877,4.6866,4.6679,4.6396,4.6058,4.6322,4.6082,4.5345,4.596,4.6336,4.6358,4.6717,4.6945,4.7008,4.6389,4.6244,4.6448,4.6147,4.5683,4.5089,4.4927,4.4597,4.4293,4.4196,4.4097,4.3998,4.3898,4.3509,4.2974,4.271,4.2285,4.1788,4.1396,4.1264,4.1198,4.0727,4.0591,4.0591,4.0401,4.0015,3.9636,3.9421,3.8929,3.8501,3.8277,3.8202,3.8337,3.8752,3.8472,3.8405,3.9073,3.9654,4.0263,4.0974,4.1337,4.1671,4.2034,4.1633,4.1071,4.0689,4.0159,3.9461,3.8509,3.8419,3.8069,3.7083,3.7002,3.6815,3.6452,3.6358,3.6358,3.6358,3.6358,3.6156,3.5571,3.6061,3.6061,3.5463,3.6061,3.5763,3.4581,3.5174,3.5174,5.1109,5.1256,5.1369,5.1323,5.1317,5.1291,5.1317,5.1147,5.0801,5.0158,4.9847,4.9646,4.9463,4.9611,4.9562,4.8912,4.8805,4.8721,4.8496,4.8456,4.8355,4.8083,4.8053,4.803,4.8034,4.7392,4.6951,4.6862,4.6074,4.5543,4.5473,4.5415,4.5242,4.4893,4.5603,4.5795,4.5382,4.6022,4.6414,4.6543,4.6245,4.6193,4.6358,4.5767,4.5407,4.5355,4.532,4.5089,4.4648,4.4423,4.4179,4.3931,4.3831,4.3519,4.3218,4.3218,4.2694,4.1949,4.1836,4.1346,4.0712,4.0507,4.0439,4.0385,3.9999,3.9859,3.9804,3.9535,3.9205,3.887,3.887,3.8501,3.8202,3.8202,3.8202,3.8202,3.8202,3.8202,3.8347,3.8855,3.9088,3.9509,4.0452,4.0887,4.1184,4.1317,4.0958,4.0418,3.9784,3.9197,3.8509,3.7453,3.7361,3.7176,3.6452,3.637,3.6275,3.6275,3.6275,3.6073,3.5763,3.5763,3.5271,3.4166,3.4957,3.5066,3.4385,3.5174,3.4775,3.3201,3.3993,3.3993,5.1292,5.1296,5.1317,5.1388,5.1343,5.1317,5.1388,5.0758,5.0153,5.0095,4.9445,4.8605,4.7782,4.8298,4.885,4.8814,4.8801,4.8515,4.7676,4.7512,4.7182,4.6417,4.6259,4.6235,4.6232,4.6124,4.597,4.5722,4.5632,4.5473,4.514,4.584,4.6055,4.5641,4.6354,4.6533,4.6131,4.6316,4.6488,4.6682,4.6143,4.5815,4.5563,4.5052,4.4648,4.4406,4.4703,4.4648,4.4293,4.431,4.3739,4.2847,4.2847,4.2252,4.1346,4.1346,4.1182,4.0899,4.0607,4.0485,4.0278,3.9493,3.9162,3.909,3.8486,3.8337,3.8337,3.8263,3.8277,3.8277,3.8277,3.8202,3.8202,3.8202,3.8202,3.8202,3.8202,3.8202,3.8217,3.8246,3.8768,3.9218,3.9291,4.0292,4.0752,3.9648,4.0139,3.9784,3.7468,3.7599,3.7453,3.6193,3.637,3.6452,3.6358,3.6193,3.6015,3.6015,3.5812,3.5211,3.419,3.4091,3.3563,3.2431,3.2431,3.2755,3.33,3.33,3.33,3.3201,3.33,3.3201,5.13,5.1308,5.1316,5.1342,5.133,5.1174,5.0674,5.0329,4.9789,4.8652,4.817,4.7713,4.6889,4.7411,4.7776,4.7219,4.7128,4.701,4.6644,4.6582,4.6437,4.6115,4.6046,4.5977,4.5859,4.5775,4.5642,4.5361,4.5621,4.5745,4.5621,4.6175,4.6409,4.6215,4.6598,4.6727,4.6584,4.6611,4.6404,4.6049,4.5767,4.5355,4.4855,4.4558,4.4088,4.3453,4.3571,4.3571,4.3453,4.335,4.2831,4.2062,4.1869,4.1528,4.1198,4.1049,4.0644,4.0039,3.9929,3.952,3.8972,3.8634,3.8501,3.8501,3.8277,3.8052,3.7839,3.7839,3.761,3.7443,3.7443,3.7443,3.7443,3.7443,3.7443,3.7275,3.6858,3.712,3.7443,3.7443,3.7628,3.7742,3.7728,3.8067,3.8227,3.7833,3.7786,3.7451,3.6572,3.6468,3.6263,3.5812,3.5812,3.5895,3.5895,3.5812,3.5416,3.4799,3.4605,3.408,3.2955,3.2955,3.2443,3.1316,3.1224,3.1429,3.1644,3.2252,3.196,3.0557,3.1483,3.1586,5.13,5.13,5.13,5.1308,5.1303,5.1096,5.0284,4.9867,4.9254,4.7791,4.7264,4.6905,4.6365,4.6705,4.6869,4.6289,4.6187,4.6144,4.6112,4.6076,4.6026,4.5902,4.5905,4.5808,4.5555,4.5488,4.5458,4.544,4.5716,4.5957,4.6121,4.6507,4.6683,4.6654,4.6749,4.6704,4.6524,4.6436,4.6017,4.5303,4.5214,4.4766,4.3997,4.3898,4.3376,4.2488,4.2488,4.255,4.255,4.2442,4.1869,4.1162,4.0894,4.0538,4.0263,4.0109,3.9703,3.9088,3.9088,3.8752,3.8202,3.8052,3.7976,3.7976,3.7825,3.7596,3.738,3.738,3.7226,3.6978,3.6978,3.6978,3.6978,3.673,3.6559,3.6229,3.5561,3.6056,3.6573,3.6387,3.6308,3.6273,3.6253,3.6388,3.6397,3.6009,3.5963,3.5787,3.5533,3.5375,3.5328,3.55,3.5524,3.5416,3.5114,3.5005,3.4495,3.3388,3.3277,3.2666,3.1531,3.1531,3.103,2.9911,2.9901,2.9901,2.9911,3.0824,3.0535,2.9132,3.0057,3.0162,0.0,0.0,0.0,5.131,5.1297,5.1083,5.0243,4.9416,4.8547,4.7654,4.6788,4.6191,4.6191,4.6202,4.6192,4.619,4.6136,4.6098,4.6091,4.6017,4.5922,4.5733,4.5703,4.5555,4.5227,4.5206,4.5401,4.5873,4.5916,4.614,4.6587,4.6817,4.6928,4.6963,4.6829,4.6478,4.585,4.5699,4.525,4.4446,4.4446,4.3939,4.2982,4.2982,4.2425,4.1478,4.1478,4.1528,4.1593,4.1478,4.0961,4.0146,3.9975,3.9277,3.8516,3.8516,3.8366,3.8202,3.8202,3.8202,3.8127,3.7687,3.7625,3.7534,3.7148,3.6978,3.6978,3.6978,3.6978,3.6978,3.69,3.69,3.673,3.607,3.5561,3.5047,3.4389,3.5142,3.5736,3.5074,3.4979,3.4979,3.4897,3.5432,3.5358,3.4196,3.478,3.4994,3.4123,3.4421,3.4924,3.5174,3.5416,3.5114,3.4091,3.3697,3.3089,3.1971,3.1666,3.1062,2.9922,2.9817,2.9313,2.8291,2.8291,2.8291,2.8291,2.8814,2.9132,2.9026,2.9026,2.9026,5.1303,0.0,0.0,0.0,0.0,0.0,4.9495,4.8977,4.8377,4.6873,4.6378,4.6198,4.6198,4.6167,4.6137,4.6133,4.6105,4.6068,4.5975,4.5861,4.5733,4.5574,4.5416,4.5246,4.4992,4.5409,4.571,4.5688,4.6667,4.7146,4.6818,4.6943,4.6793,4.6353,4.6227,4.58,4.5106,4.4927,4.4395,4.3604,4.3495,4.286,4.1917,4.1917,4.133,4.0363,4.0363,4.0085,3.9662,4.0154,3.9889,3.9147,3.9002,3.8723,3.8441,3.8366,3.8066,3.7763,3.7763,3.761,3.7289,3.7211,3.7148,3.7148,3.7056,3.6772,3.6549,3.6549,3.6284,3.5951,3.5453,3.5359,3.5196,3.4538,3.4204,3.394,3.3275,3.336,3.37,3.4024,3.4037,3.3953,3.3445,3.3474,3.3318,3.2472,3.2861,3.3332,3.3522,3.3908,3.4437,3.4872,3.4311,3.3697,3.34,3.2689,3.1666,3.0535,3.0432,2.9932,2.8804,2.8698,2.8601,2.8291,2.8291,2.8291,2.8291,2.8398,2.8504,2.8504,2.7814,2.7482,5.1291,5.1299,5.1316,5.1343,0.0,0.0,4.9062,4.8475,4.7825,4.6482,4.6191,4.6153,4.6153,4.6098,4.6017,4.5959,4.5899,4.5875,4.5808,4.5638,4.5451,4.5285,4.5144,4.5103,4.5186,4.5553,4.5894,4.6136,4.695,4.7187,4.6591,4.6597,4.6323,4.5683,4.5494,4.5196,4.4703,4.4219,4.3722,4.3108,4.2629,4.1853,4.0977,4.0894,4.0278,3.9349,3.9349,3.8914,3.8337,3.8752,3.8841,3.8649,3.8427,3.8292,3.8142,3.7991,3.7687,3.738,3.738,3.7226,3.6978,3.6758,3.6772,3.6679,3.6508,3.6284,3.6138,3.6138,3.5723,3.5209,3.4799,3.4468,3.4134,3.3458,3.33,3.3129,3.245,3.2101,3.2089,3.2772,3.2859,3.2785,3.2363,3.2276,3.2189,3.1749,3.1949,3.2346,3.2887,3.3018,3.3219,3.3738,3.3074,3.2387,3.1869,3.1257,3.0442,2.9313,2.9207,2.89,2.8291,2.7853,2.752,2.752,2.707,2.6834,2.6834,2.7286,2.7295,2.6726,2.6273,2.5936,5.1293,5.1299,5.1308,5.1308,5.0639,0.0,4.8903,4.8037,4.7171,4.6342,4.6099,4.6049,4.6041,4.5968,4.5848,4.5684,4.5587,4.5555,4.5623,4.5416,4.5165,4.4915,4.4876,4.5059,4.5477,4.5611,4.6011,4.6763,4.6813,4.6597,4.6112,4.6017,4.5683,4.4978,4.4759,4.4575,4.4316,4.3529,4.2909,4.252,4.1739,4.0826,4.0005,3.9834,3.9277,3.8366,3.8366,3.8066,3.7457,3.7534,3.7839,3.8292,3.8127,3.7839,3.7534,3.7534,3.7303,3.6915,3.6915,3.6915,3.6836,3.647,3.6232,3.6138,3.5723,3.5548,3.5467,3.5372,3.495,3.4454,3.4358,3.3869,3.3275,3.2612,3.245,3.2276,3.1661,3.1128,3.0949,3.1484,3.1572,3.1572,3.1572,3.1572,3.1572,3.1572,3.1484,3.1586,3.2134,3.1692,3.1593,3.2093,3.1694,3.0959,2.9922,2.9713,2.9207,2.8291,2.8184,2.8184,2.796,2.6971,2.6409,2.63,2.5278,2.4616,2.4505,2.5735,2.5735,2.4727,2.4616,2.4505,5.1307,5.1308,5.1307,5.1294,5.064,0.0,4.8911,4.8035,4.7131,4.6152,4.5866,4.5736,4.565,4.5519,4.5416,4.5379,4.5185,4.508,4.5204,4.5077,4.4915,4.4674,4.4803,4.4896,4.4938,4.57,4.6236,4.6426,4.6302,4.6194,4.6098,4.5546,4.4998,4.4614,4.4071,4.363,4.33,4.23,4.1528,4.0878,4.0416,3.9748,3.8797,3.8797,3.8427,3.7763,3.7763,3.7197,3.6387,3.6886,3.7226,3.7289,3.7211,3.7211,3.7148,3.7148,3.6836,3.6549,3.6549,3.6298,3.5951,3.5884,3.5467,3.5046,3.4881,3.4551,3.405,3.359,3.3139,3.2611,3.2003,3.1753,3.15,3.0836,3.0668,3.0668,3.0487,3.0397,3.0397,3.0487,3.0487,3.0487,3.0487,3.0487,3.0487,3.0487,3.0011,2.9815,3.0311,3.0212,3.0297,3.0766,3.0342,2.9797,2.9587,2.8562,2.7853,2.7647,2.7539,2.7088,2.6182,2.6191,2.5744,2.4735,2.4727,2.4292,2.3303,2.4514,2.4948,2.4727,2.3743,2.3303,5.1324,5.1307,5.1284,5.1265,5.0263,0.0,0.0,4.7503,4.6387,4.5815,4.5591,4.5488,4.5417,4.5323,4.5207,4.5123,4.4924,4.4726,4.4463,4.4401,4.443,4.4673,4.4613,4.4801,4.5479,4.6012,4.6278,4.6195,4.5888,4.5459,4.5003,4.449,4.3997,4.3453,4.2998,4.2613,4.2236,4.1396,4.0675,4.0154,3.9305,3.8694,3.8202,3.7901,3.7429,3.6794,3.6794,3.6136,3.5142,3.5467,3.5575,3.5426,3.6163,3.6149,3.5722,3.6056,3.5924,3.5562,3.5562,3.5386,3.5127,3.4524,3.4108,3.3843,3.3577,3.3237,3.298,3.271,3.2178,3.1653,3.1311,3.0968,3.0633,3.0306,3.0216,3.0216,3.0216,3.0034,2.9852,2.9852,2.9669,2.9669,3.0125,3.0216,3.0125,2.9738,2.936,2.9068,2.8925,2.8794,2.8817,2.9046,2.8669,2.8455,2.8455,2.7843,2.7088,2.6527,2.6527,2.5963,2.4727,2.4292,2.3519,2.2281,2.2387,2.2176,2.1623,2.2281,2.262,2.2966,2.2425,2.2093,5.1324,5.1297,5.1284,5.1171,4.9854,4.8534,0.0,0.0,0.0,4.5526,4.5361,4.5246,4.5245,4.5144,4.4973,4.4732,4.458,4.4337,4.3717,4.3649,4.3931,4.4559,4.4381,4.4729,4.599,4.6011,4.5861,4.573,4.5037,4.4339,4.3588,4.3317,4.2876,4.2205,4.1869,4.1543,4.1213,4.0416,3.9874,3.9463,3.8234,3.7644,3.7491,3.6886,3.6229,3.5642,3.5561,3.4897,3.3888,3.3888,3.3564,3.3177,3.4828,3.4897,3.4139,3.4555,3.4485,3.4275,3.4275,3.4275,3.4108,3.3152,3.2809,3.2537,3.2016,3.1828,3.1741,3.1741,3.13,3.0789,3.0789,3.0362,2.9943,2.9943,2.9943,2.9943,2.9943,2.9669,2.9393,2.9393,2.8932,2.8839,2.976,2.984,2.9463,2.8899,2.8516,2.8132,2.7453,2.7388,2.735,2.735,2.7324,2.7323,2.7323,2.7098,2.6427,2.5525,2.5186,2.4514,2.3383,2.2289,2.1288,2.027,2.027,2.027,2.027,2.027,2.0507,2.0974,2.0974,2.0859,5.1317,5.1308,5.1267,5.1082,4.9716,4.8391,4.8253,0.0,4.5665,4.5531,0.0,4.5094,4.4972,0.0,0.0,4.4004,4.3893,4.3684,4.3086,4.3217,4.3504,4.3951,4.4227,4.4634,4.5354,4.4905,4.4487,4.4249,4.336,4.2753,4.2629,4.2316,4.1981,4.1609,4.0946,4.0416,4.01,3.9205,3.8486,3.8098,3.7169,3.6531,3.6215,3.5561,3.4979,3.4472,3.4043,3.3224,3.2314,3.2438,3.1753,3.0734,3.2624,3.3237,3.3152,3.2784,3.2599,3.2599,3.2599,3.2599,3.2525,3.2438,3.1916,3.1311,3.0633,3.0102,2.984,2.984,2.9474,2.9106,2.9106,2.9024,2.8943,2.8943,2.8943,2.8943,2.8943,2.8943,2.885,2.885,2.8269,2.7977,2.8839,2.8351,2.7872,2.7778,2.6628,2.5674,2.5577,2.5853,2.5985,2.5985,2.6611,2.7098,2.7098,2.5889,2.5,2.4889,2.3871,2.2749,2.1509,2.0608,2.0155,2.027,2.027,2.027,2.027,2.027,2.0392,2.0392,2.0392,1.9802,5.1369,5.1217,5.105,5.1005,4.9919,4.8731,4.8198,4.7087,4.5976,4.5292,0.0,0.0,0.0,0.0,0.0,0.0,4.3642,4.3283,4.2641,4.2941,4.3451,4.4074,4.4061,4.4058,4.426,4.4215,4.3963,4.3333,4.2831,4.2269,4.1836,4.1346,4.0826,4.0324,3.9748,3.9088,3.8324,3.7829,3.7141,3.6346,3.5628,3.5224,3.4979,3.4511,3.3759,3.298,3.2722,3.204,3.0913,3.108,3.0722,3.0216,3.0812,3.1158,3.1424,3.1577,3.1653,3.1653,3.1653,3.1653,3.1565,3.0878,3.026,2.9726,2.9474,2.9209,2.9117,2.9117,2.8932,2.8757,2.8757,2.8757,2.8757,2.8757,2.8757,2.8757,2.8757,2.8456,2.807,2.807,2.72,2.6617,2.6914,2.702,2.6829,2.635,2.5674,2.5194,2.5064,2.5321,2.5672,2.5903,2.5775,2.5771,2.5771,2.4548,2.3432,2.2757,2.1623,2.0723,2.0155,1.9822,1.9591,1.9822,1.9822,1.9461,1.8629,1.8629,1.8273,1.7566,1.8739,1.85,5.1281,5.1072,5.0868,5.085,5.0038,4.899,4.8144,4.718,4.6189,4.5162,4.4821,0.0,0.0,0.0,4.3949,4.3638,0.0,4.281,4.2162,4.2608,4.3293,4.3976,4.3955,4.3698,4.3386,4.33,4.3059,4.2411,4.2013,4.1428,4.0805,4.0309,3.9677,3.8855,3.8546,3.7829,3.6724,3.6568,3.6001,3.5061,3.421,3.3791,3.3649,3.2993,3.2326,3.1548,3.1359,3.0836,3.0034,2.9852,2.9852,2.976,2.9485,2.9485,2.976,3.0351,3.0519,3.0519,3.0519,3.0519,3.0429,2.9566,2.9117,2.8757,2.8757,2.8757,2.8664,2.8664,2.8664,2.856,2.856,2.856,2.856,2.856,2.856,2.8466,2.8175,2.7683,2.72,2.6894,2.5935,2.5158,2.5158,2.546,2.5567,2.4992,2.4698,2.4569,2.4508,2.4589,2.4765,2.5477,2.4648,2.4206,2.4326,2.3199,2.1964,2.0723,1.9931,1.9366,1.9366,1.9366,1.9243,1.8887,1.8887,1.8292,1.6979,1.6979,1.6273,1.5095,1.6862,1.6973,5.0932,5.0855,5.0761,5.0567,4.9912,4.9026,4.8034,4.7079,4.6149,0.0,0.0,4.4712,4.4693,4.4221,0.0,0.0,4.2698,0.0,0.0,4.2144,4.2825,4.344,4.3936,4.3855,4.3103,4.2173,4.1494,4.1327,4.0409,3.9681,3.9481,3.925,3.8546,3.7281,3.7281,3.6646,3.5386,3.5386,3.5047,3.4306,3.3174,3.2438,3.2064,3.0836,3.0306,3.0216,2.976,2.9577,2.9485,2.9024,2.885,2.885,2.885,2.8664,2.8488,2.8757,2.885,2.885,2.885,2.885,2.8839,2.8839,2.885,2.8757,2.8757,2.8581,2.8395,2.8395,2.8196,2.7987,2.7987,2.7987,2.7987,2.7987,2.7987,2.7694,2.6723,2.6426,2.6127,2.512,2.4258,2.3782,2.3782,2.3791,2.3791,2.3791,2.3111,2.2866,2.3785,2.2997,2.293,2.4153,2.3292,2.2717,2.2974,2.1964,2.0723,1.9482,1.9366,1.9366,1.9366,1.9366,1.8765,1.7572,1.7572,1.6985,1.5688,1.5688,1.4976,1.3784,1.5095,1.4976,5.0972,5.0522,5.0134,5.0471,4.9962,4.9093,4.8037,4.7348,4.6525,4.5004,0.0,0.0,0.0,4.3523,4.3105,0.0,4.2198,4.1666,0.0,4.1306,4.1994,4.2634,4.3105,4.286,4.1444,4.1393,4.1142,4.0524,3.9839,3.9235,3.859,3.8144,3.7357,3.6411,3.6094,3.5453,3.4472,3.4139,3.3382,3.2302,3.1777,3.1258,3.0746,3.0397,3.0034,2.976,2.9577,2.9301,2.9024,2.8664,2.8581,2.8488,2.8373,2.8186,2.8186,2.8488,2.8384,2.8279,2.8279,2.8279,2.8279,2.8279,2.8279,2.8279,2.8279,2.8186,2.8092,2.8092,2.8092,2.7998,2.7998,2.7998,2.7799,2.7115,2.6914,2.6617,2.5528,2.4944,2.4473,2.4168,2.3194,2.2417,2.2417,2.2114,2.2114,2.282,2.2944,2.2842,2.2883,2.2699,2.2606,2.272,2.1624,2.1016,2.1145,2.0242,1.9455,1.9113,1.9243,1.901,1.8169,1.8169,1.7578,1.6279,1.6279,1.5564,1.4381,1.4381,1.367,1.2492,1.2973,1.3026,5.069,5.0212,4.9822,5.0045,4.9709,4.9066,4.8034,4.7351,4.6459,4.4849,0.0,0.0,0.0,0.0,4.2426,0.0,0.0,4.1069,0.0,4.0585,4.0885,4.1188,4.1981,4.1933,4.0646,4.0309,4.0085,3.9783,3.8841,3.813,3.78,3.7035,3.616,3.5278,3.4884,3.4236,3.3335,3.2809,3.214,3.1128,3.0668,3.0216,2.9943,2.976,2.9485,2.9117,2.9117,2.8839,2.8466,2.829,2.829,2.8196,2.8092,2.7904,2.7904,2.8196,2.8196,2.7998,2.7998,2.7998,2.7998,2.7998,2.7998,2.7998,2.7998,2.7904,2.7809,2.7809,2.7809,2.762,2.7326,2.7231,2.6924,2.5848,2.5548,2.5256,2.4159,2.3583,2.3203,2.2802,2.2013,2.146,2.1591,2.1314,2.1314,2.2017,2.2113,2.2014,2.2161,2.1634,2.1219,2.1314,2.0228,1.9441,1.955,1.8622,1.8046,1.8046,1.7812,1.7337,1.6503,1.6621,1.5992,1.4611,1.4811,1.4222,1.2967,1.2991,1.2699,1.187,1.2048,1.2162]}]]